GFSSE_prec_cloud_003.txt.gz
Cloud_Cover
100 100 100 100 100 84 5 84 88 86 90 93 100 100 100 93 19 85 100 98 9 87 27 94 75 100 100 100 100 100 99 88 100 100 100 100 100 100 32 21 5 10 56
100 100 100 100 100 83 6 24 79 100 100 100 86 30 98 100 16 75 20 40 5 89 8 97 13 100 100 100 40 100 100 100 100 100 100 100 100 100 100 17 5 27 95
100 100 85 69 100 87 86 98 100 100 100 42 32 100 97 98 79 95 44 63 93 20 64 100 100 100 72 100 100 100 100 100 100 100 100 100 100 100 100 100 95 100 100
100 100 81 64 100 66 99 94 100 100 99 89 99 100 83 24 4 2 41 9 15 22 65 100 100 100 99 100 100 100 100 100 100 100 100 100 100 100 100 100 100 100 100
66 85 46 100 100 100 100 89 90 94 100 100 100 39 2 5 5 1 0 0 4 13 0 5 100 100 100 100 100 100 100 100 100 100 100 100 100 100 100 100 100 100 100
5 3 3 34 13 6 23 100 100 100 11 6 7 19 7 5 0 0 0 0 0 0 0 0 56 100 100 100 100 100 100 100 100 100 100 100 100 100 100 100 100 100 100
8 2 4 5 60 99 100 96 87 5 33 30 4 0 0 0 0 0 0 0 0 0 0 0 0 60 100 100 100 100 100 100 100 100 100 100 100 100 100 100 100 100 100
6 5 8 34 60 16 5 0 0 0 0 0 0 0 0 0 0 0 0 0 0 0 0 0 0 0 39 100 100 100 100 100 100 100 100 100 100 100 100 100 100 100 76
2 5 10 0 0 0 0 0 0 0 0 0 0 0 0 0 0 0 0 0 0 0 0 0 0 1 68 99 100 100 100 100 100 100 100 100 100 100 100 100 100 100 70
0 0 0 0 0 0 0 0 0 0 0 0 0 0 0 0 0 0 0 0 0 0 0 0 0 4 39 100 100 100 100 100 100 100 100 100 100 100 100 100 100 100 100
0 0 0 0 0 0 0 0 0 0 0 0 1 0 0 0 0 0 4 4 0 3 4 0 0 0 5 68 100 100 100 100 100 100 100 100 78 98 99 100 100 100 100
0 1 0 0 0 0 0 0 0 0 0 2 44 14 0 0 0 0 0 0 3 5 5 4 0 0 0 2 18 100 100 100 100 100 100 100 100 50 37 100 84 90 100
0 0 0 0 1 2 3 5 5 5 86 86 70 79 37 14 5 2 4 5 1 0 1 5 5 5 0 0 2 100 100 100 100 100 100 100 100 100 100 100 89 100 100
4 5 5 6 49 100 100 100 100 100 100 98 95 82 52 22 24 66 94 100 100 15 2 2 20 0 5 11 3 27 100 100 100 94 100 100 100 100 94 88 66 99 100
3 5 47 54 52 73 99 100 100 100 100 100 100 100 58 55 69 30 28 83 98 96 99 100 78 18 0 3 5 5 45 100 100 100 100 100 100 100 100 100 36 29 100
78 66 76 100 100 100 100 95 96 91 100 57 99 99 78 66 42 14 56 79 45 99 90 64 88 100 100 76 17 4 6 20 100 100 100 100 100 100 100 100 100 96 45
100 100 85 22 12 20 5 5 5 5 5 5 5 5 5 5 5 5 5 5 3 5 5 23 20 5 14 13 7 5 5 5 5 71 100 100 100 100 100 100 100 100 100
76 5 5 5 5 3 5 5 5 5 5 5 5 5 5 5 5 10 5 5 5 5 5 5 5 5 5 5 1 3 0 1 3 5 10 95 100 100 100 100 100 100 100
5 3 5 5 5 13 5 5 5 5 5 5 5 5 5 5 5 5 5 5 5 17 5 9 8 6 0 0 0 0 0 0 0 1 2 0 50 100 100 100 100 100 100
20 25 10 5 5 3 2 0 1 3 5 7 59 24 5 5 5 5 5 5 5 6 24 55 41 19 5 1 0 0 0 0 0 0 0 0 2 0 2 59 100 100 100
4 5 5 5 5 5 5 5 5 5 5 5 5 29 51 28 5 5 5 5 5 5 5 8 7 5 2 0 0 2 4 0 0 0 5 5 5 15 5 5 1 52 100
5 8 5 5 10 24 9 5 5 5 1 1 2 4 4 5 5 5 4 5 5 5 5 5 6 42 12 5 0 0 0 2 5 5 5 16 96 47 7 5 5 2 4
3 1 2 5 5 5 2 5 5 1 0 3 34 52 62 52 5 5 5 5 26 35 4 5 5 48 97 50 49 42 55 12 5 19 50 32 36 11 4 5 30 57 5
5 5 7 72 85 94 100 94 99 100 100 100 100 100 100 100 100 90 60 25 76 92 98 80 83 24 5 13 33 100 100 75 58 78 100 99 5 4 0 5 15 100 61
5 6 59 46 38 60 25 100 100 100 100 100 100 100 100 100 91 26 36 61 100 100 98 100 99 100 100 100 93 100 100 100 64 53 8 97 77 5 6 6 5 41 36
32 5 5 64 72 52 44 52 40 55 32 4 4 2 0 0 0 0 13 76 98 42 45 100 100 78 61 98 100 99 90 71 90 82 44 5 61 5 5 13 88 48 5

GFSSE_prec_cloud_006.txt.gz
Cloud_Cover
17 84 100 95 95 6 100 100 100 100 67 99 100 100 100 100 100 95 68 8 53 71 12 99 24 100 48 90 100 86 100 100 96 100 35 100 100 93 88 97 46 91 5
99 58 47 61 99 99 82 100 100 100 100 100 100 100 100 100 100 100 100 72 44 42 6 5 53 44 68 84 82 92 100 100 98 93 99 98 100 100 100 100 6 15 33
100 100 100 100 100 100 100 100 100 74 18 100 100 100 100 58 100 100 92 32 31 31 7 1 44 95 100 100 89 5 95 100 100 100 100 100 100 100 100 100 100 79 35
100 100 100 100 100 100 100 63 86 68 100 100 100 100 90 31 97 100 72 92 84 26 2 5 4 98 100 100 100 87 98 100 100 100 100 100 99 100 100 100 100 100 76
100 100 100 100 81 34 5 3 8 75 86 100 100 88 91 50 86 83 22 9 14 10 4 1 0 1 48 100 100 100 100 100 100 100 100 100 100 99 100 100 100 100 100
100 55 30 4 0 0 0 0 5 5 68 35 99 5 5 1 5 3 0 0 0 0 0 3 4 0 0 0 9 100 100 100 100 100 100 100 100 100 100 100 100 100 100
26 91 0 0 1 4 74 5 1 0 0 0 0 0 0 0 0 0 0 0 0 10 0 0 0 4 16 22 0 30 100 100 100 100 100 100 100 100 100 100 100 100 100
8 23 0 0 0 0 0 0 0 0 0 0 0 0 0 0 0 0 0 0 0 2 0 15 0 0 0 0 0 7 98 100 100 100 100 100 100 100 100 100 100 100 100
0 0 0 0 0 0 0 0 0 0 0 0 0 0 0 0 0 0 0 0 0 0 0 0 0 0 0 1 0 2 6 59 100 100 100 100 100 100 100 100 100 100 100
0 0 0 0 0 0 0 0 0 0 0 0 0 0 0 0 0 0 0 0 4 1 0 0 0 0 0 0 0 2 59 7 85 100 100 100 100 100 100 100 100 100 100
0 0 0 0 0 0 0 0 0 1 2 0 0 1 1 0 0 0 0 0 0 0 1 0 4 0 0 0 0 1 5 100 28 100 100 100 100 100 100 100 100 100 100
0 0 0 0 0 0 1 8 5 5 5 14 24 6 5 5 4 3 4 2 1 2 0 0 2 5 3 3 0 0 5 28 100 99 92 100 100 100 95 100 100 100 100
0 0 2 0 0 0 0 4 5 5 5 7 26 24 5 5 5 5 5 5 27 71 15 4 4 4 2 5 4 4 5 37 54 100 100 100 100 100 75 32 100 100 100
0 5 5 5 5 5 5 5 5 6 6 11 5 5 40 86 24 7 19 4 24 11 31 90 97 78 34 5 3 5 4 11 74 47 100 100 100 100 100 100 89 100 49
5 5 5 5 9 5 5 5 5 4 6 3 5 5 13 8 5 5 16 13 28 8 18 25 9 46 82 77 100 17 5 4 2 8 17 100 100 100 100 100 100 100 100
4 3 1 2 2 1 0 0 0 0 2 0 2 5 5 5 5 5 6 16 7 15 21 5 5 18 9 65 58 49 50 79 42 12 3 48 100 100 100 100 100 100 92
91 17 1 4 3 0 0 0 0 0 0 0 2 5 6 5 5 5 3 21 13 5 5 5 5 6 5 20 29 100 80 55 27 70 85 43 7 99 100 100 100 100 100
53 82 58 20 5 5 5 5 5 5 5 4 0 3 2 0 5 5 5 5 5 5 5 5 1 0 3 5 1 3 5 30 81 67 25 12 70 11 24 99 100 100 100
0 0 0 0 5 5 5 5 3 1 0 0 0 0 0 0 0 0 2 4 5 5 5 3 5 4 5 4 0 2 4 0 2 5 5 8 25 6 17 5 39 100 100
0 0 3 5 5 5 8 5 5 5 2 5 4 5 5 5 5 5 4 4 4 0 0 0 0 0 0 0 1 1 0 0 0 0 0 3 5 32 48 5 4 5 76
0 0 0 5 5 5 5 5 5 5 5 5 5 0 1 1 0 0 0 0 0 1 3 1 0 0 0 0 0 0 0 0 0 0 0 0 0 2 6 22 5 4 5
0 2 5 5 5 5 1 0 0 1 1 3 9 88 26 39 32 23 12 77 73 31 8 5 5 4 0 0 0 0 0 0 0 0 0 0 0 5 4 3 5 3 0
5 5 5 5 5 5 8 31 77 90 68 25 96 100 95 81 60 8 18 3 1 5 5 5 5 5 5 5 5 5 1 0 5 12 3 0 0 31 89 78 37 48 6
1 5 5 36 51 80 41 36 16 6 5 5 6 4 2 0 0 0 0 0 4 5 5 41 60 90 13 5 35 68 98 67 5 23 100 92 31 11 36 99 100 77 67
5 5 45 19 5 5 5 5 5 5 5 5 0 0 0 0 0 0 0 0 0 0 3 46 100 100 100 97 97 91 98 100 100 100 100 100 100 100 99 39 5 82 100
5 5 4 5 5 5 5 6 19 5 2 0 0 0 0 0 0 0 0 0 0 0 0 1 50 88 98 80 99 100 94 87 32 70 63 74 100 100 100 100 85 38 64

GFSSE_prec_cloud_009.txt.gz
Cloud_Cover
100 100 80 33 5 87 100 95 100 100 100 100 100 100 100 97 100 100 85 85 96 80 72 100 72 41 0 0 50 99 100 96 100 100 72 89 50 42 46 72 22 19 58
94 81 100 100 100 100 100 100 100 100 100 93 70 90 31 63 7 76 58 40 13 100 75 97 100 99 32 13 5 6 69 94 12 84 98 81 86 100 100 18 20 70 17
100 100 100 100 100 100 100 100 100 100 56 98 11 4 6 99 75 7 99 96 99 98 100 28 4 5 12 96 35 64 8 86 91 98 100 95 27 100 100 100 100 100 56
100 100 100 100 100 100 100 86 5 38 78 19 8 5 3 48 100 100 76 5 42 68 83 5 55 5 5 25 20 12 100 88 100 99 91 90 79 100 100 100 100 100 100
100 100 100 100 100 99 100 44 2 1 0 0 2 19 7 3 53 42 2 19 4 3 2 19 3 8 39 18 5 5 98 56 100 91 100 70 100 100 100 100 100 100 100
100 100 100 80 100 100 0 0 0 0 0 0 0 0 3 0 0 0 0 0 0 0 2 0 0 0 0 0 0 0 2 77 100 73 98 100 96 100 100 100 84 100 100
100 100 100 100 100 1 0 0 0 0 0 0 0 0 0 0 0 0 0 0 0 6 8 7 0 0 0 0 0 0 0 0 3 100 100 100 85 100 100 100 100 91 100
100 100 100 77 0 0 0 0 0 0 0 0 0 0 0 0 0 0 0 0 0 0 0 0 0 6 15 32 14 0 0 0 11 100 100 90 100 100 100 100 100 100 100
62 59 53 0 0 0 0 0 0 0 0 0 0 0 0 0 0 0 0 0 0 0 0 0 0 0 0 0 0 0 0 0 12 100 100 100 100 89 100 100 100 100 100
2 0 0 0 0 0 0 0 0 0 0 0 0 0 0 0 0 0 0 0 0 0 0 0 0 0 0 0 0 0 0 0 0 72 100 100 98 98 100 100 100 100 100
0 0 0 0 0 0 0 0 0 0 0 0 0 0 0 0 0 0 0 0 0 3 0 0 0 0 0 0 0 0 0 0 0 3 95 100 100 94 100 100 100 100 100
0 0 0 0 0 0 0 0 0 2 4 4 5 5 3 1 0 0 0 0 0 0 0 0 0 0 0 0 0 1 0 0 0 0 5 100 100 88 100 100 100 100 100
0 0 0 0 0 0 0 0 0 0 0 0 1 17 0 0 1 4 4 3 3 0 0 3 3 0 5 5 1 0 0 0 0 0 3 10 100 100 100 100 100 100 100
0 0 0 0 0 0 0 0 0 0 0 0 0 0 4 2 0 5 5 5 0 0 0 0 1 5 2 2 5 5 4 0 0 0 0 5 73 100 100 100 100 100 100
0 0 0 0 0 0 0 0 0 0 0 0 0 0 0 0 3 0 0 0 0 0 0 0 0 0 4 3 5 5 5 4 0 0 0 0 3 89 100 100 100 41 98
1 0 4 5 5 5 5 5 2 0 0 0 0 0 2 1 0 0 0 0 0 0 0 0 0 0 0 0 0 2 2 3 5 2 0 0 0 3 68 70 100 100 95
2 5 6 56 5 36 26 62 20 5 5 5 2 0 0 0 0 0 0 0 0 0 0 0 0 0 0 0 0 0 1 5 5 5 5 0 0 0 5 11 85 100 100
0 0 5 1 5 4 5 5 4 5 2 1 0 0 0 0 0 0 0 0 0 0 2 3 2 4 4 0 0 0 0 0 0 2 5 5 5 0 0 2 5 96 100
0 0 1 0 0 4 5 5 5 3 0 0 0 0 4 12 26 7 2 1 0 1 0 2 0 0 0 0 0 0 0 0 4 0 0 2 5 5 2 0 0 5 56
0 0 0 0 5 5 5 5 5 0 0 4 5 4 0 0 2 0 0 0 0 0 0 0 1 2 4 0 0 0 0 0 0 0 1 0 5 2 5 5 1 0 1
0 0 5 5 5 5 5 0 0 0 0 0 0 0 0 0 0 0 0 10 14 8 4 0 2 4 2 0 5 0 0 0 0 0 0 0 0 4 0 4 5 5 0
5 4 5 5 5 5 5 4 0 2 2 3 5 27 5 5 5 53 60 15 0 0 0 0 0 3 5 5 5 3 2 0 0 0 0 0 0 0 0 0 0 5 5
5 4 5 1 0 0 0 1 2 5 12 15 5 5 7 15 19 5 0 0 0 0 0 0 0 0 5 5 5 4 5 3 2 3 2 0 0 0 0 0 0 1 5
5 5 5 5 4 4 5 5 5 5 5 5 5 5 5 5 5 5 2 0 0 0 0 0 0 0 5 31 35 96 5 5 5 1 5 48 25 13 3 0 0 0 1
5 5 8 31 5 6 69 40 7 17 44 5 5 5 5 5 5 0 0 0 2 0 1 2 4 6 4 17 53 71 53 40 7 5 5 40 100 86 78 7 5 4 4
60 25 54 42 86 96 90 49 67 35 18 5 5 5 7 5 5 5 5 3 5 5 5 30 92 66 86 10 6 18 100 99 95 5 64 7 10 81 79 61 85 8 5

GFSSE_prec_cloud_012.txt.gz
Cloud_Cover
5 32 9 3 5 5 8 80 97 100 100 100 100 100 100 37 5 5 3 13 37 75 66 99 100 100 100 100 100 100 95 8 14 29 4 100 61 10 4 5 10 68 27
27 18 14 4 22 79 97 99 100 100 100 100 100 100 100 67 2 0 3 70 24 5 57 35 73 88 78 100 100 100 100 98 70 4 5 100 5 5 5 5 5 70 56
5 2 83 100 100 100 100 100 100 100 100 100 100 51 61 16 0 3 2 10 92 60 56 17 4 6 13 7 45 89 97 100 96 100 59 78 72 48 43 43 80 5 77
9 86 100 100 100 100 100 100 100 100 100 100 30 0 0 0 0 5 0 5 15 19 5 4 43 58 14 2 2 5 25 85 39 100 90 39 95 100 48 35 100 83 8
96 100 100 100 100 100 100 100 100 82 17 9 0 0 0 0 0 0 0 0 0 0 3 9 31 23 1 0 2 4 5 82 22 100 99 54 100 42 20 100 100 100 97
100 100 100 100 100 100 83 7 7 5 0 0 0 0 0 0 0 0 0 0 0 0 0 0 0 0 0 0 0 0 0 5 13 27 98 78 95 100 100 100 100 100 100
100 100 100 100 28 81 77 1 0 0 0 0 0 0 0 0 0 0 0 0 0 0 0 0 0 0 0 1 0 0 0 0 1 46 34 95 62 100 100 100 100 100 100
100 100 100 100 100 12 0 0 0 0 0 0 0 0 0 0 0 0 0 0 0 0 0 0 8 18 12 0 0 0 0 2 3 98 97 46 16 100 100 100 100 100 100
100 100 100 100 11 0 0 0 0 0 0 0 0 0 0 0 0 0 0 0 0 0 0 0 0 0 0 0 0 0 0 0 8 90 52 45 39 100 100 100 100 100 100
100 99 93 3 0 0 0 0 0 0 0 0 0 0 0 0 0 0 0 0 0 0 0 0 0 0 0 0 0 0 0 0 0 28 80 66 9 100 100 100 100 100 100
34 13 1 0 0 0 0 0 0 0 0 5 0 0 0 0 0 0 0 0 0 0 0 0 0 0 0 0 0 0 0 0 0 0 10 4 65 100 95 100 100 100 100
22 0 0 0 0 0 0 0 0 0 0 0 0 0 0 0 0 4 0 0 0 0 0 0 0 0 0 0 0 0 0 0 0 0 0 0 57 70 99 100 100 100 100
0 0 0 0 0 0 0 0 0 0 0 0 0 0 0 0 0 4 0 0 0 0 0 0 0 0 0 0 0 0 0 0 0 0 0 0 0 100 100 100 100 100 100
0 0 0 0 0 0 0 0 0 0 0 0 0 0 0 0 0 0 0 0 0 0 0 0 0 0 0 0 0 0 0 0 0 0 0 0 0 3 100 100 100 100 100
0 0 0 0 0 0 0 0 0 0 0 0 0 0 0 0 0 0 0 0 0 0 0 0 0 3 0 0 0 0 0 0 0 0 0 0 0 0 5 100 100 100 100
0 0 0 0 0 0 0 0 0 0 0 0 0 0 0 0 0 0 0 0 0 0 0 0 0 0 0 0 0 0 0 0 0 0 0 0 0 0 3 5 100 100 100
0 0 0 0 0 0 0 0 0 0 0 0 0 0 0 0 0 0 0 0 0 0 0 0 0 0 0 0 0 0 0 0 0 0 0 0 0 0 0 4 26 68 100
0 0 0 0 0 0 1 2 1 0 5 0 0 0 0 1 0 3 5 5 5 5 5 1 0 0 3 2 1 0 0 0 0 0 0 0 0 0 0 0 4 5 7
0 0 0 1 0 1 5 5 5 5 4 2 1 5 2 0 0 0 5 5 0 0 0 0 5 3 0 0 0 0 2 3 0 0 0 0 0 0 0 0 0 4 6
0 0 0 2 5 5 14 5 5 5 5 5 0 0 0 0 0 0 0 0 0 0 0 0 1 3 4 5 5 3 0 0 0 0 0 0 0 0 0 0 0 0 2
0 0 5 5 5 14 100 11 5 5 2 3 0 2 5 1 1 0 3 10 32 60 68 5 5 5 5 4 2 18 6 5 0 0 0 0 0 0 0 0 0 3 0
0 4 5 15 73 100 100 75 5 5 5 5 5 5 5 5 5 5 6 20 15 57 82 31 5 5 5 0 0 2 5 5 24 1 0 0 0 0 0 0 0 0 0
5 27 99 100 100 75 24 5 5 52 6 22 60 26 6 5 15 5 5 6 16 6 5 29 81 75 8 20 64 10 10 38 85 93 15 1 0 0 0 0 0 0 0
5 71 75 12 5 23 62 46 63 14 5 36 8 14 5 5 5 5 6 24 11 43 66 78 86 46 21 78 100 83 91 66 58 100 99 59 5 4 0 4 4 15 2
5 6 6 58 70 84 93 22 5 7 16 47 7 5 5 5 8 7 5 5 3 5 5 5 5 5 34 74 18 19 72 100 100 100 100 100 94 13 5 0 6 64 95
35 8 38 60 55 81 100 55 85 84 52 23 5 8 76 82 25 100 70 63 42 5 16 10 21 72 79 76 81 100 90 87 100 100 100 100 100 99 96 61 7 75 84

GFSSE_prec_cloud_015.txt.gz
Cloud_Cover
49 5 6 5 0 4 10 100 100 100 99 100 100 52 100 100 64 91 69 8 4 51 84 25 68 32 95 100 93 100 100 100 100 100 100 100 87 76 100 25 84 23 11
21 16 60 5 5 2 19 99 20 100 96 100 100 100 94 90 5 4 25 0 0 0 0 0 5 5 40 14 84 100 100 100 100 100 100 92 16 33 67 53 88 90 100
51 5 6 11 5 75 100 100 100 100 100 100 74 16 60 38 0 0 0 0 0 0 0 0 4 8 4 0 0 0 0 46 100 100 100 100 82 10 11 99 94 17 5
15 21 4 46 97 100 100 100 100 100 100 100 99 10 0 0 0 0 0 0 0 0 0 3 13 14 0 0 0 4 6 0 0 68 100 100 91 87 37 5 82 61 40
5 69 94 100 100 100 100 100 100 100 100 56 13 3 0 0 0 0 0 0 0 0 0 14 22 10 0 0 0 0 0 0 3 3 9 98 97 98 86 100 100 100 97
100 100 100 100 100 100 100 100 96 88 96 0 0 0 0 0 0 0 0 0 0 0 0 1 0 0 0 0 0 0 0 0 0 0 80 100 87 99 52 88 53 100 100
100 100 100 100 100 100 100 100 24 3 0 0 0 1 0 0 0 0 0 0 0 0 0 0 4 8 18 0 0 0 0 0 0 0 99 100 100 99 92 21 28 97 100
100 100 100 100 100 79 94 5 3 0 0 0 0 2 0 0 0 0 0 0 0 0 0 0 0 0 0 0 0 0 0 0 0 54 52 100 79 17 94 100 100 100 100
100 100 100 100 100 100 18 14 3 0 0 0 0 0 0 0 0 0 0 0 0 0 0 0 0 0 0 0 0 0 0 0 0 2 63 99 99 4 5 5 100 100 100
100 100 100 100 99 31 3 0 0 0 0 0 0 0 0 0 0 0 0 0 0 0 0 0 0 0 0 0 0 0 0 0 0 0 52 82 66 0 40 10 92 100 100
100 100 100 100 6 15 0 3 0 0 0 1 0 0 0 0 0 0 0 0 0 0 0 0 0 0 0 0 0 0 0 0 0 0 13 0 0 0 3 97 68 100 100
100 100 100 3 3 2 0 0 0 0 0 0 0 0 0 0 0 0 0 0 0 0 0 0 0 0 0 0 0 0 0 0 0 0 0 0 0 0 0 89 79 100 100
100 100 68 0 0 0 0 0 0 0 0 0 0 0 0 0 12 2 8 0 6 0 0 0 0 0 0 0 0 0 0 0 0 0 0 0 0 0 0 5 99 100 100
34 8 30 0 0 0 0 0 0 0 0 0 0 0 0 0 0 0 0 0 0 0 0 0 0 0 0 0 0 0 0 0 0 0 1 0 0 4 0 4 100 97 100
42 44 35 0 0 0 0 0 0 0 0 0 0 0 0 0 0 0 0 0 0 0 0 0 0 0 0 0 0 0 0 0 0 0 1 2 1 0 4 5 65 92 100
88 57 4 50 2 0 0 0 0 0 0 0 0 0 0 0 0 0 0 0 0 0 0 0 0 0 0 0 0 0 0 0 0 0 0 1 1 0 2 5 5 100 100
18 58 100 20 3 0 0 0 5 0 1 0 0 0 0 0 0 5 5 5 5 5 9 26 12 5 4 0 0 0 0 0 0 0 0 0 2 2 2 0 84 19 99
4 5 17 0 0 0 1 5 5 5 5 5 2 0 0 0 5 5 40 40 61 64 65 15 4 0 2 1 3 2 0 4 0 0 0 0 2 2 1 5 1 35 17
0 0 0 0 1 4 5 9 12 32 5 5 5 5 4 5 5 5 25 15 5 5 3 3 1 11 5 5 5 5 11 5 4 4 7 2 0 0 0 2 3 5 4
0 0 0 2 8 5 58 66 23 5 5 48 81 5 5 5 5 4 3 2 5 5 4 5 15 4 5 74 89 73 32 35 16 5 5 5 5 4 0 0 1 0 4
0 0 0 5 5 80 64 78 98 85 96 87 25 5 5 5 5 5 4 5 5 5 5 5 5 6 92 100 50 28 71 47 53 70 42 4 3 5 5 0 1 0 0
0 0 4 5 87 100 99 100 100 96 80 64 69 13 63 14 87 74 83 62 5 5 18 71 6 29 97 100 5 5 5 5 75 10 22 26 3 4 4 4 22 2 0
5 5 5 66 100 100 100 71 26 88 94 88 40 32 71 16 5 5 5 5 9 10 17 9 83 99 86 50 5 4 2 3 24 59 63 97 85 27 12 3 5 3 0
5 5 5 18 3 5 16 89 100 98 42 100 72 69 32 5 14 5 5 5 22 82 98 84 100 100 100 13 5 5 26 23 5 4 24 75 100 96 93 94 5 4 1
4 5 5 5 5 26 98 100 100 100 100 92 53 5 18 93 72 7 5 6 48 88 100 100 99 99 59 5 6 7 5 5 27 72 20 98 100 100 100 100 95 46 72
5 5 5 9 61 83 65 47 23 69 59 37 33 16 18 32 13 47 98 100 100 100 100 100 100 74 89 86 90 99 100 98 100 100 100 100 100 100 100 100 100 100 100

GFSSE_prec_cloud_018.txt.gz
Cloud_Cover
1 2 24 5 3 4 5 5 4 0 0 0 0 3 18 6 100 90 72 94 30 0 0 0 0 65 21 16 100 100 100 100 100 94 73 3 5 62 100 100 100 100 100
5 5 5 5 5 5 5 5 2 5 5 5 5 91 100 100 100 7 0 0 0 0 0 0 0 0 0 0 3 4 3 4 100 100 100 82 100 99 87 100 100 100 46
9 5 6 5 5 5 6 5 4 2 84 81 100 100 100 100 71 0 0 0 0 0 0 0 0 0 0 0 0 0 0 0 0 100 100 100 100 25 8 89 5 42 100
85 68 18 15 70 100 95 9 43 78 100 100 100 100 100 17 0 0 0 0 0 0 0 0 5 3 0 0 0 0 0 0 0 0 8 68 100 100 59 100 38 20 70
97 39 81 100 100 100 100 54 92 100 100 100 100 100 50 1 0 0 0 0 0 2 2 0 0 0 0 0 0 0 0 0 0 0 0 0 99 100 100 100 100 8 23
69 85 100 74 100 100 100 100 100 100 100 100 56 11 5 0 0 0 0 0 0 0 0 0 0 0 0 0 0 0 0 0 0 0 0 0 5 100 100 100 100 98 60
90 99 100 100 100 100 100 100 100 100 100 100 90 2 0 0 0 0 0 0 0 0 0 0 0 0 0 0 0 0 0 0 0 0 2 0 22 55 100 100 100 97 96
100 100 100 100 100 100 100 100 100 100 100 100 6 4 0 0 0 0 0 0 0 0 0 0 0 0 0 0 0 0 0 0 0 0 53 48 0 0 49 100 100 52 95
100 100 100 100 100 100 100 100 100 100 100 30 0 0 0 0 0 0 0 0 0 0 0 0 0 0 0 0 0 0 0 0 0 0 46 14 0 0 16 100 28 100 98
100 100 100 100 100 100 100 100 100 34 6 0 0 0 0 0 0 0 0 0 0 0 0 0 0 0 0 0 0 0 0 0 0 0 0 27 23 0 6 96 100 100 93
100 100 100 100 100 100 100 100 83 15 0 0 0 0 32 50 50 95 0 0 0 0 0 0 0 0 0 0 0 0 0 0 0 0 0 0 0 0 0 1 2 93 100
100 100 100 100 100 100 100 25 5 0 0 0 0 0 80 4 30 0 20 0 0 0 0 0 0 0 0 0 0 0 0 0 0 0 0 0 0 0 0 0 0 83 100
100 100 100 100 100 95 5 36 57 0 0 0 1 0 0 0 18 0 0 0 0 0 0 0 0 0 0 0 0 0 0 0 0 0 0 0 0 0 0 0 0 4 63
100 100 100 100 59 67 4 0 0 0 0 0 0 0 0 0 0 0 0 0 0 0 0 0 0 0 0 0 0 0 0 0 0 0 0 0 0 0 0 5 0 0 100
100 100 94 81 3 0 0 0 0 0 0 0 0 0 0 0 0 0 0 0 0 0 0 0 0 0 0 0 0 0 0 0 0 0 0 0 0 0 0 0 5 5 9
80 16 40 72 100 52 0 0 0 0 0 0 0 0 0 0 0 0 0 0 0 0 0 0 0 0 0 0 0 0 0 0 0 0 0 1 2 0 0 0 0 5 5
99 31 4 59 100 10 0 0 0 0 5 0 3 5 5 0 0 0 0 0 0 0 0 0 0 0 0 0 0 0 0 0 0 0 0 0 0 0 0 0 0 2 5
5 78 74 96 29 0 0 0 0 0 4 5 5 5 2 0 5 2 4 0 0 2 5 5 4 0 0 0 0 0 0 0 3 3 1 4 0 0 0 0 0 1 1
4 2 0 1 0 7 0 1 3 3 6 16 70 5 5 5 5 5 3 2 0 1 1 0 0 0 5 4 5 5 5 5 3 2 4 1 1 2 5 8 2 0 2
0 0 0 0 3 12 1 4 5 5 5 68 46 5 5 5 5 5 4 5 5 5 4 5 5 5 5 5 5 5 6 5 5 5 5 4 5 3 0 5 4 4 1
0 0 0 3 5 5 5 74 49 49 84 80 92 82 5 43 53 5 5 5 5 4 1 5 5 1 4 2 2 5 5 5 5 46 97 100 30 5 4 0 0 4 0
0 0 5 66 98 70 59 60 68 5 94 99 97 68 12 62 60 71 5 0 0 0 1 0 1 0 0 4 8 11 24 43 86 81 100 100 90 38 5 3 5 3 5
2 32 99 43 5 74 43 4 5 5 78 96 26 90 80 23 7 3 2 3 4 5 5 5 5 5 5 87 100 100 100 100 100 100 100 100 100 95 100 100 98 58 10
8 6 5 5 3 1 5 5 36 54 22 5 6 5 5 5 78 91 96 75 74 12 5 5 36 93 87 58 100 100 55 30 13 12 46 99 70 5 6 93 100 100 100
2 5 5 5 4 5 5 5 5 5 5 11 30 76 62 60 69 100 94 38 74 28 58 97 100 100 100 92 22 5 6 5 18 26 6 2 26 20 16 13 94 85 55
4 4 5 4 5 5 47 17 89 75 100 100 100 100 100 100 100 100 100 100 90 97 100 100 100 73 100 100 100 77 97 100 99 100 99 100 83 5 24 42 5 100 96

GFSSE_prec_cloud_021.txt.gz
Cloud_Cover
5 5 5 5 5 14 5 5 5 5 2 2 15 1 0 0 2 5 72 54 5 69 1 0 0 0 0 0 0 0 0 23 54 100 100 56 99 100 100 100 100 100 100
36 7 82 5 23 5 5 5 4 2 1 0 0 5 2 6 100 32 100 99 5 2 0 0 10 1 0 0 0 0 0 0 0 16 99 100 100 100 100 100 100 100 100
46 87 17 18 32 9 5 5 5 3 1 11 10 7 5 68 100 97 55 93 0 0 0 0 1 0 0 0 0 0 0 0 0 0 0 84 100 10 23 100 100 82 100
94 97 100 96 12 38 5 14 32 5 4 4 34 77 100 100 100 100 95 2 0 0 0 0 0 0 0 0 0 0 0 0 0 0 0 0 89 62 46 100 100 19 5
24 78 91 89 51 64 30 58 44 14 22 37 100 100 100 100 100 100 10 2 0 0 0 0 0 0 0 0 0 0 0 0 0 0 0 0 0 78 100 100 100 100 100
100 100 100 97 57 32 98 100 100 100 100 100 100 100 100 100 99 0 0 0 0 0 0 0 0 0 0 0 0 0 0 0 0 0 0 0 0 0 91 100 100 100 100
100 98 62 80 100 100 100 100 100 100 100 100 100 100 100 100 20 4 0 0 0 0 0 0 0 0 0 0 0 0 0 0 0 0 0 0 2 0 1 2 100 100 100
100 100 100 100 100 100 100 100 100 100 100 100 100 100 94 5 4 0 0 0 0 0 0 0 0 0 0 0 0 0 0 0 0 0 0 0 5 0 4 87 100 100 100
100 100 100 100 100 100 100 100 100 100 100 100 100 99 5 0 0 0 0 0 0 0 0 0 0 0 0 0 0 0 0 0 0 0 0 0 0 0 1 87 100 100 100
100 100 100 100 100 100 100 100 100 100 100 100 66 8 0 0 0 0 0 0 0 0 0 0 0 0 0 0 0 0 0 0 0 0 0 0 0 0 0 87 100 100 100
100 100 100 100 100 100 100 100 100 100 100 100 97 0 0 0 0 0 0 0 0 0 0 0 0 0 0 0 0 0 0 0 0 0 0 0 0 0 0 65 98 99 100
100 100 100 100 100 100 100 100 100 100 99 16 0 0 0 0 0 0 0 0 0 0 0 0 0 0 0 0 0 0 0 0 0 0 0 0 0 0 0 0 0 0 4
100 100 100 100 100 100 100 100 99 43 62 0 0 0 0 0 0 0 0 0 0 0 0 0 0 0 0 0 0 0 0 0 0 0 0 0 0 0 0 3 4 0 0
100 100 100 100 100 100 100 100 82 26 4 0 0 0 0 0 0 0 0 0 0 0 0 0 0 0 0 0 0 0 0 0 0 0 0 0 0 0 0 0 2 5 2
100 100 100 100 100 100 100 100 100 100 96 32 5 0 0 0 0 0 0 0 0 0 0 0 0 0 0 0 0 0 0 0 0 0 0 0 0 0 0 0 0 4 5
100 100 100 100 100 100 100 100 100 100 100 28 0 0 0 0 2 0 0 0 0 0 0 0 0 0 0 0 0 0 0 0 0 0 0 0 0 0 0 0 0 0 3
100 76 100 100 100 100 100 100 100 100 22 0 0 0 0 4 5 0 5 5 5 0 0 0 0 0 0 0 0 0 0 0 0 0 0 0 0 0 0 0 0 0 0
88 46 100 92 57 54 68 71 6 5 5 0 4 5 8 1 0 5 4 2 1 0 1 0 0 0 0 0 0 2 5 2 0 1 5 5 5 2 0 0 0 0 0
2 2 0 0 72 57 57 0 19 5 3 5 7 15 100 30 5 5 5 15 13 5 5 5 0 0 0 4 5 5 5 5 5 5 5 5 5 5 5 5 0 0 0
2 0 0 0 0 0 1 7 6 5 40 100 13 5 5 21 5 5 22 79 21 14 4 0 0 0 0 0 0 2 5 5 5 5 5 5 28 25 5 5 11 0 2
5 0 0 0 3 5 5 41 7 5 47 6 48 5 33 22 50 5 4 0 0 0 0 0 5 0 5 4 0 0 5 5 5 5 5 5 5 5 96 100 94 54 16
12 0 2 36 68 7 14 13 5 5 5 5 83 81 50 9 41 5 0 0 0 0 0 4 5 5 5 5 2 0 3 5 5 5 5 5 5 9 16 53 86 98 100
2 16 83 46 95 68 5 5 4 2 5 5 63 98 98 88 41 3 4 4 4 5 5 1 0 0 5 7 34 9 55 58 45 99 98 70 62 67 91 100 90 80 65
5 8 0 3 5 5 5 2 1 1 5 5 7 31 90 37 6 5 5 0 0 0 4 2 4 3 43 69 93 99 98 100 100 27 52 100 100 100 100 100 100 99 97
0 0 5 5 5 0 5 5 46 99 95 100 100 67 43 45 88 64 41 96 96 100 100 100 99 100 100 100 100 100 100 67 50 51 15 9 4 5 5 6 3 22 95
0 0 1 0 0 0 2 0 5 68 89 100 100 100 100 100 100 89 97 44 14 5 5 5 5 18 7 98 100 99 95 97 94 100 99 18 47 6 4 22 95 95 97

GFSSE_prec_cloud_024.txt.gz
Cloud_Cover
39 7 5 7 5 5 5 5 5 5 2 4 2 0 0 0 0 0 0 2 3 5 5 4 4 0 0 0 0 0 0 0 54 100 100 100 88 70 100 100 100 100 100
36 7 5 39 38 5 5 5 5 5 5 3 2 3 0 0 1 4 20 5 5 2 9 0 2 1 1 0 0 0 0 0 0 0 0 56 100 93 25 100 100 100 100
42 5 33 27 5 5 5 5 5 5 10 4 3 0 2 4 17 4 5 6 92 52 2 0 0 0 0 0 0 0 0 0 0 0 0 0 26 100 5 100 100 100 100
11 6 61 11 22 5 61 22 10 5 6 5 6 5 32 6 5 73 100 61 13 1 0 0 0 0 0 0 0 0 0 0 0 0 0 0 0 16 8 100 100 100 100
42 55 91 43 8 6 50 5 5 5 15 12 96 75 5 36 92 100 12 99 100 1 0 0 0 0 0 0 0 0 0 0 0 0 0 0 0 0 20 100 100 100 100
80 100 97 46 84 8 5 5 45 45 99 100 100 100 92 100 100 100 100 22 4 2 0 0 0 0 0 0 0 0 0 0 0 0 0 0 0 0 0 59 100 100 100
99 88 100 21 40 13 67 100 100 100 100 59 100 100 100 100 100 100 92 8 4 0 0 0 0 0 0 0 0 0 0 0 0 0 0 0 0 0 0 0 5 96 100
100 97 18 66 63 90 100 100 90 100 100 100 100 100 93 100 100 100 97 3 1 0 0 0 0 0 0 0 0 0 0 0 0 0 0 0 0 0 0 0 0 12 9
100 100 67 100 100 100 100 100 100 100 100 100 100 100 100 100 100 100 5 2 0 0 0 0 0 0 0 0 0 0 0 0 0 0 0 0 0 0 0 0 4 30 100
100 100 100 100 100 100 100 100 100 100 100 100 100 100 100 100 100 79 1 0 0 0 0 0 0 0 0 0 0 0 0 0 0 0 0 0 0 0 0 0 0 53 100
100 100 100 100 100 100 100 100 100 100 100 100 100 100 100 100 62 5 2 0 0 0 0 0 0 0 0 0 0 0 0 0 0 0 0 0 0 0 0 0 3 3 100
100 100 100 100 100 100 100 100 100 100 100 100 95 82 99 25 5 0 4 0 0 0 0 0 0 0 0 0 0 0 0 0 0 0 0 0 0 0 0 0 0 5 80
100 100 100 100 100 100 100 100 100 100 100 100 100 100 95 82 5 6 5 0 0 0 0 0 0 0 0 0 0 0 0 0 0 0 0 0 0 0 0 0 0 2 32
100 100 100 100 100 100 100 100 100 100 100 100 100 100 100 100 81 63 3 0 0 0 0 0 0 0 0 0 0 0 0 0 0 0 0 0 0 0 0 0 0 0 1
100 100 100 100 100 100 100 100 100 100 100 100 100 100 100 100 60 5 0 0 0 0 0 0 0 0 0 0 0 0 0 0 0 0 0 0 0 0 0 0 0 0 0
100 100 100 100 100 100 100 100 82 100 100 100 100 100 96 91 2 0 0 0 0 0 0 0 0 0 0 0 0 0 1 0 0 0 0 0 0 0 0 0 0 0 0
100 100 100 100 100 94 71 99 100 100 100 100 100 8 25 0 0 0 0 0 5 0 0 0 0 0 0 0 0 0 0 5 4 0 0 0 0 0 0 0 0 0 0
100 99 100 95 32 2 4 0 8 58 32 98 47 2 3 5 1 0 0 0 5 5 5 5 5 0 0 0 3 5 5 5 5 5 5 5 5 5 5 3 1 0 0
24 42 17 11 10 4 0 5 3 2 9 5 5 5 15 86 70 34 5 27 35 6 5 3 0 0 0 3 3 4 5 5 5 21 50 92 81 25 8 15 11 2 0
5 5 5 5 24 7 5 2 0 5 5 5 5 5 5 51 41 63 29 89 19 5 0 0 0 0 1 5 5 5 5 5 45 43 57 57 74 100 100 94 88 65 13
52 5 5 99 68 74 90 5 5 12 8 32 9 5 5 57 93 81 79 43 5 4 0 4 1 0 0 3 5 5 6 78 94 100 100 93 53 7 50 100 100 93 99
31 11 1 2 44 70 30 100 100 100 84 12 5 5 86 99 100 67 5 20 5 1 3 2 0 0 3 4 2 2 8 32 27 8 10 13 40 83 62 5 75 100 80
93 17 2 5 5 92 71 44 70 73 22 94 71 47 79 53 10 4 2 5 2 0 1 0 0 0 11 22 47 37 18 9 15 85 94 28 11 18 5 5 5 5 36
0 0 5 67 20 5 5 5 5 14 73 85 98 11 11 5 5 3 0 2 4 4 5 2 28 12 21 12 6 19 76 96 81 13 20 84 12 5 4 3 0 6 16
0 0 0 0 0 0 0 5 75 100 100 100 98 100 100 100 100 100 96 93 52 7 5 1 2 0 19 8 27 67 12 9 30 63 63 17 13 3 0 0 0 14 33
5 5 0 0 0 0 2 36 95 88 75 91 86 61 40 13 12 5 4 0 0 2 5 5 5 33 11 5 5 18 67 99 100 100 93 100 100 19 2 0 1 4 11

GFSSE_prec_cloud_027.txt.gz
Cloud_Cover
57 85 18 5 4 2 22 13 6 1 3 2 1 1 1 0 2 0 0 0 0 0 2 0 0 0 0 0 0 0 0 0 0 0 0 78 99 98 95 84 100 100 100
46 47 5 5 4 0 6 10 1 4 4 5 0 0 0 0 0 0 0 0 0 0 1 0 0 0 0 0 0 0 0 0 0 0 0 0 6 100 100 82 100 100 100
51 8 12 8 5 6 5 5 5 7 11 16 0 0 0 0 1 0 0 0 4 5 1 3 5 5 0 0 0 0 0 0 0 0 0 0 0 0 62 89 3 100 100
63 53 50 9 5 5 8 6 5 30 21 7 2 0 1 5 0 0 1 5 5 4 5 5 6 4 0 0 0 0 0 0 0 0 0 0 0 0 0 0 88 100 100
76 85 29 5 23 24 53 46 5 5 5 6 3 5 5 5 5 5 5 5 4 5 5 5 5 3 0 0 0 0 0 0 0 0 0 0 0 0 0 0 2 72 5
100 76 19 100 100 95 100 37 17 31 6 5 51 17 5 5 5 5 32 10 51 56 10 100 3 0 0 0 0 0 0 0 0 0 0 0 0 0 0 0 0 27 12
100 76 100 99 62 63 98 98 90 37 5 56 100 99 11 5 5 11 6 5 12 9 69 8 4 0 0 0 0 0 0 0 0 0 0 0 0 0 0 0 0 0 2
100 100 100 99 87 100 100 100 69 100 84 99 95 46 5 15 30 27 5 5 65 71 40 5 0 0 0 0 0 0 0 0 0 0 0 0 0 0 0 0 0 0 0
97 100 100 91 100 85 100 100 96 99 98 23 98 72 96 100 96 91 6 13 95 69 48 0 0 0 0 0 0 0 0 0 0 0 0 0 0 0 0 0 0 0 0
100 100 100 100 100 100 95 100 100 100 100 100 100 100 100 100 36 53 100 19 100 49 5 3 1 0 0 0 0 0 0 0 0 0 0 0 0 0 0 0 0 0 0
100 100 100 100 100 100 100 99 100 100 100 100 100 100 100 100 100 100 99 92 20 4 3 5 0 0 0 0 0 0 0 0 0 0 0 0 0 0 0 0 0 0 0
100 100 100 100 100 100 100 100 100 100 100 100 100 100 84 94 63 24 67 100 23 5 5 1 0 0 0 0 0 0 0 0 0 0 0 0 0 0 0 0 0 0 0
100 100 100 100 100 100 100 100 100 100 100 100 100 100 100 100 56 10 8 5 4 5 4 0 0 0 0 0 0 0 0 0 0 0 0 0 0 0 0 0 0 0 0
100 100 100 100 100 100 100 100 100 100 100 100 100 100 100 97 29 7 5 5 11 37 0 0 0 0 0 0 0 0 0 0 0 0 0 0 0 0 0 0 0 0 0
100 100 100 100 100 100 100 100 100 100 100 100 100 100 100 100 100 99 97 7 26 1 0 0 0 0 0 0 0 0 0 0 0 0 0 0 0 0 0 0 0 0 0
100 100 100 100 100 100 100 100 100 100 100 100 100 100 100 100 100 100 93 8 0 0 0 0 2 0 0 0 0 0 0 0 0 0 0 0 5 3 2 0 4 0 0
100 100 100 100 100 100 100 81 5 13 11 10 11 1 5 28 23 87 24 5 3 2 0 5 5 0 0 0 0 0 0 0 0 0 0 0 1 5 5 5 5 1 0
96 100 100 86 64 95 98 7 5 4 1 1 4 5 5 4 5 31 5 1 0 5 0 3 5 0 0 0 0 0 0 1 3 1 0 0 0 0 2 2 2 1 1
59 100 100 100 100 100 100 100 21 5 5 5 5 5 5 5 5 5 5 5 8 17 6 5 4 0 0 0 3 4 1 0 0 0 5 4 4 3 5 5 5 1 0
46 49 78 100 100 100 100 100 87 35 6 5 5 5 5 5 5 60 96 100 80 38 15 0 0 0 0 3 3 5 5 5 5 5 5 5 5 5 5 36 59 56 9
5 9 61 98 27 52 92 98 69 5 5 5 5 60 72 98 98 98 79 57 56 27 4 0 0 0 0 0 0 0 1 5 5 23 6 5 5 5 5 5 25 100 99
67 100 9 98 100 98 74 6 5 5 11 58 22 13 76 49 9 4 4 5 5 2 0 0 0 0 0 5 10 7 5 7 6 5 5 5 15 8 5 5 5 9 86
92 9 17 14 4 1 2 5 49 34 40 12 5 5 5 5 5 0 0 0 0 0 0 0 1 0 11 0 0 12 22 5 11 10 2 2 1 4 4 5 5 27 78
48 5 5 5 5 4 5 85 99 18 9 5 5 5 5 5 5 3 0 0 0 0 0 0 0 0 4 6 5 5 5 9 66 59 6 0 0 0 2 0 0 1 9
66 12 8 5 3 5 12 89 100 100 100 100 88 91 100 100 98 32 14 9 5 0 0 0 0 5 5 4 5 6 19 75 52 93 100 100 99 5 5 0 0 7 4
100 93 27 21 8 20 91 100 100 100 100 100 100 100 100 100 97 47 4 0 0 0 0 0 0 0 0 0 3 10 60 98 100 100 100 71 92 5 5 1 1 0 0

GFSSE_prec_cloud_030.txt.gz
Cloud_Cover
100 100 100 73 78 23 15 4 5 4 0 0 1 0 0 3 0 0 0 0 0 0 0 0 0 0 0 0 0 0 0 0 0 0 0 0 0 0 0 97 100 75 71
100 100 100 100 40 36 10 5 5 0 0 0 0 0 0 0 3 0 0 0 0 0 0 0 0 0 0 0 0 0 0 0 0 0 0 0 0 0 0 0 100 12 20
99 97 100 87 11 9 12 4 1 15 2 0 0 0 0 1 0 0 0 0 0 0 0 0 0 0 0 0 0 0 0 0 0 0 0 0 0 0 0 0 0 92 2
99 100 100 100 36 5 64 3 0 2 4 0 2 3 5 4 4 5 4 0 0 2 0 0 0 0 0 0 0 0 0 0 0 0 0 0 0 0 0 0 0 0 25
100 96 66 48 5 5 5 5 5 22 5 3 5 4 5 5 8 5 3 2 4 2 4 3 5 0 1 0 0 0 0 0 0 0 0 0 0 0 0 0 0 0 0
100 100 100 69 25 5 5 6 96 15 5 5 3 1 5 95 16 5 5 5 5 4 5 5 7 2 0 0 0 0 0 0 0 0 0 0 0 0 0 0 0 0 0
100 95 91 86 77 74 80 96 77 65 19 5 10 15 32 37 5 20 35 5 21 5 43 5 5 4 0 0 0 0 0 0 0 0 0 0 0 0 0 0 0 0 0
100 93 41 67 100 50 100 100 98 82 53 27 62 34 30 30 97 33 38 12 56 69 51 19 5 5 0 0 0 0 0 0 0 0 0 0 0 0 0 0 0 0 0
100 87 99 100 100 99 100 100 99 100 100 99 72 100 100 98 94 99 99 7 94 27 92 80 2 3 0 0 0 0 0 0 0 0 0 0 0 0 0 0 0 0 0
100 100 100 99 83 100 100 100 100 100 100 100 100 100 100 100 100 100 88 92 98 94 96 9 5 5 0 0 0 0 0 0 0 0 0 0 0 0 0 0 0 0 0
100 100 100 100 100 98 100 81 100 100 100 94 100 100 100 100 100 100 83 35 72 18 86 8 4 0 0 0 0 0 0 0 0 0 0 0 0 0 0 0 0 0 0
100 100 100 100 99 100 100 100 100 100 100 100 100 100 100 89 100 73 78 34 6 5 5 8 2 4 2 0 0 0 0 0 0 0 0 0 0 0 0 0 0 0 0
99 100 100 51 100 100 100 100 100 100 100 100 100 100 100 100 98 99 100 100 8 0 5 2 5 5 0 0 0 0 0 0 0 0 0 0 0 0 0 0 0 0 0
100 100 97 100 100 100 100 100 100 100 100 100 100 100 100 100 99 94 30 5 5 11 23 5 4 0 0 0 0 0 0 0 0 0 0 0 0 0 0 0 0 0 0
91 100 100 100 100 100 100 100 100 100 100 100 100 100 100 100 68 6 3 2 0 1 11 46 5 2 0 3 0 0 0 0 0 0 0 0 0 0 0 0 0 0 0
100 100 100 100 100 100 100 100 100 100 100 100 99 84 36 1 5 5 1 0 1 5 4 2 0 3 0 0 0 0 0 0 0 0 0 0 0 0 0 0 0 0 0
100 100 100 100 100 100 100 100 100 100 29 10 5 27 6 5 4 0 5 3 5 5 0 2 5 5 0 2 3 0 0 0 0 0 0 0 0 0 0 0 0 0 0
57 26 100 100 100 100 100 100 100 100 100 78 100 99 95 21 0 0 3 5 5 5 5 5 5 5 5 4 0 0 2 1 0 0 0 0 5 4 0 0 0 0 0
49 100 100 100 100 100 100 100 100 100 100 100 96 100 100 14 8 32 76 35 5 5 5 5 5 5 2 0 0 0 1 0 1 2 5 5 5 5 3 0 0 4 2
100 81 78 88 100 100 100 100 100 100 100 100 58 71 56 40 100 100 29 6 5 5 5 5 4 5 1 0 0 1 5 5 5 5 9 35 56 58 30 5 6 6 5
49 86 99 100 100 100 100 100 100 93 86 5 5 5 7 75 30 5 4 0 0 0 0 0 0 0 0 0 0 2 1 5 5 49 29 5 5 5 5 5 5 5 23
65 91 100 75 59 95 87 18 4 5 5 5 4 2 1 0 0 0 0 0 0 0 0 0 0 0 0 6 19 9 54 82 44 6 6 5 5 5 4 2 4 5 5
76 48 69 97 100 35 5 5 5 0 0 1 2 2 0 0 0 1 0 0 0 0 0 0 0 0 0 0 0 7 9 9 71 5 0 1 1 0 0 0 0 0 0
33 100 100 71 5 28 4 1 4 5 5 5 5 5 2 3 5 3 4 4 0 0 0 0 0 0 0 0 0 0 2 64 100 58 62 51 4 0 0 3 4 0 3
100 90 56 57 65 55 98 18 7 5 5 5 0 5 5 6 5 10 7 5 2 5 5 0 1 0 0 0 2 8 21 5 5 6 17 66 82 11 4 5 5 5 5
100 100 100 100 96 69 88 68 95 83 5 5 38 78 76 83 97 25 5 5 5 3 1 4 2 4 2 0 1 9 52 100 100 100 100 71 32 5 5 5 75 7 5

GFSSE_prec_cloud_033.txt.gz
Cloud_Cover
100 100 100 100 100 100 100 97 14 5 20 3 2 0 0 0 0 0 0 0 0 0 0 0 0 0 0 0 0 0 0 0 0 0 0 0 0 0 0 0 0 0 0
100 100 100 100 100 98 100 54 8 5 3 5 0 0 0 0 0 1 0 0 0 0 0 0 0 0 0 0 0 0 0 0 0 0 0 0 0 0 0 0 0 0 0
100 100 100 100 100 100 97 100 28 7 4 2 0 5 0 0 0 0 0 0 0 0 0 0 5 0 5 0 0 0 0 0 0 0 0 0 0 0 0 0 0 0 0
100 100 100 100 100 75 15 54 86 14 4 20 70 2 4 2 5 5 0 0 0 0 7 17 1 15 3 1 4 5 0 0 0 0 0 0 0 0 0 0 0 0 0
100 100 100 100 78 39 19 24 50 5 5 11 5 3 2 50 93 5 5 17 4 4 5 4 5 25 4 5 5 3 0 0 0 0 0 0 0 0 0 0 0 0 0
100 99 100 99 82 5 51 38 79 10 5 4 5 26 71 62 100 45 76 70 7 5 7 5 5 3 5 5 5 5 0 0 0 0 0 0 0 0 0 0 0 0 0
100 100 100 99 100 93 100 87 5 12 76 5 77 96 52 96 73 94 88 39 5 5 5 5 5 5 5 8 5 0 0 0 0 0 0 0 0 0 0 0 0 0 0
100 100 100 100 100 97 100 93 52 41 7 100 68 62 57 99 100 91 53 100 94 9 5 5 8 15 5 1 3 0 0 0 0 0 0 0 0 0 0 0 0 0 0
100 100 89 100 100 100 99 83 95 93 98 98 99 85 100 97 41 13 99 12 16 6 5 8 5 8 5 4 4 0 0 0 0 0 0 0 0 0 0 0 0 0 0
100 100 100 98 100 100 98 99 100 100 100 100 100 100 100 85 96 84 100 30 16 9 5 5 5 5 5 0 5 0 0 0 0 0 0 0 0 0 0 0 0 0 0
100 100 100 99 100 100 100 100 100 100 100 100 100 100 99 100 100 100 88 83 13 86 6 33 5 5 4 0 5 4 0 0 0 0 0 0 0 0 0 0 0 0 0
100 100 100 100 100 100 100 100 100 100 100 100 100 100 100 100 100 100 100 100 83 41 5 5 3 0 0 0 3 4 0 0 0 0 0 0 0 0 0 0 0 0 0
100 100 100 100 100 100 100 98 100 100 100 100 100 100 100 100 100 100 100 100 100 16 5 4 0 0 0 0 0 0 0 0 0 0 0 0 0 0 0 0 0 0 0
100 100 100 100 100 100 100 100 100 100 100 100 100 100 99 100 96 100 100 100 64 6 0 0 0 0 0 0 0 0 0 0 0 0 0 0 0 0 0 0 0 0 0
100 100 99 94 100 100 100 100 100 100 100 100 100 100 100 100 100 100 97 67 49 5 4 5 0 0 0 0 0 0 0 0 0 0 0 0 0 0 0 0 0 0 0
100 100 100 100 100 100 100 100 100 100 100 100 100 100 100 97 93 10 9 5 9 5 0 3 2 0 0 1 0 0 0 0 0 0 0 0 0 0 0 0 0 0 0
82 83 91 100 100 100 100 100 100 100 100 99 100 100 100 67 72 97 89 55 6 5 5 5 2 5 5 5 0 0 0 5 0 0 0 0 0 3 4 0 0 0 0
47 100 98 100 100 100 100 100 100 100 100 100 100 100 74 100 97 88 70 5 5 5 5 3 5 4 3 6 4 4 0 1 5 5 4 0 0 0 0 2 5 2 0
19 49 87 100 100 100 100 100 100 100 100 100 100 100 100 100 100 52 5 5 5 5 5 4 5 5 26 76 29 5 5 5 5 3 5 5 5 4 5 5 5 5 2
81 100 100 90 100 100 100 100 100 100 100 100 100 100 100 80 37 16 3 5 5 2 0 0 0 0 0 0 3 1 0 0 4 5 5 5 9 5 5 5 9 60 19
96 27 59 100 94 100 100 100 100 100 100 100 100 80 36 9 0 0 0 0 0 0 0 0 0 1 2 0 0 0 0 0 0 1 5 6 14 24 16 5 5 5 12
49 41 100 99 80 100 97 44 61 62 36 5 0 0 0 0 0 0 0 0 0 0 0 0 0 0 0 0 0 0 0 0 5 1 5 5 5 5 5 5 5 5 5
46 28 13 9 6 5 5 5 5 5 5 66 56 6 5 0 0 1 0 3 11 37 33 5 5 2 0 0 0 1 0 0 5 3 0 4 5 5 5 5 5 5 5
55 5 5 9 5 31 69 67 5 42 56 8 11 4 2 5 5 23 79 96 66 7 5 0 0 0 0 0 0 5 3 5 40 5 42 98 90 25 5 5 5 6 5
14 12 34 74 38 23 92 63 91 96 5 2 0 3 5 8 87 84 5 2 0 0 0 0 2 5 5 13 75 5 5 5 72 99 9 36 31 46 85 5 5 11 18
50 54 80 70 97 82 11 34 15 5 4 5 4 3 5 9 1 1 0 0 0 2 4 12 73 86 89 25 70 54 5 5 5 83 94 56 5 11 73 71 6 5 5

GFSSE_prec_cloud_036.txt.gz
Cloud_Cover
100 100 100 100 100 100 92 93 100 100 100 100 30 29 39 5 1 0 0 0 2 0 0 0 0 0 0 0 0 0 0 0 0 0 0 0 0 0 0 0 0 20 0
100 100 100 100 100 100 100 100 100 100 95 100 100 17 5 3 0 0 4 0 0 0 4 4 5 0 0 0 0 0 0 0 0 2 0 0 0 0 0 0 0 2 0
100 100 100 100 100 100 100 100 100 100 100 100 100 96 5 5 5 5 2 0 0 4 2 1 0 5 0 5 0 0 0 0 0 0 0 1 30 0 0 0 0 0 0
100 100 100 100 100 100 100 100 100 100 100 81 10 5 5 5 3 0 1 2 4 1 5 5 1 0 5 24 0 0 0 5 5 0 0 1 78 0 0 0 0 0 0
100 100 100 100 100 100 100 100 100 100 80 16 5 5 5 5 5 1 2 5 4 48 96 6 15 26 6 5 4 5 4 5 0 0 0 0 26 44 0 1 0 0 0
100 100 100 100 99 100 64 31 78 5 5 5 5 2 3 5 1 88 5 5 47 21 5 5 5 32 5 4 5 6 15 4 0 0 0 0 15 0 0 0 0 0 0
100 98 100 40 91 91 100 96 6 5 5 5 5 5 68 26 5 12 8 6 5 5 50 43 100 10 5 5 5 5 5 2 0 0 0 0 0 0 0 0 0 0 0
100 100 100 100 100 94 65 23 68 57 96 97 32 63 36 56 91 69 12 76 100 100 96 91 94 7 33 40 45 26 5 5 0 0 0 0 0 0 0 0 0 0 0
100 100 100 100 100 100 100 100 100 100 100 100 100 95 100 100 100 100 100 100 92 49 100 98 68 86 28 9 88 5 5 1 0 0 0 0 0 0 0 0 0 0 0
100 100 100 100 100 98 100 100 100 100 100 100 100 100 100 100 100 100 100 100 100 100 100 100 100 100 42 52 5 5 2 0 0 0 0 0 0 0 0 0 0 0 0
100 100 100 100 100 99 97 100 100 100 100 100 100 100 100 100 100 100 100 100 34 100 90 100 100 27 18 5 0 0 0 0 0 0 0 0 0 0 0 0 0 0 0
100 100 100 100 100 100 100 100 100 100 100 100 100 100 100 100 100 98 100 98 96 100 100 100 100 90 3 1 0 0 0 0 0 0 1 0 0 0 0 0 0 0 0
100 100 100 100 100 100 100 100 100 100 100 100 100 100 100 100 100 100 97 97 89 100 100 100 100 53 5 0 0 0 0 0 0 0 0 0 0 0 0 0 0 0 0
100 100 100 100 100 100 100 100 100 100 100 100 100 100 100 100 100 100 56 19 5 21 23 5 7 5 3 0 0 0 0 0 0 0 0 0 0 0 0 0 0 1 1
100 100 100 100 100 100 100 100 100 100 100 100 100 100 100 100 91 94 99 99 13 32 5 4 4 4 0 0 0 0 0 0 0 0 0 0 0 0 0 0 0 0 0
100 100 100 100 100 100 100 100 70 89 100 100 100 100 100 100 37 95 97 95 73 86 82 5 5 5 3 0 0 0 0 0 0 0 0 0 0 0 0 0 4 0 0
100 100 100 100 100 100 100 98 100 100 100 100 100 100 100 100 100 100 100 100 100 100 100 100 25 5 5 0 0 0 5 5 5 0 0 0 0 2 2 0 5 5 5
96 97 100 100 100 100 100 100 100 100 100 100 100 100 100 100 100 100 100 100 100 100 91 5 5 5 0 0 0 4 5 5 3 5 0 0 0 0 0 0 0 0 5
100 99 100 100 100 100 100 100 100 100 100 100 100 100 100 100 100 100 100 100 100 100 100 3 0 0 0 3 5 5 4 5 3 0 0 2 1 5 3 0 0 0 0
91 92 87 81 100 100 100 100 100 100 100 100 100 100 100 100 100 100 100 100 72 7 0 0 0 0 0 0 2 1 2 0 2 3 2 1 0 1 3 5 5 1 0
47 99 68 94 100 100 100 100 100 100 100 100 100 100 100 100 100 100 100 5 0 0 0 0 0 1 4 1 0 0 1 2 5 28 59 82 87 94 94 66 7 5 2
80 82 59 50 100 100 100 100 82 100 90 100 100 100 91 56 75 42 2 0 0 0 3 5 5 5 4 3 5 0 0 0 0 93 3 5 3 4 5 5 5 42 75
94 51 29 93 29 58 48 97 100 26 84 92 94 93 76 14 1 3 0 0 5 6 36 5 5 1 3 0 14 13 5 2 4 7 78 71 5 5 5 5 5 5 24
71 61 42 5 37 99 68 12 5 5 5 5 5 5 4 5 1 0 0 5 5 5 5 2 3 5 5 5 26 90 97 79 96 78 96 94 98 16 1 5 26 7 8
5 28 5 63 26 6 72 42 38 5 5 5 5 6 19 10 4 0 0 0 2 5 5 0 3 16 42 58 78 100 100 100 100 100 100 98 90 100 98 67 77 60 93
5 5 10 8 5 14 5 5 5 11 6 5 11 98 85 32 5 5 5 3 2 5 5 12 47 24 58 82 96 93 100 100 100 100 100 92 97 79 100 100 95 100 76

GFSSE_prec_cloud_039.txt.gz
Cloud_Cover
96 31 32 7 54 97 36 69 57 100 100 100 100 98 48 78 6 68 100 100 8 4 4 4 3 0 0 0 0 0 0 0 0 0 0 0 0 0 0 0 33 47 0
100 28 59 44 98 82 50 80 100 50 100 100 100 100 100 100 100 100 89 31 5 5 4 0 0 0 0 0 0 3 0 0 0 0 0 0 32 0 0 0 0 0 0
95 61 75 89 93 55 29 82 100 100 63 100 100 100 100 100 100 100 100 96 10 5 5 1 0 0 0 0 0 0 1 5 0 0 2 100 42 0 0 0 0 0 0
88 95 100 100 100 88 38 52 100 98 89 100 100 100 100 100 100 100 97 100 22 69 9 2 1 0 0 4 4 5 12 2 0 0 36 76 95 69 0 0 0 0 0
100 100 100 100 100 97 100 98 84 73 99 92 100 77 68 87 5 100 10 11 5 4 4 5 4 5 5 11 91 100 91 4 4 5 19 1 20 0 0 0 0 0 0
100 100 100 100 94 100 100 99 21 73 48 5 5 5 5 25 7 5 5 5 4 4 5 5 24 37 91 100 96 8 60 5 5 12 0 1 0 0 0 0 0 0 0
100 100 100 100 100 100 80 100 12 52 100 86 12 5 18 42 91 100 95 5 5 8 56 95 78 96 100 90 100 12 36 5 97 7 0 0 0 0 0 0 0 0 0
100 100 100 100 100 99 100 100 100 100 100 100 100 100 100 100 47 5 5 5 24 8 82 56 86 100 100 87 28 54 25 6 14 3 0 1 0 0 0 0 0 0 0
100 100 100 100 100 100 100 100 100 100 100 100 100 100 100 77 100 93 92 92 99 100 100 98 93 100 100 100 84 5 5 45 6 5 0 0 0 0 0 0 0 0 0
100 100 100 100 100 100 100 100 100 100 100 100 100 79 100 100 100 100 100 100 100 100 100 100 100 100 93 80 68 5 5 5 5 5 0 0 0 0 0 0 0 0 0
100 100 100 100 100 100 100 100 100 100 99 100 100 100 100 100 100 100 100 100 100 100 100 100 100 100 64 100 100 100 61 5 2 0 5 1 0 0 0 0 0 0 0
100 100 100 100 100 100 100 100 100 100 100 100 100 100 100 100 100 100 100 100 100 100 99 75 73 32 5 31 44 7 2 3 0 0 0 0 0 0 0 0 0 0 0
100 100 100 100 100 100 100 100 100 100 100 100 100 100 100 100 100 100 100 100 20 79 78 5 8 5 1 0 0 0 0 0 0 0 0 0 0 0 0 0 0 2 22
100 100 100 100 100 100 100 100 100 100 100 100 100 100 100 100 100 100 100 99 28 6 6 5 9 4 4 6 53 18 4 0 0 0 0 0 0 0 0 0 0 0 0
98 100 100 100 100 100 100 100 100 100 100 100 100 100 100 100 100 100 99 12 10 5 24 24 80 100 100 100 97 65 5 0 0 0 0 0 0 0 0 0 0 0 0
100 100 100 100 100 100 100 100 100 100 100 100 100 100 100 100 100 100 100 100 90 91 100 100 100 100 100 100 90 18 5 0 0 0 0 0 0 0 0 0 0 0 4
100 100 100 100 100 100 100 100 100 100 100 100 100 100 100 100 100 100 100 100 100 100 100 100 100 100 74 100 61 5 2 0 0 0 0 0 0 0 0 4 0 0 0
100 100 100 100 100 100 100 100 100 100 100 100 100 100 100 100 100 100 100 100 100 100 100 100 100 100 100 81 5 3 0 0 0 1 0 5 3 1 0 0 3 4 0
96 79 86 100 100 100 100 99 100 100 100 100 100 100 100 100 100 100 100 100 100 100 100 100 100 73 54 5 3 0 0 0 0 2 4 5 5 5 5 3 0 0 0
100 100 100 87 86 100 100 99 100 100 100 100 100 100 100 100 100 100 100 100 100 100 100 100 100 21 2 25 0 0 0 0 0 5 6 5 6 5 13 47 6 5 56
40 45 100 100 64 71 100 100 100 100 100 100 100 100 100 99 76 100 72 94 100 100 84 98 4 0 1 0 0 0 0 4 5 5 37 66 5 21 9 8 32 82 73
81 82 82 99 100 72 15 48 100 100 47 67 62 86 100 94 74 70 85 5 1 0 0 0 4 5 5 5 5 5 5 4 2 5 80 80 7 50 68 68 68 64 43
86 92 100 59 17 31 5 5 58 97 87 49 42 91 100 65 8 5 5 5 4 0 1 5 5 5 5 5 21 12 33 52 51 23 16 36 100 88 34 46 72 80 76
100 99 8 5 20 11 8 5 12 54 77 23 14 37 48 5 5 26 5 4 2 5 5 5 7 4 5 50 74 66 23 77 99 68 80 36 4 57 100 31 5 11 78
5 5 16 34 38 5 5 5 5 23 42 50 67 25 6 11 11 5 5 5 2 5 5 5 2 98 90 100 51 70 87 99 92 81 95 100 98 91 96 100 54 40 36
5 6 14 12 30 4 4 5 13 47 76 98 57 49 64 65 25 5 5 5 5 5 5 5 5 5 5 69 35 99 99 87 98 99 83 79 60 43 100 98 60 36 76

GFSSE_prec_cloud_042.txt.gz
Cloud_Cover
100 94 99 56 22 26 60 12 15 10 14 9 6 14 5 3 53 40 42 100 100 100 100 100 100 99 38 51 16 2 0 0 0 0 0 0 0 0 0 0 0 0 0
100 73 68 77 64 20 94 19 42 21 99 65 100 100 98 48 99 94 96 96 100 100 100 100 92 93 5 5 0 0 0 0 0 4 1 33 69 41 0 0 0 0 0
100 100 80 86 99 57 100 85 68 97 86 32 42 100 100 98 82 71 6 21 5 5 9 5 5 5 3 5 0 0 0 0 3 57 36 19 73 22 0 0 0 0 0
63 66 100 99 100 100 100 86 98 92 100 90 96 100 98 75 49 8 4 4 3 4 2 3 5 5 5 5 0 0 1 5 5 98 98 7 0 0 0 0 0 0 0
84 82 100 100 100 100 100 100 72 97 93 86 96 84 44 64 67 52 5 5 4 3 5 17 45 7 3 5 5 5 11 100 61 66 5 6 2 0 4 0 0 0 0
96 97 100 100 100 100 100 100 88 100 100 100 100 100 100 86 42 92 99 28 89 91 94 46 5 5 36 89 17 69 100 100 5 30 7 0 5 4 0 0 0 0 0
82 100 100 100 100 100 100 99 100 100 100 98 100 100 100 100 100 100 100 100 100 100 99 66 40 61 50 100 100 100 100 100 5 5 5 2 0 0 0 0 0 0 0
100 100 100 100 100 100 100 99 100 100 100 100 99 98 100 100 100 100 100 100 100 100 100 94 100 41 100 100 100 100 100 85 5 5 6 5 3 4 1 0 0 0 0
100 100 100 100 100 100 100 100 100 100 100 100 100 100 100 100 100 100 100 100 69 55 100 86 55 100 100 100 100 100 82 6 12 7 18 5 5 0 0 0 0 0 0
100 100 100 100 100 100 100 100 100 100 100 100 100 100 100 100 100 100 100 100 100 100 77 100 100 100 100 100 98 98 5 5 94 100 100 6 5 5 3 0 0 0 3
100 100 100 100 100 100 100 100 100 100 100 100 100 100 100 100 100 100 100 100 47 80 100 100 100 98 100 92 98 5 5 4 4 5 3 3 5 5 4 0 0 0 18
100 100 100 100 100 100 100 100 100 100 100 100 100 100 100 100 100 100 100 100 100 100 100 100 96 81 12 6 5 5 5 0 0 0 72 15 0 0 0 0 0 0 8
100 100 100 100 100 100 100 100 100 100 100 100 100 100 100 100 100 100 100 100 100 100 78 96 88 48 80 5 5 4 5 95 48 100 93 10 4 0 0 0 0 0 0
100 100 100 100 100 100 100 100 100 100 100 100 100 100 100 100 100 100 100 100 100 100 100 33 17 5 5 4 5 77 50 100 90 2 4 0 3 0 0 0 0 0 0
100 100 100 100 100 100 100 100 100 100 100 100 100 100 100 100 100 100 100 100 100 72 49 63 25 61 99 82 96 100 29 12 42 37 70 5 5 0 0 0 0 0 0
69 100 100 100 100 100 100 100 100 100 100 100 100 100 100 100 100 100 100 100 97 89 100 100 97 34 93 100 100 100 100 94 100 30 5 0 0 0 0 5 5 4 0
87 69 87 100 100 100 100 100 100 100 100 100 100 100 100 100 100 100 100 100 100 100 99 100 97 100 100 100 100 100 100 100 91 4 0 0 0 2 0 0 0 3 0
100 100 100 100 100 100 100 100 100 100 100 100 100 100 100 100 99 100 100 98 80 100 100 100 100 94 100 56 3 5 5 0 0 0 0 0 0 4 4 5 5 2 0
72 100 100 100 100 100 100 100 100 100 100 100 96 100 100 100 97 100 100 100 100 100 100 100 100 100 100 27 88 80 0 0 0 0 2 4 4 5 5 3 5 5 5
100 98 63 85 97 86 95 87 79 89 99 88 81 100 100 100 100 100 100 100 100 100 100 100 100 100 54 10 0 0 0 0 0 0 5 2 2 5 5 5 5 5 23
100 100 100 100 100 100 100 30 5 5 5 5 100 82 93 100 100 100 100 100 100 80 32 0 0 0 0 0 0 0 5 5 2 0 0 0 3 28 5 5 5 5 2
100 84 91 86 82 7 5 16 5 5 3 2 5 7 89 100 100 100 49 6 5 5 3 0 0 0 0 1 0 5 5 4 2 3 0 0 5 5 57 47 11 5 5
80 98 16 27 32 14 57 5 4 1 3 2 5 5 5 27 6 5 5 5 5 5 4 0 0 3 4 3 0 4 5 5 4 0 0 0 0 2 1 29 68 82 8
44 89 10 66 5 14 6 4 3 5 5 5 5 28 5 5 5 5 5 5 5 3 0 0 0 0 0 4 3 5 5 6 5 5 2 1 0 0 0 0 16 12 16
100 5 46 4 39 5 5 0 4 42 100 100 98 60 98 98 76 6 5 5 5 5 5 5 5 5 5 5 5 5 10 84 8 54 7 5 5 5 0 0 5 5 5
100 6 20 0 100 12 2 3 0 5 68 50 15 33 100 99 27 10 5 5 3 2 0 0 0 0 1 1 5 5 51 99 99 89 86 5 5 0 0 5 2 3 3

GFSSE_prec_cloud_045.txt.gz
Cloud_Cover
98 100 100 99 76 78 28 23 45 62 78 9 22 74 17 26 23 21 39 8 15 8 20 50 3 1 1 0 1 0 0 0 0 0 0 0 43 0 0 4 3 0 0
92 100 100 100 100 99 100 100 100 21 7 78 94 100 72 63 37 24 5 5 50 61 30 5 3 0 0 0 0 0 0 0 0 0 0 6 88 1 5 0 0 0 0
73 100 100 96 100 90 100 100 100 62 52 99 100 100 96 83 100 60 50 79 34 20 5 2 0 0 4 4 0 0 0 59 0 17 5 1 58 65 5 4 0 0 0
99 100 100 100 100 100 100 100 97 100 100 100 100 100 100 100 100 100 80 92 91 5 6 10 14 25 67 5 5 5 4 2 1 5 13 97 99 19 49 1 0 0 0
34 92 87 51 100 100 100 100 100 100 100 100 97 100 100 100 100 96 100 100 100 86 67 80 100 100 99 39 29 22 5 76 2 18 100 57 99 77 1 0 0 0 0
57 100 100 100 100 94 100 100 97 100 86 100 100 100 100 100 99 99 100 100 100 100 100 67 100 100 100 7 100 6 5 5 5 94 99 35 5 5 3 0 0 0 0
100 100 100 100 100 100 100 100 100 100 100 100 100 100 100 100 100 100 100 100 100 100 100 100 99 72 87 5 5 75 71 12 92 100 38 27 5 5 0 0 4 3 0
100 100 100 100 100 100 100 100 100 98 100 100 100 100 100 100 100 100 100 100 100 100 100 100 100 27 5 78 79 60 76 94 100 100 77 43 6 4 3 0 3 0 0
100 100 100 100 100 100 100 100 99 99 100 100 100 100 100 100 100 100 100 100 100 100 98 99 37 66 82 100 92 100 100 78 100 9 55 5 5 6 12 5 0 0 0
100 100 100 100 100 100 100 100 100 100 100 100 100 100 100 100 100 100 100 100 100 100 100 100 100 100 100 100 100 100 100 100 77 5 2 3 3 0 0 0 4 4 78
100 100 100 100 100 100 100 100 100 100 100 100 100 100 100 100 100 100 100 100 100 73 90 100 100 100 100 100 100 100 100 84 28 90 5 5 0 0 2 1 5 5 1
100 100 100 100 100 100 100 100 100 100 100 100 100 100 100 100 100 100 100 100 100 100 100 100 100 100 99 98 100 55 98 30 6 5 5 1 0 2 1 14 3 24 58
100 100 100 100 100 100 100 100 100 100 100 100 100 100 100 100 100 100 100 100 100 100 100 100 100 60 80 97 100 56 12 5 0 0 4 5 16 43 46 44 14 9 5
100 100 100 100 100 100 100 100 100 100 100 100 100 100 100 100 100 100 100 100 100 100 100 100 100 100 100 96 17 21 60 52 56 47 100 100 100 100 100 78 86 0 0
100 100 100 100 100 100 100 100 100 100 100 100 100 100 100 100 100 100 100 100 100 100 100 100 100 81 92 100 51 96 85 66 45 78 98 100 20 22 2 0 0 0 0
100 100 100 100 100 100 100 100 100 100 100 100 100 100 100 100 100 100 100 100 100 100 37 100 100 100 100 100 100 97 100 100 100 100 80 1 4 0 0 0 0 0 0
100 100 100 100 100 100 100 100 100 100 100 100 100 100 100 100 100 100 100 100 100 100 100 100 100 100 100 100 100 100 100 100 6 2 0 0 0 0 1 0 0 0 0
98 100 85 100 100 100 100 100 100 100 100 100 100 100 100 100 100 100 100 100 100 97 62 57 100 100 100 100 100 100 90 57 2 0 0 0 0 0 1 1 5 2 0
100 93 100 100 100 100 91 100 100 100 85 100 100 100 100 100 100 100 97 89 56 68 90 92 30 96 99 100 96 29 0 0 0 0 0 0 1 4 13 82 63 19 5
94 100 100 94 95 76 76 82 88 75 97 75 53 48 14 17 8 73 23 5 4 3 12 93 100 90 1 0 0 0 0 0 0 0 0 0 2 0 5 5 5 5 5
100 90 77 63 100 100 100 100 100 100 100 100 100 74 5 5 5 2 4 3 0 0 0 2 2 0 0 0 0 0 0 0 0 0 0 0 0 0 3 5 5 5 5
93 100 100 100 100 100 100 99 7 5 5 5 5 4 2 5 5 5 0 1 2 2 5 5 0 0 0 0 0 0 0 0 0 1 0 0 0 0 3 5 5 5 5
100 100 100 100 100 82 53 5 5 6 2 0 0 1 3 5 2 1 5 46 10 5 5 1 0 0 0 0 0 0 3 4 5 5 5 4 2 0 0 0 0 0 5
95 32 24 88 51 17 5 3 5 0 0 0 0 0 0 1 5 5 5 4 3 2 0 0 0 0 0 1 4 5 5 5 17 28 28 5 5 4 0 0 0 0 0
18 5 5 5 5 1 28 2 5 0 0 0 0 0 5 4 38 52 5 2 0 2 0 4 3 0 0 1 4 4 2 4 5 6 6 5 5 5 5 5 0 0 0
5 4 1 0 0 0 0 5 1 0 0 0 11 91 100 100 72 5 9 19 5 1 3 0 2 4 5 5 3 4 5 59 82 84 90 12 5 5 5 4 5 0 0

GFSSE_prec_cloud_048.txt.gz
Cloud_Cover
54 45 46 16 93 99 99 98 86 54 28 30 92 87 5 63 58 5 5 5 4 5 4 3 4 3 4 0 0 2 0 1 0 1 10 14 0 0 0 0 0 0 0
45 10 99 75 99 100 96 98 99 100 68 39 95 100 95 76 65 80 38 5 14 50 5 5 4 5 3 1 3 0 80 0 0 0 0 0 2 0 0 0 0 1 4
97 67 96 75 100 100 99 100 100 100 100 86 100 93 100 100 98 100 85 97 67 86 94 86 61 5 5 3 0 42 5 3 0 0 0 5 1 0 0 0 3 15 4
98 89 69 22 32 92 100 98 100 100 94 100 100 82 100 100 100 97 100 100 100 100 99 88 88 81 56 4 2 4 58 5 0 0 0 12 2 0 2 5 4 5 46
100 98 58 83 86 100 100 100 100 100 100 100 100 79 100 100 98 100 100 100 100 100 36 100 75 98 38 8 66 5 80 64 1 4 5 2 3 10 98 98 100 100 2
100 100 100 100 100 96 100 100 100 100 100 100 100 100 100 100 100 100 100 100 100 100 100 65 98 98 24 29 78 32 5 2 5 7 17 70 99 100 100 100 19 5 0
100 100 100 100 100 100 100 100 100 100 100 100 100 100 100 100 100 100 100 100 100 100 100 100 100 81 22 92 55 100 100 39 32 73 100 100 99 93 91 12 10 5 3
100 100 100 100 100 100 100 100 100 100 100 100 100 100 100 100 100 100 100 100 100 100 97 64 75 100 100 100 98 40 20 97 100 100 70 65 60 55 89 67 4 5 6
100 100 100 100 100 100 100 100 100 100 100 100 100 100 100 100 100 100 99 100 100 100 98 100 79 99 86 100 58 67 100 100 100 100 100 62 25 18 55 13 4 3 28
100 100 100 100 100 100 100 100 100 100 100 100 100 100 100 100 100 100 100 100 100 100 97 100 100 100 100 100 100 100 100 90 37 51 23 10 100 99 5 5 4 0 0
100 100 100 100 100 100 100 100 100 100 100 100 100 100 100 100 100 100 100 100 100 100 100 100 100 100 100 100 100 100 68 85 100 82 86 71 16 17 45 6 3 69 19
96 100 100 100 100 100 100 100 100 100 100 100 100 100 100 100 100 100 100 100 97 100 100 100 100 100 100 100 100 100 100 91 41 98 18 34 5 3 2 10 35 96 34
100 100 100 100 100 100 100 100 100 100 100 100 100 100 100 100 100 100 100 100 100 100 100 100 100 100 100 100 89 100 100 86 8 12 5 3 5 5 85 47 21 4 5
100 100 100 100 100 100 100 100 100 100 100 100 100 100 100 100 100 100 100 100 100 100 100 100 100 100 100 100 95 100 98 97 100 100 100 100 99 100 100 14 5 4 5
100 100 100 100 100 100 100 100 100 100 100 100 100 100 100 100 100 100 100 100 100 100 100 100 100 100 100 92 80 78 35 64 18 67 100 9 33 73 37 2 0 0 0
100 100 100 100 100 100 100 100 100 100 100 100 100 100 100 100 100 100 100 100 100 100 100 100 100 100 100 94 99 64 25 6 5 4 0 0 0 0 0 0 0 0 0
100 100 100 100 100 100 100 100 100 100 100 100 100 100 100 100 100 100 100 100 100 100 99 69 63 9 56 25 22 5 2 0 0 0 0 0 0 0 0 0 4 5 5
100 100 100 100 100 100 100 100 100 100 100 100 100 100 100 100 100 100 100 97 100 96 26 5 38 7 5 5 1 0 0 0 0 0 0 0 0 0 4 5 5 5 5
100 100 100 100 100 100 100 100 100 100 100 100 100 100 100 100 100 100 100 100 59 93 100 87 25 4 0 0 0 0 0 0 0 0 0 0 0 0 5 5 5 5 5
100 100 100 100 100 100 100 100 100 100 100 100 100 96 97 96 94 98 100 100 83 94 80 15 0 0 0 0 0 0 0 0 0 0 0 0 0 0 0 3 5 5 5
91 15 94 98 69 100 100 100 53 43 22 57 96 100 100 100 89 19 18 16 5 2 2 5 0 0 0 0 0 0 0 0 0 0 0 0 0 0 5 0 0 5 5
100 100 100 70 98 100 91 94 85 100 100 100 95 86 24 69 5 17 1 0 0 4 5 0 0 0 0 0 0 0 0 0 1 1 1 5 3 2 5 5 2 0 0
77 89 62 61 100 100 100 100 100 100 100 79 47 5 4 2 5 5 1 2 5 39 4 0 5 5 3 0 0 0 3 0 5 5 5 5 5 5 5 5 0 0 0
99 98 100 100 100 100 100 100 87 63 15 7 1 0 0 2 5 1 0 0 5 24 49 24 43 58 1 2 1 3 0 0 1 5 5 5 5 6 5 5 2 2 2
96 88 84 61 87 98 5 8 7 5 6 5 0 0 5 5 2 0 1 5 5 8 5 34 100 100 75 0 0 1 5 4 5 5 6 10 8 4 5 7 6 5 5
55 40 22 26 38 31 4 0 2 18 17 4 0 3 5 4 34 18 97 87 21 37 99 97 56 5 3 2 5 5 5 1 5 5 48 100 100 14 16 97 76 4 5

GFSSE_prec_cloud_051.txt.gz
Cloud_Cover
91 84 86 56 99 98 30 77 83 57 22 5 5 5 5 5 5 33 16 5 5 4 5 4 5 72 5 5 5 0 0 0 0 0 0 0 0 0 0 0 0 0 2
78 99 47 87 52 5 40 98 100 70 8 5 5 5 74 63 5 5 5 5 5 5 5 5 9 5 5 74 38 5 4 5 5 1 0 2 0 0 0 0 0 0 0
60 100 42 14 5 70 100 100 100 95 74 55 98 62 87 39 78 32 69 56 22 6 5 5 5 5 5 8 33 5 42 5 5 5 4 6 0 0 0 0 0 0 3
95 100 69 20 9 16 83 60 99 100 100 99 100 95 83 80 98 100 90 99 96 79 52 13 5 5 8 46 98 100 79 94 5 5 0 0 1 0 0 0 1 4 14
100 100 39 2 8 52 67 88 100 100 100 100 100 100 100 99 100 100 100 63 77 54 80 74 5 12 42 27 5 91 65 88 49 4 27 99 5 0 2 64 100 8 62
92 91 99 39 66 100 100 100 100 75 100 100 100 100 100 100 100 100 100 98 99 14 90 24 86 61 99 100 100 76 13 5 5 89 17 4 5 48 93 100 97 2 2
100 100 100 100 100 100 100 100 100 97 100 100 100 100 100 100 100 100 100 100 100 96 42 99 92 31 44 6 33 5 5 11 22 39 5 62 92 100 100 81 6 5 9
100 100 100 100 100 100 100 100 100 100 100 100 100 100 100 100 100 100 100 98 100 100 100 84 52 61 6 2 11 78 100 100 100 25 88 98 96 5 35 8 17 78 4
100 100 100 100 100 100 100 100 100 100 100 100 100 100 100 100 100 100 100 100 79 100 98 92 100 100 87 100 100 52 88 91 100 96 83 56 52 77 99 5 5 42 3
100 100 100 100 100 100 100 100 100 100 100 100 100 100 100 100 100 100 100 59 25 99 100 98 30 42 6 18 98 5 5 78 96 68 94 100 98 16 10 5 78 5 5
100 100 100 100 100 100 100 100 100 100 100 100 100 100 100 100 100 100 100 100 100 100 100 100 100 100 100 62 61 100 74 84 97 100 100 100 100 99 31 45 100 6 19
100 100 100 100 100 100 100 100 100 100 100 100 100 100 100 100 98 100 100 100 100 100 99 96 19 72 100 39 60 99 100 100 100 100 100 50 57 76 72 47 28 19 6
95 100 100 100 100 100 100 100 100 100 100 100 100 100 100 100 100 100 100 100 100 100 100 100 100 92 100 98 100 100 100 100 100 97 100 23 16 79 10 5 1 4 0
94 100 100 100 100 100 100 100 100 100 100 100 100 100 100 100 100 100 100 100 100 100 100 100 100 100 100 100 100 100 100 69 91 42 2 4 0 0 0 0 0 0 0
100 100 100 100 100 100 100 100 100 100 100 100 100 100 100 100 100 100 100 100 93 100 100 100 100 44 100 100 100 76 13 4 5 5 5 0 0 0 0 0 0 3 0
99 100 100 98 100 100 100 100 100 100 100 100 100 100 100 100 100 100 100 100 100 100 100 100 97 100 74 62 6 15 8 6 9 5 4 0 0 0 0 0 0 0 3
100 100 100 100 100 100 100 100 100 100 100 100 100 100 100 100 100 100 95 100 100 100 100 99 98 100 100 83 6 57 5 42 6 0 0 0 0 0 0 0 0 0 0
100 100 100 100 100 99 100 100 100 90 98 100 100 100 100 100 100 100 100 100 100 100 100 100 99 100 100 100 70 11 6 0 0 0 0 0 0 0 0 0 2 5 5
81 73 84 94 92 49 83 92 100 100 100 100 100 100 100 100 100 100 100 100 100 100 76 79 96 100 76 6 5 1 0 0 0 0 0 0 0 0 0 3 1 4 4
100 98 94 100 100 100 100 100 100 100 100 100 100 100 100 100 100 100 87 97 96 96 97 50 63 70 3 0 0 0 0 0 0 0 0 0 0 0 0 0 0 0 0
100 100 100 100 95 100 100 100 100 100 100 100 100 100 100 100 100 100 99 100 65 16 64 76 3 0 2 0 5 5 5 0 0 0 0 0 0 0 0 0 0 0 0
100 100 100 100 100 100 100 100 100 97 99 100 100 100 100 100 85 100 95 98 69 47 2 0 0 5 5 16 5 6 20 5 0 0 0 0 0 0 0 3 5 4 0
100 100 37 35 83 100 100 90 64 92 66 88 100 100 72 52 72 34 9 3 0 3 0 5 5 3 5 90 99 18 5 2 0 0 5 5 5 5 5 5 5 5 5
100 100 100 100 93 87 100 100 100 100 78 46 78 73 29 21 8 0 5 5 5 23 29 5 79 52 5 10 5 4 5 2 0 3 4 5 5 5 10 5 5 5 5
66 71 67 92 49 50 14 56 69 11 5 69 94 89 4 0 1 5 5 11 60 7 27 29 24 90 96 13 71 89 8 5 5 7 40 8 18 6 4 5 5 5 8
7 19 32 37 14 68 53 25 39 5 5 78 87 5 2 2 5 91 99 23 94 98 100 58 56 20 70 82 96 8 5 5 5 6 37 54 87 100 56 5 6 5 5

GFSSE_prec_cloud_057.txt.gz
Cloud_Cover
84 47 23 74 84 21 12 5 5 5 12 13 77 32 5 5 5 5 5 5 5 0 0 0 12 24 0 0 0 0 0 0 0 0 0 0 0 0 0 0 4 4 27
87 57 5 5 5 6 6 7 34 5 5 6 76 5 5 5 5 5 5 5 5 5 0 5 0 0 0 0 0 0 0 3 0 0 0 0 0 0 0 0 0 0 0
68 57 3 4 5 2 4 5 5 5 80 38 92 88 66 5 82 8 5 5 5 5 4 11 5 5 0 2 0 0 0 4 0 0 0 0 0 3 4 5 4 5 25
58 91 40 39 4 15 40 37 3 5 48 55 38 81 75 59 86 45 5 30 57 5 26 5 5 3 0 0 0 0 2 3 4 5 5 0 0 0 0 0 2 61 6
100 99 41 88 93 100 38 5 45 33 90 99 80 84 95 74 91 99 56 49 66 96 100 96 7 4 2 2 5 5 5 1 2 5 5 5 0 0 0 0 1 97 19
85 86 77 36 98 71 96 100 70 100 98 99 9 61 48 95 95 97 100 100 87 91 97 51 23 20 5 37 86 5 5 5 5 5 2 1 0 0 0 0 0 1 15
100 100 100 100 94 100 100 100 100 97 99 94 80 100 82 97 97 100 99 90 8 80 78 29 7 85 100 52 77 59 71 61 44 3 0 0 0 0 0 0 0 0 0
100 100 100 100 100 100 100 100 100 100 100 100 100 100 100 100 100 100 88 95 67 50 62 58 98 80 99 36 59 100 38 3 3 0 0 0 0 0 0 0 2 4 5
100 90 100 100 100 100 100 100 100 100 100 100 100 100 100 98 87 97 88 100 58 28 45 30 8 4 12 43 13 5 12 5 1 5 5 26 5 4 5 5 34 6 5
100 100 100 100 100 100 100 100 100 100 100 100 100 100 100 97 31 9 12 98 95 100 96 5 19 53 5 8 5 5 5 5 6 19 7 5 5 19 85 44 80 92 63
100 100 100 100 100 100 100 100 100 100 100 100 100 100 100 100 99 100 50 79 98 23 6 19 13 30 30 18 95 5 82 92 4 32 80 100 52 77 75 75 37 0 0
100 98 100 100 100 100 100 100 100 100 100 100 100 100 100 100 100 100 100 95 100 48 8 20 58 79 84 50 48 59 6 10 6 52 18 71 80 10 17 5 5 4 0
100 100 92 100 100 100 100 100 100 100 100 100 100 100 100 100 100 100 100 99 90 98 89 37 14 90 98 97 96 100 100 99 18 5 42 25 100 100 18 5 18 9 0
91 90 100 100 100 100 100 100 100 100 100 100 100 100 100 100 100 100 100 100 100 100 99 100 100 100 100 100 100 53 47 64 4 76 5 4 5 21 9 0 5 0 11
100 100 100 100 100 100 100 100 100 100 100 100 100 100 100 100 100 100 100 93 100 88 79 100 87 100 93 73 21 100 99 15 5 5 5 5 4 2 2 0 1 1 5
97 100 100 100 100 100 100 100 100 100 100 100 100 100 100 100 100 100 100 100 100 100 100 100 100 100 94 80 16 20 5 5 10 2 4 4 5 3 0 0 0 0 0
99 100 100 100 100 100 100 100 100 100 100 100 100 100 100 100 100 100 100 100 100 100 100 100 100 100 100 88 6 5 47 6 5 3 5 5 0 0 0 0 0 0 0
100 99 100 100 100 100 100 100 100 100 100 100 100 100 100 100 100 100 100 100 100 100 100 100 100 85 16 9 7 5 60 14 10 5 5 0 0 0 0 0 0 0 0
99 50 40 100 100 100 100 100 100 100 100 100 100 100 100 100 100 100 100 100 100 100 100 86 62 70 23 5 28 32 5 5 2 0 0 0 0 0 0 0 0 0 0
0 0 4 25 8 94 100 100 100 100 100 100 100 100 100 100 100 100 100 100 99 100 100 7 30 7 5 35 48 5 5 1 0 0 0 0 0 0 0 0 0 0 0
1 5 5 73 99 100 100 100 100 100 100 96 96 100 100 100 100 100 100 100 34 67 66 42 6 6 62 30 5 4 0 0 0 0 0 0 0 0 0 0 0 0 0
9 97 48 51 14 30 30 19 13 23 83 84 95 89 98 95 77 71 100 99 15 35 49 28 48 56 9 5 0 1 1 0 1 2 0 0 0 0 0 0 0 0 5
100 100 100 99 11 5 16 26 51 34 19 41 55 100 47 62 50 100 99 79 40 39 21 18 19 8 5 10 5 5 24 5 5 5 5 5 5 1 0 0 0 0 5
100 100 100 100 95 76 83 100 100 100 100 100 70 91 86 87 100 100 100 74 14 6 5 24 80 77 80 49 18 5 28 21 5 5 3 5 1 4 2 5 5 4 4
100 100 100 98 67 70 59 31 93 100 100 100 100 100 100 98 76 99 53 49 5 6 81 12 64 100 100 100 89 31 55 66 25 5 5 5 4 5 5 5 5 5 5
95 56 86 98 96 100 100 85 86 100 98 100 97 100 100 90 68 95 6 10 5 5 34 86 92 100 100 100 100 92 100 83 18 5 5 5 5 6 9 5 5 4 1

GFSSE_prec_cloud_060.txt.gz
Cloud_Cover
74 98 100 100 100 97 100 100 100 100 100 93 46 85 19 5 5 5 3 0 1 0 0 4 0 0 0 0 0 0 0 0 0 0 0 0 0 0 0 0 0 0 0
89 70 42 78 100 100 97 66 52 40 8 70 10 57 36 7 5 5 5 2 0 0 4 0 0 0 0 0 0 0 0 0 0 0 0 0 0 0 0 0 0 3 0
66 94 74 21 100 100 100 14 5 5 0 2 5 5 5 5 5 28 5 2 5 27 88 2 0 1 3 5 5 0 0 0 0 0 0 0 0 2 0 0 0 6 0
66 86 100 99 65 40 5 77 86 5 5 5 5 5 5 5 5 39 5 5 5 4 5 5 10 52 23 6 5 5 2 2 2 2 0 0 0 0 0 0 15 10 15
64 80 100 100 91 54 95 95 97 21 5 5 31 7 18 20 80 67 5 5 10 5 5 5 38 12 9 5 5 0 4 5 5 5 1 4 0 0 0 5 0 3 82
92 75 99 100 100 78 82 16 53 5 57 76 90 42 5 46 91 88 37 66 43 100 55 6 7 40 37 5 5 23 93 98 92 42 46 4 2 0 0 0 0 0 0
100 100 100 100 100 100 100 100 100 100 100 100 100 97 100 87 100 100 98 100 100 57 14 11 6 7 5 24 95 100 79 84 14 19 33 0 0 0 0 0 0 0 0
100 100 100 100 100 100 100 100 100 100 100 100 100 100 100 100 100 100 100 100 100 82 54 64 7 91 33 26 6 24 8 3 1 0 0 0 3 0 0 0 4 0 0
100 100 100 100 100 100 100 100 100 100 100 100 100 100 100 100 100 100 100 100 100 96 99 79 95 100 37 5 0 5 3 0 0 0 3 1 3 4 2 4 16 5 5
100 100 100 100 100 100 100 100 100 100 100 100 100 100 100 100 100 100 100 85 92 70 100 100 100 100 22 0 2 0 6 12 5 5 5 49 6 33 5 16 5 52 17
100 100 100 100 100 100 100 100 100 100 100 100 100 100 100 100 100 100 100 100 99 94 89 95 63 100 100 48 5 17 100 93 20 100 92 100 93 100 6 5 3 5 5
100 100 100 100 100 100 100 100 100 100 100 100 100 100 100 100 100 100 100 100 100 100 100 100 100 100 100 55 20 99 100 100 91 96 62 88 77 96 20 12 3 0 0
100 100 100 100 100 100 100 100 100 100 100 100 100 100 100 100 100 100 98 100 100 100 100 100 100 68 96 96 99 99 72 100 100 99 77 5 5 8 2 27 13 0 0
100 100 100 100 100 100 100 100 100 100 100 100 100 100 100 100 100 100 100 100 100 94 72 95 100 100 100 100 100 93 69 100 30 75 79 96 5 5 7 5 5 0 0
100 100 100 100 100 100 100 100 100 100 100 100 100 100 100 100 100 100 100 100 100 100 100 100 100 100 99 98 70 100 100 97 100 100 82 36 4 5 3 2 0 0 0
100 100 100 100 100 100 100 100 100 100 100 100 100 100 100 100 100 100 100 100 100 95 100 100 100 100 100 80 100 100 82 36 60 55 6 4 0 1 3 1 0 0 0
100 100 72 95 100 100 100 100 100 100 100 100 100 100 100 100 100 100 100 100 100 100 100 100 100 100 99 100 100 99 5 27 6 5 1 4 3 4 0 0 0 0 0
100 89 52 52 100 100 100 100 100 100 100 100 100 100 100 100 100 100 100 100 100 100 100 100 100 95 98 100 100 79 17 29 5 5 4 5 3 0 0 0 0 0 0
100 100 96 100 100 100 100 100 100 100 100 100 100 100 100 100 100 100 100 100 100 100 100 91 78 82 97 73 92 58 32 5 5 5 5 3 0 0 0 0 0 0 0
63 100 99 100 100 100 100 100 100 100 100 100 100 100 100 100 100 100 100 100 100 100 97 98 78 99 99 28 56 5 5 5 5 2 0 0 0 0 0 0 0 0 0
100 99 42 100 100 100 100 100 100 100 100 100 100 100 100 100 100 100 100 100 100 100 100 56 5 30 93 26 5 5 5 5 0 0 0 0 0 0 0 0 1 0 0
29 5 4 47 95 99 100 100 100 100 100 100 100 100 100 100 100 100 100 98 100 99 14 72 24 5 11 6 5 5 14 6 1 4 5 1 5 0 1 5 5 5 5
100 28 56 88 88 100 100 100 100 100 100 100 100 100 100 100 100 100 77 88 100 100 64 12 5 5 5 5 5 39 100 53 5 5 0 5 4 4 5 5 5 5 5
100 100 99 99 64 89 100 79 97 86 100 100 69 89 97 100 100 92 84 100 100 100 66 5 29 8 45 6 89 100 100 81 15 21 11 2 5 6 23 5 5 5 5
91 100 100 89 69 31 7 46 30 5 1 0 54 85 92 100 100 100 100 92 100 100 75 5 5 10 28 100 100 100 100 43 93 100 98 89 5 65 56 5 5 5 5
90 31 16 16 69 88 34 28 9 24 38 59 70 100 100 100 100 100 100 100 100 100 7 50 16 90 100 99 100 100 100 100 97 51 13 5 5 5 5 4 5 5 5

GFSSE_prec_cloud_063.txt.gz
Cloud_Cover
74 94 98 100 100 100 100 100 100 100 100 100 100 100 100 100 96 15 5 5 0 0 2 0 0 0 0 0 0 0 0 0 0 0 0 0 0 0 0 0 0 0 0
68 16 100 100 100 100 100 100 100 100 100 100 100 43 7 7 12 5 4 3 0 0 0 5 3 0 0 0 0 5 2 0 0 0 0 0 0 0 0 0 0 65 97
100 46 3 1 47 38 7 55 49 60 32 87 46 5 5 5 5 5 10 22 2 5 0 0 2 0 0 0 7 5 5 0 0 0 0 0 0 4 15 7 13 17 88
100 99 42 16 41 25 74 34 13 64 26 5 5 5 5 5 5 5 5 5 5 4 2 0 0 1 34 93 32 5 4 2 0 8 10 2 3 4 6 0 13 16 39
99 100 72 46 100 100 100 99 76 68 99 94 38 67 17 5 12 80 38 5 5 5 5 5 4 36 99 90 5 5 5 0 0 13 67 54 64 5 2 4 5 0 0
57 100 100 100 100 100 98 20 50 86 82 99 97 100 93 5 15 99 57 37 70 77 27 97 100 53 15 10 4 4 0 0 8 52 55 57 5 5 0 0 0 0 0
88 100 100 100 100 100 100 100 100 84 100 100 91 84 100 42 85 100 100 100 100 100 100 94 87 46 6 29 5 0 0 5 5 10 3 0 0 0 0 0 0 0 0
89 100 100 100 100 100 100 100 100 100 100 100 100 100 100 96 97 100 100 100 100 100 100 99 100 100 100 36 5 3 5 0 1 3 22 0 0 0 0 0 0 1 0
100 100 100 100 100 100 100 100 100 100 100 100 100 100 100 100 95 99 100 100 100 100 100 100 100 100 99 80 79 16 0 0 0 0 3 3 2 5 4 1 4 3 0
100 100 100 100 100 100 100 100 100 100 100 100 100 100 100 100 100 100 100 100 100 100 100 90 100 97 34 93 31 5 3 8 5 5 33 7 6 5 5 6 28 11 9
100 100 100 100 100 100 100 100 100 100 100 100 100 100 100 100 100 100 100 100 100 100 100 100 98 98 35 78 32 5 60 18 97 82 25 75 16 71 100 55 96 5 1
100 100 100 100 100 100 100 100 100 100 100 100 100 100 100 100 100 100 100 100 100 85 100 100 100 90 85 72 82 92 93 89 71 100 100 100 100 99 76 63 9 92 5
100 100 100 100 100 100 100 100 100 100 100 100 100 100 100 100 100 100 100 100 100 100 96 100 100 100 81 100 100 100 86 99 99 100 99 100 100 100 100 53 8 4 3
100 100 100 100 100 100 100 100 100 100 100 100 100 100 100 100 100 100 100 100 100 100 100 100 100 100 100 100 100 100 100 100 100 100 100 100 93 72 19 20 12 19 0
100 100 100 100 100 100 100 100 100 100 100 100 100 100 100 100 100 100 100 100 100 100 100 100 100 99 100 99 100 100 100 100 99 90 100 100 97 20 5 15 11 4 2
100 100 100 100 100 100 100 100 100 100 100 100 100 100 100 100 100 100 100 100 100 100 100 100 100 100 100 100 100 100 100 100 100 100 100 77 75 98 5 5 4 0 0
100 100 100 100 100 100 100 100 100 100 100 100 100 100 100 100 100 100 100 100 100 100 100 100 100 100 100 100 92 99 100 100 100 100 100 100 10 5 5 1 0 0 0
100 99 100 100 100 100 100 89 96 100 100 100 100 100 100 100 100 100 100 100 100 100 100 100 100 100 100 100 99 70 100 56 83 48 78 5 5 6 5 0 0 0 0
97 100 100 95 100 100 100 99 100 99 100 100 100 100 100 100 100 100 100 100 100 100 100 100 100 100 100 80 100 68 84 100 89 3 5 2 0 0 0 0 0 0 0
83 71 63 96 96 98 98 100 100 100 100 100 100 100 100 100 100 100 100 100 100 100 100 100 100 100 98 95 95 100 82 32 78 29 5 4 4 0 0 0 0 0 0
100 100 100 100 97 100 100 100 100 100 100 100 100 100 100 100 100 100 100 100 100 100 100 100 100 100 100 96 100 76 100 48 11 4 0 5 4 5 5 0 4 3 2
100 94 100 100 31 61 100 100 100 100 98 100 100 100 100 100 100 100 100 100 100 100 100 100 62 100 100 96 39 92 10 36 32 18 4 4 5 5 5 5 4 7 5
99 91 43 96 34 87 93 35 38 100 100 100 100 100 100 100 100 100 100 100 100 100 98 100 100 100 79 74 66 6 8 29 58 82 35 5 60 39 5 5 16 9 5
100 100 100 100 100 96 100 100 98 80 78 45 99 93 100 100 100 100 100 100 100 78 100 98 100 99 18 40 5 5 33 67 100 81 98 7 5 6 5 17 26 5 5
100 100 100 100 79 100 100 100 26 8 5 38 47 56 95 100 100 100 100 100 100 100 98 100 100 100 100 96 62 99 98 100 100 29 55 79 60 9 82 96 12 5 5
40 81 79 38 11 14 9 6 5 55 5 5 5 62 100 100 100 100 99 100 100 100 100 100 100 100 100 100 91 100 77 98 74 82 100 25 5 5 5 5 5 5 5

GFSSE_prec_cloud_066.txt.gz
Cloud_Cover
100 100 56 100 63 31 30 100 100 54 74 100 100 100 100 98 100 100 73 8 5 6 27 0 0 0 2 3 0 0 0 0 0 0 0 0 0 0 0 0 0 1 5
100 100 96 34 18 4 5 58 98 100 100 100 100 100 100 100 100 97 64 50 5 3 0 2 2 3 0 0 0 0 0 0 0 0 0 0 36 95 10 27 88 100 22
100 100 100 100 100 100 100 100 100 86 92 100 100 98 94 90 87 68 11 5 5 4 5 0 0 0 0 0 0 1 4 30 4 0 0 0 2 20 67 2 94 99 81
100 100 100 100 20 12 35 5 32 17 5 6 21 5 5 5 5 5 5 5 5 1 0 0 0 0 2 4 5 20 5 3 8 2 0 0 0 3 3 2 0 35 56
100 100 100 100 100 80 100 98 90 100 53 21 6 5 5 5 5 5 5 5 5 5 2 3 5 5 5 5 14 18 4 4 0 2 0 0 0 5 5 5 2 0 0
100 98 100 100 82 77 95 99 98 100 90 53 9 5 55 38 5 5 5 5 39 5 5 5 5 7 31 5 13 3 5 5 0 0 0 0 0 1 4 5 0 0 0
100 100 100 100 100 100 100 100 100 100 95 47 72 92 100 83 79 5 11 5 5 13 99 9 91 100 10 12 5 5 5 5 0 0 0 2 4 2 0 0 0 0 0
100 100 100 100 100 100 100 100 100 100 86 81 85 100 100 86 71 97 37 42 92 100 100 100 100 89 8 86 5 40 5 4 2 0 1 0 0 0 0 2 5 1 0
100 100 100 100 100 100 100 100 100 100 100 94 100 88 87 60 45 98 99 100 100 100 100 99 100 98 83 11 40 19 5 0 0 0 0 0 0 3 0 4 4 1 5
100 100 100 100 100 100 100 100 100 100 100 100 100 100 100 100 100 100 100 100 100 100 100 100 100 100 97 65 9 10 5 0 0 0 2 5 5 5 5 5 5 100 100
100 100 100 100 100 100 100 100 100 100 100 100 100 100 100 100 100 100 100 100 100 100 100 100 96 13 26 7 22 5 5 5 5 5 5 5 28 10 6 92 100 100 7
100 100 100 100 100 100 100 100 100 100 100 100 100 100 100 100 100 100 100 100 100 100 100 94 22 40 18 62 100 75 41 87 92 85 68 71 71 96 96 100 100 100 70
100 100 100 100 100 100 100 100 100 100 100 100 100 98 100 100 100 100 100 100 100 100 100 100 99 94 100 100 100 100 34 80 100 94 99 100 100 100 97 41 56 80 99
100 100 100 100 100 100 100 100 100 100 100 100 100 91 100 100 100 100 100 100 100 100 100 100 100 100 100 90 26 32 89 97 100 100 100 100 100 100 100 100 99 97 75
100 100 100 100 100 100 100 100 100 100 100 100 100 100 100 100 100 100 100 100 100 100 100 100 100 100 98 100 99 100 100 100 100 100 100 100 100 100 100 97 100 35 5
100 100 100 100 100 100 100 100 100 100 100 100 100 95 100 100 100 100 100 100 100 100 100 100 100 100 100 100 100 100 100 100 96 100 46 100 99 99 96 17 5 4 5
100 100 100 100 100 100 100 100 100 100 100 100 100 100 100 100 100 100 100 100 100 100 100 100 100 100 100 100 100 100 100 100 100 100 100 100 85 65 24 55 5 5 2
100 100 100 100 100 100 100 100 100 100 100 99 99 100 100 100 100 100 100 100 100 100 100 100 100 100 100 100 100 100 100 100 100 89 100 100 100 99 45 54 1 5 1
94 100 100 100 100 100 100 100 100 100 100 100 100 100 100 100 100 100 100 100 100 100 100 100 100 100 100 100 100 100 100 100 100 100 100 99 16 39 56 5 3 5 1
54 100 100 100 100 100 100 100 100 100 100 100 99 100 100 100 100 100 100 100 100 100 100 100 100 100 100 100 100 100 100 100 100 90 68 50 5 5 4 2 0 0 0
100 100 100 100 100 100 100 100 100 100 100 100 100 100 100 100 100 100 100 100 100 100 100 100 100 100 100 100 100 100 100 95 63 62 53 19 54 5 0 1 4 3 2
32 100 96 89 86 82 100 100 100 100 100 100 100 100 100 100 100 100 100 100 100 100 100 100 100 100 100 100 76 100 100 100 73 97 88 24 37 6 5 5 3 4 0
100 98 5 17 83 96 50 81 100 100 100 100 100 100 100 100 100 100 100 100 100 100 100 100 100 100 100 100 94 90 99 100 100 98 100 58 5 5 4 5 4 0 5
79 100 100 55 2 0 82 90 1 14 15 30 6 33 99 100 100 100 100 100 100 100 100 100 100 100 99 100 100 100 100 100 100 100 93 37 5 5 8 64 4 4 5
100 100 49 85 92 90 68 98 93 9 7 9 4 4 16 59 16 84 91 98 100 100 96 97 100 100 100 100 100 100 100 100 100 100 39 100 61 9 5 5 5 5 5
98 100 100 100 100 100 96 5 52 83 14 5 7 17 16 69 87 100 100 100 100 100 100 100 100 100 100 100 100 100 100 100 100 100 70 80 100 97 29 50 8 5 5

GFSSE_prec_cloud_072.txt.gz
Cloud_Cover
99 100 5 20 100 100 100 89 72 100 92 57 92 54 5 42 32 5 56 98 98 36 91 18 62 45 75 35 5 0 0 0 0 56 66 90 89 69 62 58 39 72 100
100 97 6 5 100 100 100 97 96 92 99 86 100 36 49 36 53 5 5 5 50 66 92 46 58 90 5 5 4 0 0 0 0 0 6 0 1 6 81 0 0 1 24
100 86 16 100 77 98 100 100 100 100 100 100 100 100 42 5 19 10 24 86 73 66 73 7 9 5 3 5 0 0 0 0 0 0 0 1 0 46 1 0 8 1 83
76 99 29 88 100 100 100 100 100 100 100 100 100 100 100 36 11 48 3 5 18 94 97 100 82 35 5 5 0 0 0 0 4 3 4 0 0 0 0 0 99 100 78
78 100 100 98 45 100 100 100 100 100 100 100 100 100 100 98 10 71 80 100 100 100 100 100 47 47 65 5 0 0 0 0 29 17 5 0 0 0 0 18 100 100 100
100 100 100 70 37 92 100 100 100 100 100 100 100 100 100 12 14 95 100 100 100 100 53 9 5 6 4 0 0 5 4 3 5 5 5 0 0 0 0 0 4 1 15
100 100 100 95 100 100 100 100 100 100 100 100 100 100 100 72 94 26 5 55 100 96 99 36 0 1 3 4 5 12 5 32 13 5 2 0 0 0 0 0 0 6 4
100 100 100 100 100 100 100 100 100 100 100 100 100 96 84 88 64 79 99 89 92 84 5 0 2 4 10 100 7 5 5 62 55 5 0 0 0 0 0 0 0 0 7
100 100 100 100 100 100 100 100 100 100 100 100 100 100 100 100 100 100 100 100 100 74 5 5 5 74 100 100 80 5 5 5 5 5 0 2 0 0 0 0 0 0 0
100 100 100 100 100 100 100 100 100 100 100 100 100 100 100 100 100 100 100 100 100 97 100 100 100 98 79 100 100 5 5 5 5 5 5 5 2 0 1 3 0 0 3
100 100 100 100 100 100 100 100 100 100 100 100 100 100 100 100 100 100 100 100 100 100 100 100 100 100 100 99 100 40 27 5 58 5 5 5 4 5 5 5 35 5 5
100 100 100 100 100 100 100 100 100 100 100 100 100 100 100 100 100 100 100 100 100 91 84 100 100 93 5 70 42 7 7 5 5 5 5 5 56 64 79 6 5 5 7
100 100 100 100 100 100 100 100 100 100 100 100 100 100 100 100 100 100 95 100 100 100 99 100 100 77 8 5 30 88 99 85 100 11 89 100 100 98 7 69 68 99 100
100 100 100 100 100 100 100 100 100 100 100 100 100 100 100 100 100 86 100 100 100 100 100 100 94 100 73 74 100 100 99 100 100 100 100 97 100 85 42 100 100 100 100
100 100 100 100 100 100 100 100 100 100 100 100 100 100 100 100 100 84 100 75 100 100 100 100 100 100 100 100 100 100 100 100 100 100 100 100 100 100 100 100 94 85 41
100 100 100 100 100 100 100 100 100 100 100 100 100 100 100 100 100 100 91 92 100 86 98 100 100 100 100 100 100 100 99 100 100 99 100 100 100 100 100 100 100 98 79
100 100 100 100 100 100 100 100 100 100 100 100 100 100 100 100 100 88 92 95 93 98 100 100 97 100 100 100 95 100 100 65 100 100 100 100 100 100 100 100 100 100 100
100 100 100 100 100 100 100 100 100 100 100 100 100 100 100 100 100 100 93 100 97 100 100 100 100 100 100 100 100 99 100 100 100 100 100 100 100 100 100 100 100 100 100
100 100 100 100 100 100 100 100 100 100 100 100 100 100 100 100 100 100 100 100 99 100 100 90 57 90 100 100 100 100 100 100 100 100 100 100 100 100 100 100 100 100 95
100 100 100 100 100 100 100 100 100 100 100 100 100 100 100 100 100 100 100 100 95 99 83 100 100 100 100 100 100 100 100 100 100 100 100 100 100 100 100 100 100 100 100
86 100 100 100 100 100 100 100 100 100 100 100 100 100 100 100 100 100 78 75 100 100 100 100 100 100 100 100 100 100 100 100 100 100 100 100 100 100 67 100 100 30 6
100 100 100 100 100 97 100 100 100 100 100 100 100 90 100 100 100 100 99 46 99 100 100 100 100 100 100 100 100 100 100 100 100 94 73 99 90 30 10 11 69 66 97
100 98 92 99 69 94 100 100 100 100 100 100 100 100 100 100 97 100 100 100 100 100 100 98 97 100 100 100 100 100 100 100 98 100 87 100 98 29 91 100 99 74 100
50 100 100 100 100 100 100 100 100 100 100 100 100 100 100 100 100 100 100 95 100 100 100 73 65 89 100 92 84 100 100 100 100 100 100 100 100 82 83 81 100 92 100
100 100 100 47 99 100 100 100 100 100 100 100 100 100 100 100 100 100 100 100 100 99 98 100 100 100 100 100 99 98 100 100 100 100 100 100 100 100 100 100 100 100 100
76 89 100 100 100 100 100 100 100 100 98 100 100 100 100 100 100 100 100 100 100 100 100 90 28 84 89 97 64 100 100 100 100 100 100 100 100 100 100 100 100 100 100

GFSSE_prec_cloud_075.txt.gz
Cloud_Cover
62 52 86 5 28 30 13 66 38 50 72 100 100 100 29 71 94 66 61 0 57 100 100 87 100 95 68 33 53 68 4 1 69 85 18 64 100 100 67 35 93 100 100
98 9 5 2 14 19 5 100 63 90 65 100 97 87 92 100 99 93 100 100 14 100 100 100 100 100 85 97 100 84 99 0 19 99 0 19 100 100 7 26 1 99 100
100 21 8 5 95 74 5 64 83 100 88 100 99 100 100 100 100 100 100 100 100 100 100 100 100 100 100 100 100 100 96 0 0 0 0 60 86 26 74 51 54 69 94
100 23 3 88 100 100 100 100 58 53 87 100 100 100 100 100 100 100 100 100 68 100 100 100 100 99 100 100 100 92 5 0 0 0 0 3 0 62 100 100 100 100 98
65 86 66 100 100 100 100 100 100 100 100 100 100 100 100 100 100 100 100 100 100 94 89 73 96 100 66 51 25 8 11 0 0 0 3 57 70 88 100 100 99 100 100
50 86 100 100 100 100 100 100 100 100 100 100 100 100 100 100 100 100 100 100 100 100 100 93 100 93 80 72 75 4 0 0 0 2 5 46 36 5 18 2 98 6 52
100 56 100 100 100 100 100 100 100 100 100 100 100 100 100 100 100 100 91 71 0 11 94 85 98 78 8 2 1 3 5 4 5 5 5 9 5 5 0 0 4 0 0
100 100 92 100 100 100 100 100 100 100 100 100 100 100 100 100 98 55 72 5 92 20 62 42 59 35 3 0 4 5 5 6 5 24 11 34 5 2 0 0 1 4 0
100 100 100 96 100 100 100 100 100 100 100 100 100 100 99 82 100 100 93 100 100 80 100 100 100 5 23 19 88 95 99 100 96 66 6 9 5 0 0 0 0 0 0
100 100 100 100 100 100 100 100 100 100 100 100 100 100 100 100 100 100 100 24 28 69 100 100 60 6 5 26 49 99 78 100 100 72 9 5 0 5 4 5 4 4 3
100 100 100 100 100 100 100 100 100 100 100 100 100 100 100 100 100 100 100 100 94 73 48 72 27 25 5 89 42 25 100 76 69 55 5 5 5 6 3 4 5 9 5
100 100 100 100 99 94 100 100 100 100 100 100 100 100 100 100 100 100 100 97 100 71 85 69 87 100 85 83 36 87 67 74 5 5 5 21 13 6 5 5 91 10 5
100 100 100 100 100 100 100 100 100 100 100 100 100 100 100 100 100 100 100 100 100 97 98 100 100 100 100 63 84 36 7 5 21 23 5 11 72 52 52 91 88 99 79
100 100 100 100 100 100 100 100 100 100 100 100 100 100 100 100 100 100 100 100 100 100 69 97 100 100 100 100 73 100 62 20 8 50 70 94 100 100 100 59 55 69 100
100 100 100 100 100 100 100 100 100 100 100 100 100 100 100 100 100 100 100 99 100 84 81 84 98 99 100 94 84 100 100 75 73 81 100 100 100 100 100 100 100 100 100
100 100 100 100 100 100 100 100 100 100 100 100 100 100 100 100 100 100 100 100 100 97 97 100 100 99 100 100 65 100 100 100 100 100 100 100 100 100 100 100 100 100 100
100 100 100 100 100 100 100 100 100 100 100 100 100 100 100 100 100 100 100 100 100 88 83 57 100 100 100 100 100 100 100 100 100 100 100 100 100 100 100 100 100 100 100
100 100 100 100 100 100 100 100 100 100 100 100 100 100 100 100 100 100 100 100 100 100 89 99 100 100 100 100 100 100 100 100 100 100 100 100 100 100 100 100 100 100 100
100 100 100 100 100 100 100 100 100 100 100 100 100 100 100 100 100 100 100 100 100 100 100 100 100 100 100 100 100 100 100 100 100 100 100 100 100 100 100 100 100 100 100
100 100 100 100 100 100 100 100 100 100 100 100 100 100 100 100 100 100 100 100 100 100 100 100 100 100 100 100 68 93 100 100 100 100 100 100 100 100 100 100 100 100 98
100 100 100 100 100 100 100 100 100 100 100 100 100 100 100 100 100 100 100 100 100 100 100 100 100 100 100 98 100 100 100 100 100 100 100 100 100 100 100 100 58 34 12
100 100 100 100 100 100 100 100 100 100 100 100 100 100 100 100 100 100 100 100 100 100 100 100 100 98 100 100 100 100 100 100 100 100 100 100 98 93 79 68 42 86 70
100 100 100 100 100 100 100 100 100 100 100 100 100 100 100 100 100 100 100 100 100 100 100 100 100 100 100 94 100 99 96 100 100 100 97 99 100 100 100 100 100 86 85
100 100 100 100 100 100 100 100 100 100 100 100 100 100 100 100 100 100 100 100 100 100 100 100 100 100 95 80 99 99 94 89 100 98 100 100 84 100 100 100 100 83 100
100 100 100 100 100 100 100 100 100 100 100 100 100 100 100 100 100 100 100 100 100 100 80 98 100 99 98 93 100 100 92 100 99 100 100 73 100 100 100 100 100 100 100
93 88 100 100 100 100 100 100 100 100 100 100 100 100 100 100 100 100 100 100 100 100 86 87 73 69 51 34 45 59 95 100 100 84 100 100 100 100 100 100 100 100 100

GFSSE_prec_cloud_078.txt.gz
Cloud_Cover
26 45 37 42 100 10 5 6 20 0 0 100 100 100 100 81 97 59 99 79 100 100 100 100 100 100 100 100 100 100 72 38 68 32 68 98 88 92 10 53 90 9 94
86 69 37 97 2 19 4 28 88 15 4 100 100 100 100 100 18 77 95 100 97 64 87 18 44 100 100 100 100 100 89 100 100 100 100 95 100 95 76 1 9 96 97
100 96 21 32 5 5 4 20 100 70 40 8 94 100 100 88 100 14 56 100 95 100 100 97 93 100 100 100 100 100 100 100 73 12 44 6 84 75 44 4 9 5 75
100 84 63 4 0 1 10 99 99 100 96 100 93 100 95 96 100 100 98 100 100 100 100 100 100 100 100 100 100 100 80 60 3 0 4 77 68 99 100 97 55 100 88
100 95 59 4 37 97 100 100 100 100 100 84 100 98 96 77 100 100 100 100 100 100 100 100 100 90 94 90 89 29 5 11 2 4 1 59 100 100 85 100 25 34 80
43 100 93 3 5 96 100 100 100 100 100 100 50 96 100 100 100 100 100 100 100 100 100 100 98 68 97 40 97 100 100 65 5 0 0 1 3 6 54 92 26 64 86
100 100 100 62 100 99 100 100 100 100 100 100 100 100 100 100 100 100 100 100 100 100 100 100 29 12 98 60 66 10 0 2 5 5 5 5 5 5 13 35 56 12 60
100 100 100 100 100 100 100 100 100 100 100 100 100 100 100 100 100 100 100 100 96 99 100 40 87 82 94 34 60 96 92 3 5 5 5 5 17 85 61 5 4 0 29
100 100 100 100 100 100 100 100 100 100 100 100 100 100 100 100 100 100 100 100 100 86 54 68 31 57 29 7 12 5 29 5 10 48 52 6 76 6 5 2 0 0 2
100 100 100 100 100 100 100 100 100 100 100 100 100 100 100 100 100 100 100 100 100 100 99 20 94 100 100 93 17 5 97 97 38 100 76 47 26 5 2 0 0 1 0
100 100 100 100 100 100 100 100 100 100 100 100 100 100 100 100 100 100 100 100 100 100 100 23 95 99 86 96 50 75 90 88 62 84 77 29 5 5 5 2 1 3 2
100 100 100 100 100 100 100 100 100 100 100 100 100 100 99 100 100 100 100 100 100 100 100 100 95 100 100 99 88 100 83 68 92 94 6 58 6 70 5 33 63 5 32
100 100 100 100 100 100 100 100 100 100 100 100 100 100 100 100 100 100 100 100 100 100 100 92 87 93 100 100 98 99 100 100 98 100 93 91 98 92 96 83 97 100 100
100 100 100 100 100 100 100 100 100 100 100 100 100 100 100 100 100 100 100 100 100 100 100 100 95 100 99 99 99 94 73 100 100 100 100 100 100 100 100 100 100 100 100
100 100 100 100 100 100 100 100 100 100 100 100 100 100 100 100 100 100 100 100 100 100 100 100 100 94 99 75 95 100 98 100 100 100 100 100 100 100 100 100 100 100 100
100 100 100 100 100 100 100 100 100 100 100 100 100 100 100 100 100 100 100 100 100 100 100 100 100 98 97 99 100 100 100 100 100 100 100 100 100 100 100 100 100 100 100
100 100 100 100 100 100 100 100 100 100 100 100 100 100 100 100 100 100 100 100 100 100 100 100 100 100 100 81 92 100 100 100 100 100 100 100 100 100 100 100 100 100 100
100 100 100 100 100 100 100 100 100 100 100 100 100 100 100 100 100 100 100 100 100 100 100 100 78 100 96 100 95 100 100 100 100 100 100 100 100 100 94 100 100 100 100
100 100 100 100 100 100 100 100 100 100 100 100 100 100 100 100 100 100 100 100 100 100 99 96 99 99 100 94 100 100 100 100 100 100 100 100 100 100 100 100 100 100 100
100 100 100 100 100 100 100 100 100 100 100 100 100 100 100 100 100 100 100 100 100 100 94 92 100 100 100 100 100 100 100 100 100 100 100 100 100 100 100 100 100 100 100
100 100 100 100 100 100 100 100 100 100 100 100 100 100 100 100 100 100 100 100 100 100 100 100 100 100 100 100 100 100 100 100 100 100 100 100 100 100 100 74 97 100 70
100 100 100 100 100 100 100 100 100 100 100 100 100 100 100 100 100 100 100 100 100 100 100 100 100 100 100 100 100 100 100 100 98 82 92 100 100 100 100 100 100 83 79
100 100 100 100 100 100 100 100 100 100 100 100 100 100 100 100 100 100 100 100 100 100 100 100 100 100 100 100 100 100 100 100 100 92 74 62 100 100 100 97 100 100 100
100 100 100 100 100 100 100 100 100 100 100 100 100 100 100 100 100 100 100 100 100 100 100 100 100 100 100 100 100 100 100 100 100 99 30 62 85 49 44 100 100 100 100
100 100 100 100 100 100 100 100 100 100 100 100 100 100 100 100 100 100 100 100 100 100 100 100 100 100 100 100 100 99 99 56 100 100 100 100 46 99 100 100 100 100 100
100 100 100 100 100 100 100 100 100 100 100 100 100 100 100 100 100 100 100 100 82 100 100 100 100 100 92 62 5 92 99 100 82 100 100 52 54 100 100 100 100 100 100

GFSSE_prec_cloud_081.txt.gz
Cloud_Cover
26 28 3 4 13 4 42 5 1 3 5 13 18 85 100 100 100 100 100 100 100 100 100 46 5 7 100 100 100 100 100 78 100 99 100 99 56 98 15 1 99 91 70
30 40 5 8 66 96 4 20 91 1 4 5 5 25 66 100 100 100 100 100 83 98 100 5 35 80 100 85 17 96 100 100 75 100 93 100 96 10 0 2 10 14 25
90 67 17 56 13 7 5 6 2 12 12 5 3 5 45 93 100 100 100 100 73 100 94 100 53 100 100 84 65 98 100 83 70 100 93 62 100 54 5 5 2 0 3
100 77 48 3 14 5 5 5 10 13 31 79 30 6 86 100 100 100 100 91 100 95 59 96 100 100 100 100 100 99 60 100 72 5 73 100 58 45 31 25 0 28 71
95 100 38 87 95 62 96 88 95 69 100 100 100 68 47 78 100 89 100 100 100 47 99 100 100 100 78 30 90 57 98 100 73 4 18 21 100 98 23 19 4 3 14
57 100 100 89 55 6 51 100 100 99 100 100 100 100 23 77 100 100 97 100 100 100 100 100 100 100 99 58 23 16 59 74 5 5 17 28 5 5 32 49 48 8 3
79 100 100 100 100 59 46 67 97 100 100 100 100 100 9 100 100 100 100 100 100 100 100 100 89 100 100 84 82 21 6 5 2 1 2 0 13 80 93 99 60 36 18
100 100 100 100 100 100 100 100 100 100 100 100 100 100 81 97 87 100 100 100 100 100 100 89 100 98 40 48 8 5 5 5 3 88 13 10 63 80 1 17 25 25 0
100 100 100 100 100 100 100 100 100 100 100 100 100 100 100 100 100 100 100 100 100 100 100 100 53 55 87 83 100 80 31 5 68 100 88 61 40 5 5 5 5 4 3
100 100 100 100 100 100 100 100 100 100 100 100 100 100 100 100 100 100 100 100 100 100 100 100 100 98 91 29 100 100 8 69 62 100 34 6 97 5 42 5 5 5 4
100 100 100 100 100 100 100 100 100 100 99 100 100 100 100 100 100 100 100 100 100 100 100 100 100 32 55 51 100 66 21 98 73 96 44 90 60 63 92 74 50 44 96
100 100 100 100 100 100 100 100 100 90 100 100 100 100 100 100 100 100 100 100 100 100 100 100 100 25 61 64 85 54 93 86 99 79 70 84 81 92 73 69 99 100 100
100 100 100 100 100 100 100 100 100 100 100 100 100 100 100 100 100 100 100 100 100 100 100 100 94 58 99 77 43 100 91 97 87 72 98 94 76 100 100 100 100 88 98
100 100 100 100 100 100 100 100 100 100 100 100 100 100 100 100 100 100 100 100 100 100 90 97 92 76 67 99 40 31 98 60 100 83 72 74 100 100 100 100 99 100 100
100 100 100 100 100 100 100 100 100 100 100 100 100 100 100 100 100 100 99 100 100 100 100 100 80 100 97 60 73 62 46 65 95 99 99 100 100 100 100 100 100 100 100
100 100 100 100 100 100 100 100 100 100 100 100 100 100 100 100 100 100 100 100 100 100 100 100 100 93 100 38 63 16 44 53 100 100 100 93 78 100 100 100 100 100 100
100 100 100 100 100 100 100 100 100 100 100 100 100 100 100 100 100 100 100 100 100 100 100 100 99 100 99 77 70 34 41 89 99 100 66 99 100 100 100 100 100 100 100
100 100 100 100 100 100 100 100 100 100 100 100 100 100 100 100 100 100 100 100 100 100 100 100 100 100 100 100 99 76 79 93 98 99 98 100 100 100 100 100 100 100 100
94 100 100 100 100 100 100 100 100 100 100 100 100 100 100 100 100 100 100 100 100 100 100 100 100 100 100 87 96 70 78 97 99 100 100 100 100 100 100 100 100 100 100
100 100 100 100 100 100 100 100 100 100 100 100 100 100 100 100 100 100 100 100 100 100 95 100 100 100 100 98 85 99 95 100 100 96 100 100 100 97 100 100 100 96 95
100 100 100 100 100 100 100 100 100 100 100 100 100 100 100 100 100 100 100 100 100 100 100 100 100 100 100 98 100 100 100 81 100 89 99 75 94 57 99 100 100 96 100
100 100 100 100 100 100 100 100 100 100 100 100 100 100 100 100 100 100 100 100 100 100 100 100 100 100 100 100 100 100 100 100 84 34 32 57 100 100 100 100 100 100 97
100 100 100 100 100 100 100 100 100 100 100 100 100 100 100 100 100 100 100 100 100 100 98 100 100 100 100 98 81 81 69 88 90 93 100 100 100 68 90 55 35 100 100
100 100 100 100 100 100 100 100 100 100 100 100 100 100 100 100 100 100 100 100 100 100 100 100 100 100 100 100 77 84 100 67 94 47 94 88 82 100 85 42 70 100 100
100 100 100 100 100 100 100 100 100 100 100 100 100 100 100 100 100 100 100 100 100 100 100 100 100 100 100 100 88 89 100 81 98 100 86 82 100 14 38 5 97 91 100
100 100 100 100 100 100 100 100 100 100 100 100 100 100 100 100 100 100 100 100 100 100 100 100 100 100 100 100 100 70 50 64 98 100 100 74 98 30 100 17 5 79 100

GFSSE_prec_cloud_084.txt.gz
Cloud_Cover
60 44 0 0 0 0 1 3 3 0 9 8 5 4 5 10 47 94 96 96 100 100 97 100 100 85 100 86 88 55 79 100 100 100 100 69 87 96 28 10 59 100 88
62 100 24 0 4 25 67 0 4 0 12 2 4 5 5 77 95 100 100 100 100 98 100 100 100 100 100 99 100 100 100 100 100 100 75 96 98 99 15 7 100 82 52
21 95 3 0 0 0 1 5 0 0 5 1 5 2 14 82 99 99 98 100 100 100 100 100 100 53 100 100 100 97 100 99 100 93 55 88 100 98 33 66 95 100 20
81 99 72 0 0 0 17 0 0 0 2 3 5 5 5 66 100 100 100 100 100 100 100 41 99 98 100 100 82 88 100 98 94 100 100 100 100 83 26 1 16 11 49
34 89 92 2 76 84 99 94 72 69 64 60 80 39 35 49 58 100 88 100 100 100 98 55 100 76 100 100 100 100 96 19 12 15 7 15 38 65 0 2 2 11 0
4 38 100 0 5 70 99 100 100 100 100 100 100 100 100 100 100 100 100 100 80 63 89 100 100 100 100 100 100 60 9 31 88 14 5 25 2 0 7 4 5 5 0
25 77 70 35 88 98 8 99 99 100 100 100 100 100 100 100 100 100 100 96 100 16 100 100 100 100 100 54 99 81 100 97 31 9 5 0 4 63 90 6 5 7 10
35 62 96 56 100 56 5 76 96 100 100 100 100 100 100 100 99 95 100 98 99 94 100 100 100 100 100 100 95 88 52 34 6 5 4 2 38 5 11 35 41 18 88
90 54 100 63 100 100 8 6 57 47 100 100 100 100 100 100 86 99 100 100 100 100 100 100 100 100 89 10 13 11 57 53 5 5 14 51 6 32 84 83 17 47 39
99 100 100 100 100 100 100 100 100 100 100 100 100 100 100 100 86 88 96 100 100 100 100 100 100 99 100 54 37 8 37 100 13 20 5 64 34 28 100 83 76 100 98
99 100 100 100 100 100 100 100 100 100 100 100 100 100 100 100 100 100 100 100 100 100 100 100 100 100 100 77 87 30 76 32 5 27 32 82 66 67 99 50 64 83 70
93 100 100 100 100 84 100 100 100 100 100 100 100 100 100 100 100 100 100 100 100 100 100 100 100 100 100 90 5 5 37 24 7 34 41 40 56 66 77 100 86 100 97
100 100 100 100 100 100 100 100 100 100 100 100 100 100 100 100 100 100 100 100 100 100 100 100 99 100 100 100 11 5 37 5 85 94 97 92 100 99 99 100 100 98 48
98 97 100 100 100 100 100 100 100 100 98 100 100 100 100 100 100 100 100 100 100 100 100 100 94 36 100 100 89 15 68 69 31 100 100 88 96 100 100 82 76 87 76
88 99 100 100 100 100 100 100 100 100 87 100 100 100 100 100 100 100 100 100 100 100 100 100 100 82 51 60 11 83 100 100 100 100 100 100 100 52 92 88 100 100 100
58 87 100 100 100 100 100 100 100 100 100 100 100 100 100 100 100 100 100 100 100 100 100 100 100 95 100 96 100 75 30 34 100 100 100 100 100 100 100 100 91 85 100
42 94 100 100 100 100 100 100 100 100 100 100 100 100 100 100 100 100 100 100 100 100 100 100 100 85 100 100 26 95 98 100 100 100 95 100 79 76 100 100 96 100 100
51 78 100 100 100 100 100 100 100 100 100 100 100 100 100 100 100 100 100 100 100 100 100 100 100 100 100 100 96 40 88 76 77 83 100 72 72 91 100 100 100 100 100
43 80 100 100 100 100 100 100 100 100 100 100 100 100 100 100 100 100 100 100 100 100 100 100 100 100 100 100 92 59 63 94 96 70 80 58 90 100 100 100 100 100 100
66 96 100 100 100 100 100 100 100 100 100 100 100 100 100 100 100 100 100 100 100 100 100 100 100 100 100 95 74 87 99 90 92 37 78 100 100 96 100 100 100 100 100
83 83 100 100 100 100 100 100 100 100 100 100 100 100 100 100 100 100 100 100 100 100 100 100 100 100 100 93 99 100 92 65 87 100 100 100 100 93 100 84 92 100 100
65 87 100 98 99 100 100 100 100 100 100 100 100 100 100 100 100 100 100 100 100 100 100 100 100 100 100 93 93 98 100 100 100 100 98 100 99 87 33 84 100 100 100
84 58 100 100 100 100 100 100 100 100 100 100 100 100 100 100 100 100 100 100 100 100 98 100 100 100 100 100 100 100 100 100 92 52 52 53 96 100 100 100 100 100 100
93 74 100 100 100 100 100 100 100 100 100 100 100 100 100 100 100 100 100 95 100 100 100 100 100 100 100 100 100 100 94 95 100 100 100 100 97 100 100 100 100 37 60
95 100 100 100 100 100 100 100 100 100 100 100 100 100 100 100 100 100 100 100 100 100 100 100 100 100 100 100 100 100 100 100 99 100 100 100 100 100 89 58 68 18 59
83 100 100 100 100 100 100 100 100 100 100 100 100 100 100 100 100 100 100 100 100 100 100 100 100 100 100 100 85 99 95 100 100 98 100 100 100 99 78 83 96 81 35

GFSSE_prec_cloud_090.txt.gz
Cloud_Cover
4 1 0 0 0 0 0 48 90 94 75 2 0 0 0 1 0 0 0 0 0 1 5 0 5 79 99 100 100 4 2 4 5 42 100 81 69 92 80 99 100 100 100
0 0 0 0 0 0 0 63 60 88 63 5 0 0 0 0 4 4 1 0 0 3 4 5 5 74 80 100 100 89 52 87 100 86 24 90 100 100 100 100 100 100 99
0 0 0 0 0 0 10 97 39 15 1 3 2 0 0 4 5 3 5 5 5 5 7 15 64 21 100 100 100 100 83 99 100 98 100 100 100 100 100 100 100 98 80
0 0 6 0 0 0 0 0 0 0 34 37 0 0 2 51 63 15 5 55 20 32 25 52 100 100 99 100 100 100 96 100 100 100 100 100 100 100 100 100 100 100 100
0 0 0 0 0 0 0 3 0 0 0 7 88 98 97 100 100 100 100 67 42 40 79 60 100 100 98 100 100 100 100 100 100 100 100 100 100 100 100 100 83 59 91
0 0 18 0 0 0 0 0 0 6 14 97 100 100 100 100 100 100 100 91 70 100 100 100 92 100 100 100 100 100 100 100 100 100 100 100 96 100 100 68 12 29 6
0 0 0 0 0 0 0 0 0 19 83 99 100 100 100 100 100 100 100 100 78 100 100 100 100 100 99 100 100 100 100 100 94 100 92 81 100 100 100 100 100 100 79
0 0 0 27 80 0 0 0 0 0 5 100 100 100 100 100 100 100 100 100 100 100 100 100 100 100 100 100 100 100 90 93 100 94 99 87 100 100 100 100 100 98 27
0 0 3 82 92 96 0 46 64 59 8 100 100 100 100 100 100 100 100 100 100 100 100 100 100 100 100 100 100 100 100 100 100 100 43 98 100 100 85 51 7 21 5
0 0 9 30 100 52 100 96 5 100 78 100 100 100 100 100 100 100 100 100 93 100 100 100 100 100 100 100 100 100 100 100 97 83 10 95 70 46 100 65 9 98 36
0 1 76 100 100 96 73 22 25 100 62 100 100 100 100 100 100 100 100 100 100 100 100 100 100 100 38 100 97 100 100 100 100 17 2 96 100 83 100 87 16 14 17
0 0 74 100 100 81 100 70 86 92 100 100 100 100 100 100 100 100 100 100 100 87 100 100 97 100 99 95 100 100 100 100 7 58 5 100 86 43 21 5 32 27 96
0 0 1 94 100 100 71 79 91 100 100 100 100 100 100 100 100 100 100 100 100 98 100 100 100 87 96 100 84 100 100 54 20 10 5 84 86 23 6 89 100 71 11
0 0 26 100 99 80 96 96 80 100 100 100 100 100 100 100 100 100 100 100 100 100 100 99 99 97 100 100 100 100 100 70 73 95 58 96 98 87 100 100 100 100 100
0 0 6 98 100 100 80 48 100 100 100 100 100 100 100 100 100 100 100 100 100 100 100 99 100 96 100 100 100 100 100 100 100 100 100 77 84 89 100 100 100 99 78
0 0 0 100 96 100 68 98 100 100 100 100 100 100 100 100 100 100 100 100 100 100 100 100 100 100 100 100 100 100 100 100 100 100 100 91 100 100 100 100 100 24 75
0 0 0 100 100 100 100 43 100 100 100 100 100 100 100 100 100 100 100 100 100 100 100 100 100 100 100 100 100 100 100 100 93 100 100 98 61 100 100 100 95 100 100
0 0 0 100 100 91 100 100 98 100 100 100 100 100 100 100 100 100 100 100 100 100 100 100 100 100 100 100 100 100 100 100 100 96 100 100 99 98 93 100 100 98 100
0 0 0 100 100 53 100 100 100 100 100 100 100 100 100 100 100 100 100 100 100 100 100 100 100 100 100 100 100 100 100 100 100 100 100 100 100 95 96 67 92 94 32
0 0 17 100 98 80 100 100 100 100 100 100 100 100 100 100 100 100 100 100 100 100 100 100 100 100 100 100 100 100 100 90 92 83 98 100 99 62 83 69 14 20 75
0 0 81 100 98 97 100 100 100 100 100 100 100 100 100 100 100 100 100 100 100 100 100 100 100 100 100 100 100 100 100 85 69 95 87 100 91 54 100 36 98 100 100
0 0 91 98 91 100 100 100 100 100 100 100 100 100 100 100 100 100 100 100 100 100 100 100 100 100 100 100 94 99 99 85 82 84 100 100 100 100 96 100 100 100 100
2 4 98 100 99 100 100 100 100 100 100 100 100 100 100 100 100 100 100 100 100 100 100 100 100 100 100 100 91 100 100 90 100 100 100 100 100 100 100 100 100 100 100
31 32 100 100 99 94 100 100 100 13 100 100 100 100 100 100 100 100 100 100 100 100 100 100 100 100 100 99 100 100 100 99 100 100 100 100 100 100 100 100 100 100 100
20 100 100 100 100 100 100 100 100 100 100 100 100 100 100 97 100 100 100 100 100 100 100 100 100 100 100 100 100 100 100 100 100 100 100 100 100 100 100 100 100 100 100
4 26 100 100 100 100 100 100 100 100 100 100 100 100 100 100 100 100 100 100 100 100 100 100 100 100 100 100 100 100 100 100 100 100 100 100 100 100 100 100 100 100 100

GFSSE_prec_cloud_093.txt.gz
Cloud_Cover
0 0 0 0 0 0 0 12 85 0 50 79 5 5 4 0 2 0 0 0 0 0 3 14 0 99 100 82 19 45 3 0 0 12 0 55 64 64 41 5 5 74 49
0 0 0 0 0 0 0 0 40 49 53 72 2 5 5 5 0 4 3 0 0 0 3 67 57 100 78 97 98 100 100 99 37 3 64 100 100 91 93 71 100 89 100
0 0 0 0 0 0 0 0 0 100 60 4 80 22 2 0 0 5 5 5 0 0 0 71 98 88 84 100 100 100 83 58 51 50 100 100 96 100 100 100 100 100 100
0 0 0 0 0 0 0 0 0 19 32 7 20 58 23 7 5 17 4 5 5 5 5 91 100 57 96 100 100 84 97 100 100 100 95 100 100 100 100 100 100 100 99
0 0 0 0 0 0 0 0 0 35 42 75 11 40 84 99 100 100 89 100 100 100 100 99 100 16 97 18 9 100 100 84 100 100 95 100 100 100 100 100 100 100 100
0 0 0 0 0 0 0 0 0 0 1 6 2 97 100 100 100 100 100 100 100 100 100 100 90 28 83 21 97 100 100 100 100 100 100 100 100 100 100 100 100 56 100
0 2 0 0 0 0 0 10 0 0 24 44 62 100 100 100 100 100 100 100 100 100 100 100 96 10 54 93 73 89 100 100 100 100 100 100 100 100 100 100 100 100 100
0 0 1 0 44 0 0 0 0 0 16 80 18 100 100 100 100 100 100 100 100 100 74 99 99 68 72 5 100 100 100 100 100 100 100 100 100 100 100 86 100 100 34
0 0 0 0 100 97 0 0 0 5 2 0 3 96 100 100 100 100 100 100 100 100 98 100 100 70 90 98 78 100 100 100 100 100 100 100 100 100 100 100 100 100 100
0 0 0 1 100 62 1 0 1 7 18 77 23 100 100 100 100 100 100 100 100 100 100 100 99 76 94 100 100 100 100 100 100 100 100 100 68 100 47 5 5 5 71
0 0 0 10 100 100 79 99 51 5 5 60 94 100 100 100 100 100 100 100 100 100 100 99 99 96 100 100 100 100 100 100 100 100 100 100 100 49 43 90 18 50 26
0 0 0 8 100 87 44 31 32 27 95 79 94 100 100 100 100 100 100 100 100 100 100 37 100 79 100 100 100 100 100 100 100 100 100 100 100 37 34 41 5 88 94
0 0 0 0 85 100 87 96 58 45 100 100 100 100 100 100 100 100 100 100 100 100 100 95 35 100 84 100 99 100 100 100 100 100 100 100 38 99 98 80 100 100 82
0 0 0 0 0 80 100 100 100 89 100 100 100 100 100 100 100 100 100 100 100 100 100 78 97 9 67 100 98 100 81 94 100 100 100 100 91 100 100 100 99 100 100
0 0 0 0 92 99 100 91 88 61 100 100 100 100 100 100 100 100 100 100 100 100 100 100 32 99 100 94 65 100 100 100 100 88 72 99 100 100 100 100 100 100 100
0 0 0 0 49 100 70 92 89 100 100 100 100 100 100 100 100 100 100 100 100 100 100 100 100 100 100 79 100 100 100 100 96 100 98 100 100 100 100 100 100 100 100
0 0 1 6 0 84 35 22 25 25 100 100 100 100 100 100 100 100 100 100 100 100 100 100 100 100 100 93 100 100 100 100 100 100 100 100 100 100 100 100 100 100 100
0 0 0 0 22 99 81 18 45 100 86 100 100 100 100 100 100 100 100 100 100 100 100 100 100 100 100 100 100 100 100 100 100 100 100 100 85 98 100 100 35 93 100
0 0 0 0 34 100 100 78 57 100 100 100 100 100 100 100 100 100 100 100 100 100 100 100 100 100 100 100 100 100 100 100 100 100 100 100 100 100 100 98 75 98 100
0 0 0 0 48 100 100 92 100 100 100 100 100 100 100 100 100 100 100 100 100 100 100 100 100 100 100 100 100 100 93 100 100 100 100 96 100 100 98 72 68 55 95
0 0 0 0 91 97 100 100 100 100 100 100 100 100 100 100 100 100 100 100 100 100 100 100 100 100 100 100 100 100 100 100 100 100 100 100 100 100 100 59 100 100 100
14 0 0 1 99 100 100 100 100 100 100 100 100 100 100 100 100 100 100 100 100 100 100 100 100 100 100 100 100 100 100 100 100 100 100 100 100 90 93 100 100 100 100
24 5 1 0 94 100 100 100 100 100 100 100 100 100 100 100 100 100 100 100 100 100 100 100 100 100 100 100 100 100 100 100 99 100 100 100 100 100 100 100 97 96 74
40 0 0 0 100 100 100 100 96 99 100 100 100 100 100 100 100 100 100 100 100 100 100 100 100 100 100 100 100 100 100 100 99 100 100 100 100 100 100 100 100 100 100
3 3 0 1 100 100 100 100 100 100 100 100 100 100 100 100 100 100 100 100 100 100 100 100 100 100 100 100 100 100 100 100 100 100 100 100 100 100 100 100 100 100 100
3 0 0 10 100 100 98 99 13 45 68 100 100 100 100 100 100 100 100 100 100 100 100 100 100 100 100 100 100 100 100 100 100 100 100 100 100 100 100 100 100 100 100

GFSSE_prec_cloud_096.txt.gz
Cloud_Cover
4 32 0 0 0 0 0 0 0 0 0 0 6 5 5 5 4 0 5 0 0 0 49 4 3 0 12 99 1 1 5 3 2 14 17 52 80 67 26 0 1 5 2
0 1 0 0 0 0 0 0 0 0 0 5 44 96 5 5 5 1 0 0 0 30 100 7 2 12 100 39 2 65 6 5 5 6 36 100 100 99 31 2 12 78 100
0 0 0 0 0 0 0 0 0 0 2 100 68 9 5 5 5 5 5 2 5 40 100 100 42 100 100 16 5 93 24 5 38 100 100 100 99 75 92 100 100 99 54
0 0 0 0 0 0 0 0 10 39 0 3 6 67 1 3 4 2 3 5 5 5 54 48 95 100 79 5 5 5 19 99 100 100 100 100 100 100 100 100 100 98 100
0 0 0 0 0 0 0 0 0 2 52 9 35 99 33 5 5 4 32 25 20 5 6 100 100 98 90 8 5 31 97 98 97 26 97 100 100 100 100 100 100 100 100
0 0 0 0 0 0 0 0 0 0 0 18 46 26 68 99 91 98 100 100 100 100 100 100 100 100 100 100 99 100 75 5 22 100 100 100 100 100 100 100 100 100 100
6 0 0 0 0 0 17 1 0 0 29 0 0 56 100 100 100 100 100 100 100 100 100 100 88 100 100 100 100 100 6 24 100 100 100 100 100 100 100 100 100 100 100
22 20 4 0 17 0 0 1 21 60 36 86 19 39 100 100 100 100 100 100 100 100 96 97 100 100 100 81 98 96 5 98 100 100 100 100 100 100 100 100 100 100 92
14 27 28 14 80 99 0 0 3 37 97 100 99 4 100 100 100 100 100 100 100 100 100 98 99 18 98 74 100 99 7 70 100 100 100 89 100 100 100 100 100 100 100
0 2 18 0 0 78 97 4 30 33 100 77 100 92 4 10 100 100 100 100 100 100 100 100 100 100 94 100 40 95 70 100 100 100 100 68 100 100 100 100 100 100 100
0 1 11 8 0 1 22 40 100 71 58 100 100 66 83 6 100 100 100 100 100 100 100 100 100 100 72 100 83 100 100 100 100 82 100 100 100 100 100 14 97 100 93
0 0 0 17 0 11 13 62 100 100 100 100 95 91 97 30 100 100 100 100 100 100 100 100 100 100 100 100 98 82 99 100 100 100 47 100 100 100 100 100 100 100 95
0 0 0 1 8 26 31 29 84 100 100 63 100 88 32 91 100 100 100 100 100 100 100 100 100 98 96 100 96 100 100 100 100 97 65 100 100 100 100 100 85 100 98
0 0 0 0 14 18 25 25 42 100 64 74 100 92 100 88 100 100 100 100 100 100 100 100 100 100 46 99 100 96 100 100 100 100 100 99 100 100 64 99 98 100 100
5 1 0 0 12 20 34 33 39 85 100 98 100 100 100 100 100 100 100 100 100 100 100 100 97 57 85 99 77 67 99 100 100 100 90 100 100 100 100 100 100 100 100
4 10 10 3 0 3 28 22 36 77 57 100 100 100 100 100 100 100 100 100 100 100 100 100 100 100 77 100 46 66 99 77 97 100 98 98 100 74 100 100 100 100 100
16 3 18 16 2 29 28 24 83 56 100 100 100 100 100 100 100 100 100 100 100 100 100 100 100 100 100 100 100 39 67 95 99 100 100 100 60 100 100 100 100 100 100
5 14 23 28 34 25 27 34 49 100 100 100 100 100 100 100 100 100 100 100 100 100 100 100 100 100 100 100 100 100 94 100 100 100 100 100 100 100 100 100 100 100 100
1 31 38 13 6 11 15 64 59 80 94 100 100 100 100 100 100 100 100 100 100 100 100 100 100 100 100 100 100 100 100 100 100 100 100 100 100 100 100 100 100 100 100
1 0 0 0 24 33 54 89 100 100 100 100 100 100 100 100 100 100 100 100 100 100 100 100 100 100 100 100 100 100 100 100 100 100 100 97 100 100 100 100 100 100 78
28 22 4 34 100 86 100 100 100 100 100 100 100 100 100 100 100 100 100 100 100 100 100 100 100 100 100 100 100 100 100 100 100 100 100 100 100 100 100 100 100 98 96
46 27 30 65 100 96 88 92 100 100 100 100 100 100 100 100 100 100 100 100 100 100 100 100 100 100 100 100 100 100 100 82 96 100 100 100 100 100 100 100 100 96 98
50 47 40 71 89 60 98 44 100 100 100 100 100 100 100 100 100 100 100 100 100 100 100 100 100 100 100 100 100 100 100 100 100 98 100 100 100 100 100 100 98 100 100
52 27 31 68 78 91 85 75 94 100 100 100 100 100 100 100 100 100 100 100 100 100 100 100 100 100 100 100 100 100 100 100 100 100 100 100 100 100 100 100 100 100 100
52 38 38 90 100 100 51 87 100 100 100 100 100 100 100 100 100 100 100 100 100 100 100 100 100 100 100 100 100 100 100 100 100 100 100 100 100 100 100 100 100 100 100
57 36 37 100 100 100 33 46 100 100 100 100 100 100 100 100 100 100 100 100 100 100 100 100 100 100 100 100 100 100 100 100 100 100 100 100 100 100 100 100 100 100 100

GFSSE_prec_cloud_099.txt.gz
Cloud_Cover
20 44 0 2 1 0 0 7 0 0 20 90 32 11 0 5 4 5 2 0 0 0 0 0 5 0 4 29 10 0 0 26 60 20 3 54 82 83 56 28 0 0 1
5 69 0 0 0 0 0 0 0 0 24 89 58 57 5 3 4 4 5 0 0 0 12 1 2 5 14 27 0 0 0 14 5 5 11 21 100 100 60 22 0 5 42
9 72 14 0 0 0 0 0 1 0 4 78 32 6 5 15 5 4 3 0 0 21 66 3 0 0 31 12 2 5 5 8 11 6 30 96 100 100 98 100 100 100 100
2 54 38 0 0 0 0 0 24 99 100 98 0 36 6 15 3 5 5 0 0 93 100 12 0 32 67 5 5 86 82 73 100 88 89 87 100 99 100 100 96 100 100
0 5 49 0 0 0 0 0 0 0 58 100 4 0 1 1 94 5 4 5 0 0 78 10 5 88 4 10 5 33 71 99 100 82 95 90 96 100 100 47 100 100 100
0 0 0 4 0 0 0 0 0 0 0 1 40 96 5 16 7 98 18 45 56 5 7 97 91 41 78 100 100 90 63 6 74 100 92 100 94 90 100 100 100 96 100
0 0 0 0 11 0 0 0 0 44 55 4 0 35 22 28 83 100 62 72 65 100 100 100 100 100 100 100 100 74 100 91 22 100 100 76 76 91 100 100 100 100 100
7 2 0 0 0 38 8 0 0 89 35 9 0 0 0 1 9 100 65 100 100 100 100 100 100 100 100 100 96 87 100 36 15 94 92 88 100 100 100 100 100 100 100
24 19 18 5 0 8 16 5 1 100 98 100 90 13 0 0 5 27 12 100 100 100 100 100 100 100 100 96 99 86 97 82 98 100 100 100 100 100 100 100 100 100 100
53 41 44 33 1 23 88 25 55 92 100 100 100 100 91 40 16 85 34 100 100 99 100 100 100 100 100 97 93 95 62 5 97 6 100 100 100 100 100 100 100 100 100
65 49 30 7 0 0 61 78 28 100 79 90 89 100 100 97 94 91 85 100 100 100 100 100 100 100 100 100 100 5 33 27 57 55 100 100 100 100 100 100 100 100 100
42 48 24 9 1 7 42 53 85 100 100 96 90 100 100 100 46 54 61 100 100 100 100 100 100 100 100 100 99 63 100 78 70 100 97 100 100 100 100 100 100 100 92
0 10 33 14 10 21 67 97 58 100 100 100 82 100 100 90 92 45 68 100 100 100 100 100 100 100 100 90 88 73 100 32 75 100 100 100 85 60 100 100 100 100 100
6 0 0 16 27 29 43 70 99 54 100 100 100 100 100 100 100 94 95 100 100 100 100 100 100 100 100 96 100 100 100 100 91 100 96 100 100 100 100 100 100 100 100
43 0 2 22 36 51 41 52 100 95 88 69 86 59 100 92 100 100 100 100 100 100 100 100 100 100 100 97 76 100 100 100 100 100 90 100 98 100 98 100 100 100 100
97 33 12 17 36 54 69 50 100 100 100 99 96 86 83 100 100 100 100 100 100 100 100 100 100 100 98 100 80 98 100 100 100 100 100 99 99 100 92 98 100 100 100
37 96 12 6 19 35 75 42 58 98 100 100 100 100 68 100 100 100 100 100 100 100 100 100 100 100 100 100 99 97 35 49 100 86 98 99 100 100 75 100 91 100 100
58 55 9 1 10 25 45 56 59 83 95 100 100 100 100 100 100 100 100 100 100 100 100 100 100 100 100 100 100 52 100 72 82 98 89 100 100 100 100 60 100 100 100
41 16 30 28 17 19 33 44 51 46 100 90 89 100 100 100 100 100 100 100 100 100 100 100 100 100 100 100 100 100 80 100 94 100 100 100 100 100 100 100 100 100 100
24 94 25 58 44 44 70 69 60 95 100 100 100 100 100 100 100 100 100 100 100 100 100 100 100 100 100 100 100 85 90 98 34 100 100 100 100 100 100 100 100 100 100
36 100 53 63 92 100 100 100 100 100 100 100 100 100 100 100 100 100 100 100 100 100 100 100 100 100 100 100 100 100 100 100 100 100 100 100 100 100 100 100 100 100 100
71 100 51 38 100 100 100 100 94 96 98 100 100 100 100 100 100 100 100 100 100 100 100 100 100 100 100 100 100 100 100 100 100 100 96 100 100 100 100 100 100 99 100
92 91 57 71 100 100 79 72 91 92 100 100 100 100 100 100 100 100 100 100 100 100 100 100 100 100 100 100 100 100 100 100 100 100 100 100 100 100 91 91 99 83 78
84 90 68 100 100 100 62 100 100 100 100 100 100 100 100 100 100 100 100 100 100 100 100 100 100 100 100 100 100 100 100 100 100 100 100 100 100 100 100 95 91 98 83
99 93 100 100 100 100 47 72 42 92 91 100 99 100 100 98 100 100 100 100 100 100 100 100 100 100 100 100 100 100 100 100 100 100 100 100 100 100 93 92 100 100 100
100 100 100 100 91 63 88 40 2 50 100 82 100 100 100 100 100 100 100 100 100 100 100 100 100 100 100 100 100 100 100 100 100 100 100 100 100 100 100 100 100 100 100

GFSSE_prec_cloud_102.txt.gz
Cloud_Cover
0 29 0 94 51 57 0 0 0 23 8 10 0 10 95 6 2 0 5 2 0 0 0 0 0 2 5 11 5 0 0 45 45 0 1 90 100 99 69 6 6 5 5
0 26 0 33 0 8 0 0 0 4 8 8 93 100 95 14 90 1 4 0 0 0 0 0 0 0 28 13 5 2 18 10 0 0 0 99 100 100 50 64 89 1 0
4 20 13 45 2 0 0 0 0 0 16 34 78 5 24 100 5 5 1 3 0 0 0 2 0 4 98 4 5 5 0 4 2 12 3 89 100 99 30 38 100 100 100
29 98 47 11 0 0 0 0 0 0 33 52 46 22 39 8 43 5 55 5 5 0 0 0 0 31 44 0 5 5 15 68 53 100 97 100 61 74 58 95 64 100 98
46 100 50 8 0 0 0 0 0 0 3 36 85 88 18 7 34 74 19 19 23 13 0 1 20 30 7 10 6 90 74 100 99 100 100 100 100 99 70 91 78 45 100
26 80 91 2 0 2 1 8 2 1 0 0 0 5 50 20 23 4 29 96 69 40 81 2 5 0 35 16 5 21 100 89 100 99 59 97 98 100 97 96 70 100 100
7 13 32 5 0 0 0 0 4 10 0 0 0 0 49 16 100 12 16 99 100 98 100 100 20 26 95 100 93 100 100 81 81 47 100 81 83 100 96 100 100 100 100
2 1 9 29 6 2 0 0 35 66 34 4 0 0 14 92 91 72 98 100 100 100 98 100 100 100 100 100 100 100 100 70 100 100 74 99 100 100 100 100 100 100 100
2 5 12 18 45 27 0 0 18 93 18 0 1 0 0 0 0 7 32 78 39 6 100 100 100 100 100 100 100 100 100 100 100 100 51 100 65 100 100 100 100 100 100
42 10 16 13 20 55 49 4 46 100 99 25 38 0 1 4 1 0 0 0 12 10 100 100 100 100 100 50 54 99 99 100 100 64 100 75 30 100 100 100 98 100 80
99 76 36 33 28 23 22 64 99 99 100 100 63 22 50 95 83 53 59 63 68 100 100 100 100 100 100 100 76 91 100 96 100 8 38 99 100 100 99 100 100 100 100
100 100 89 48 21 10 25 67 80 100 100 78 95 100 100 98 80 100 100 100 41 100 100 100 100 100 100 100 92 95 80 68 13 5 5 99 100 100 100 100 100 100 100
100 100 89 27 4 8 81 42 100 100 100 100 98 98 100 100 100 100 96 16 78 100 100 100 100 100 100 100 100 100 100 46 43 5 79 100 100 100 100 100 100 100 100
3 25 43 26 20 22 100 100 100 100 100 92 100 68 99 57 100 100 99 55 98 100 100 100 100 100 100 99 100 82 91 45 5 90 98 100 100 100 100 100 100 100 100
2 0 20 38 20 30 94 100 100 100 98 74 54 79 100 100 100 90 98 99 91 100 100 100 100 100 100 90 100 69 96 96 100 94 100 100 100 100 100 100 100 100 100
5 2 0 32 30 66 66 100 100 93 94 94 90 79 100 100 97 100 100 100 100 100 100 100 100 100 100 100 100 100 100 99 98 100 100 100 100 100 100 100 97 43 94
19 0 0 10 37 90 98 100 100 100 100 86 79 59 61 58 95 100 100 100 100 100 100 100 100 100 100 100 100 100 56 90 84 97 100 100 100 100 100 100 98 100 94
66 0 0 0 74 89 100 100 100 100 100 100 100 86 100 67 46 100 100 100 100 100 100 100 100 100 100 100 100 100 94 97 100 100 100 100 100 97 94 98 100 100 100
93 5 8 12 65 73 92 100 100 100 100 100 100 100 100 100 92 100 100 100 100 100 100 100 100 100 100 100 100 94 97 100 100 29 9 34 46 100 100 100 100 100 100
100 11 7 28 98 62 69 100 100 100 100 100 100 100 100 100 94 100 100 100 100 100 100 100 100 100 100 100 100 100 100 100 81 85 76 79 29 99 100 100 99 100 100
99 45 26 52 99 47 100 100 100 100 100 100 100 100 88 100 100 100 100 100 100 100 100 100 100 100 100 60 100 98 100 100 71 100 100 100 100 100 100 100 100 100 100
100 85 69 86 100 44 100 100 100 97 100 100 100 100 100 100 100 100 100 100 100 100 100 100 100 100 100 100 100 94 99 100 99 100 96 100 100 100 92 100 100 93 97
100 86 100 88 100 86 63 86 100 100 100 100 100 100 100 100 100 100 100 100 100 100 100 100 100 100 100 100 100 100 100 100 100 100 100 100 100 100 88 100 100 97 98
99 99 100 78 99 90 98 100 100 100 74 85 95 100 100 89 100 100 100 100 100 100 100 100 100 100 100 100 100 100 100 100 100 100 100 100 90 86 79 100 99 100 100
100 99 100 79 100 97 100 100 100 99 60 100 100 100 100 100 100 100 100 100 100 100 100 100 100 100 100 100 100 100 100 100 100 100 100 100 100 100 100 100 100 100 100
99 88 100 100 100 100 100 100 100 90 80 88 100 100 100 96 98 100 100 100 100 100 100 100 100 100 100 100 100 100 100 100 100 100 100 100 100 100 100 100 100 100 100

GFSSE_prec_cloud_108.txt.gz
Cloud_Cover
0 0 0 0 0 0 0 0 0 0 0 0 0 0 5 0 30 25 3 2 3 0 1 8 0 0 9 9 0 0 4 5 5 1 0 90 25 17 0 0 4 43 0
0 0 0 36 0 0 0 0 0 0 0 0 0 0 2 3 1 1 14 13 1 50 4 0 0 0 2 0 5 0 0 0 0 0 0 22 98 6 0 7 69 14 0
0 0 1 94 0 0 2 13 0 0 0 0 0 2 5 31 21 0 6 49 6 9 5 5 5 5 5 0 5 5 4 2 2 0 0 65 62 30 0 0 0 0 4
0 0 0 80 0 0 0 2 0 0 0 0 1 0 4 0 33 11 14 17 5 0 5 5 5 7 5 5 4 2 5 5 5 5 68 100 67 8 7 4 5 5 5
0 0 0 46 0 0 0 0 0 0 0 0 2 6 1 2 16 55 69 5 1 4 6 4 1 0 5 5 5 5 4 5 5 4 100 48 44 20 5 5 6 8 23
0 0 42 90 0 0 0 0 0 1 4 10 0 7 0 0 1 4 54 63 15 4 47 99 35 22 0 4 5 5 5 5 92 26 95 41 100 16 12 5 5 5 3
0 0 2 11 0 0 0 0 0 0 12 18 31 1 0 0 0 0 19 2 38 46 12 100 100 99 97 1 4 5 5 28 80 100 100 100 100 100 46 15 5 98 29
0 0 0 36 0 0 0 0 0 0 5 12 0 0 0 0 0 28 93 57 74 36 4 91 100 62 99 58 6 5 5 56 66 54 100 100 27 96 80 20 5 5 56
0 0 0 5 29 36 0 0 0 0 0 1 7 18 0 0 0 0 19 53 83 90 0 46 100 95 100 100 94 54 5 5 100 100 100 31 94 72 94 100 67 37 73
0 0 0 0 10 93 44 13 0 0 0 5 41 60 0 4 0 0 5 2 0 0 4 2 49 100 100 100 92 63 90 13 74 100 100 100 48 56 99 100 10 77 7
0 0 0 0 12 95 100 70 53 10 5 9 11 8 68 2 4 12 20 3 0 0 1 2 43 91 100 100 83 100 100 100 100 100 100 100 100 100 100 17 28 69 99
0 0 0 0 3 5 6 41 79 72 95 44 54 31 0 7 51 73 5 10 0 0 2 4 76 100 100 100 100 100 100 100 97 100 100 100 100 100 100 16 92 100 100
0 0 0 0 0 1 5 0 51 100 54 43 43 73 80 55 35 0 1 39 44 85 21 22 91 100 100 100 100 100 100 100 100 100 100 100 100 76 70 64 89 71 100
2 0 0 1 0 0 2 0 4 99 96 87 65 44 47 72 83 48 15 30 26 26 54 98 100 100 100 100 100 100 100 100 100 100 100 100 100 100 99 100 94 98 100
5 4 0 47 2 2 10 0 0 12 92 100 100 89 56 69 100 73 60 97 100 21 71 8 100 100 100 100 100 100 100 100 100 100 100 100 100 84 50 85 99 100 100
1 3 3 5 44 5 15 84 4 0 4 100 95 75 97 75 19 84 89 20 14 60 78 69 82 100 100 100 100 100 100 100 100 100 84 74 81 100 98 100 91 100 100
2 4 5 5 5 20 17 44 4 0 20 98 78 97 100 100 66 74 90 37 100 34 99 86 100 100 100 100 100 100 100 100 100 98 89 100 98 100 100 84 99 100 100
5 7 7 71 88 7 75 8 6 31 66 69 79 100 100 100 98 61 58 77 74 100 100 97 100 100 100 100 100 100 100 100 100 100 100 100 99 95 99 100 100 100 100
61 100 100 100 100 5 14 18 58 84 99 98 98 92 83 100 100 100 96 97 98 100 100 100 100 100 100 100 100 100 100 100 100 100 67 98 100 100 83 100 100 100 100
18 97 100 100 95 5 38 71 100 100 100 94 79 53 98 97 97 100 85 82 100 100 100 100 100 100 100 100 100 100 100 100 100 100 75 100 92 78 100 100 100 100 100
5 5 56 100 100 3 91 100 100 100 100 100 95 74 71 89 74 100 100 100 100 100 100 100 100 100 100 100 100 100 100 100 100 92 100 86 100 100 100 100 100 100 100
5 5 44 100 100 21 100 100 69 100 100 100 81 100 64 73 70 97 100 100 100 100 100 100 100 100 100 100 100 100 100 100 100 100 100 100 100 93 100 100 100 100 100
18 7 5 17 56 83 5 100 100 100 100 100 100 96 100 78 90 100 100 100 100 100 100 100 100 100 100 100 100 100 100 100 100 99 84 71 100 100 100 100 100 100 100
14 5 5 2 84 62 6 95 100 75 77 46 86 81 100 100 100 100 100 100 100 100 100 100 100 100 100 100 100 100 100 100 100 100 100 75 80 100 100 100 100 97 100
12 3 0 7 100 71 22 100 100 94 5 11 42 100 74 100 100 100 100 100 100 100 100 100 100 100 100 100 100 100 100 100 100 100 100 100 100 99 80 100 96 98 99
9 4 0 11 100 100 100 100 94 93 9 15 50 88 91 100 100 100 100 100 100 100 100 100 100 100 100 100 100 100 100 100 100 100 100 100 100 92 100 100 95 57 96

GFSSE_prec_cloud_111.txt.gz
Cloud_Cover
0 0 0 0 0 0 0 0 0 0 0 0 0 0 0 0 1 4 0 4 0 0 0 5 0 0 6 0 0 0 2 5 5 16 6 10 2 0 0 0 1 26 2
0 0 6 0 0 0 0 0 0 0 0 0 0 0 0 0 5 6 5 4 0 29 50 10 0 6 16 0 4 0 0 3 5 5 0 3 3 0 0 0 84 26 0
0 0 1 0 0 0 0 0 0 0 2 0 0 0 0 5 1 5 1 12 14 54 5 3 5 1 7 0 2 5 3 0 0 0 0 85 67 9 0 0 0 0 6
0 0 0 0 0 0 0 0 0 0 1 0 0 4 2 0 1 5 3 4 34 8 2 0 2 7 0 4 2 4 5 5 0 0 31 94 67 14 0 0 2 8 8
0 0 0 0 0 0 0 0 0 0 0 0 0 0 0 0 0 0 5 11 28 1 5 5 8 0 0 0 5 5 5 5 4 27 21 92 35 21 2 3 22 34 5
0 0 40 0 0 0 0 0 0 0 0 0 0 0 0 0 0 0 4 4 5 98 9 31 96 58 79 7 0 5 5 5 5 94 45 99 72 6 2 5 5 5 5
0 0 0 0 0 0 0 0 2 22 6 8 12 28 2 0 0 0 0 0 1 0 95 7 12 61 100 99 93 31 5 5 39 100 3 95 44 39 13 6 56 14 6
0 0 0 14 0 0 0 0 0 18 31 45 12 56 0 0 0 0 0 0 71 100 38 3 5 18 97 100 70 58 100 6 10 5 17 24 95 97 100 100 56 5 5
0 0 0 0 1 39 0 0 0 0 19 38 47 21 0 12 86 43 4 14 0 12 33 11 5 18 100 100 100 100 100 8 69 93 12 89 100 100 98 53 5 2 83
0 0 0 0 0 0 1 6 0 0 0 4 11 2 0 6 6 7 100 96 24 4 2 4 3 37 100 100 100 100 100 92 47 99 100 39 5 55 64 34 28 100 100
0 5 5 0 0 0 0 3 54 26 1 10 21 87 67 1 4 0 39 20 6 3 1 5 4 3 34 100 100 100 100 70 99 100 92 7 24 44 45 100 100 100 100
0 5 16 0 0 0 0 2 6 48 9 5 5 13 11 12 40 96 96 0 0 2 3 4 26 40 13 100 100 100 100 99 100 100 100 100 100 100 100 100 100 100 58
0 5 53 4 0 0 0 0 0 74 49 75 99 57 54 69 40 34 15 14 7 9 14 21 39 1 51 97 100 100 100 100 100 100 100 100 88 100 100 100 100 100 68
5 26 8 1 0 0 0 0 0 9 1 6 97 2 5 16 28 18 24 16 2 21 21 22 24 64 80 95 99 100 100 100 100 100 100 100 100 100 100 100 100 100 100
51 14 6 1 1 5 5 2 0 0 75 28 91 92 14 93 59 33 10 27 4 23 55 61 42 88 76 82 100 100 100 100 100 100 100 89 100 100 100 100 100 100 88
100 71 5 5 4 4 0 5 2 4 4 21 97 36 8 3 34 2 33 29 22 10 19 39 12 80 55 100 100 100 100 100 100 100 100 100 100 100 100 100 100 100 100
94 5 66 5 5 29 5 5 5 5 2 17 70 100 76 64 95 98 56 20 19 26 30 26 63 95 98 100 100 100 100 100 100 100 100 100 100 95 100 100 100 100 99
7 61 35 5 5 6 37 47 40 5 5 5 16 20 98 76 63 79 27 66 16 27 20 80 78 64 64 100 100 100 100 100 100 100 100 100 100 100 88 100 89 100 100
85 68 32 27 5 11 93 100 100 9 4 5 10 72 100 61 100 100 24 86 73 66 79 78 100 100 98 100 100 100 100 100 100 100 100 100 100 100 96 100 100 100 89
30 49 30 25 94 38 48 24 7 46 24 11 8 30 43 93 92 91 79 94 90 73 100 100 100 100 100 100 100 100 100 100 100 100 100 100 100 100 97 96 100 100 100
18 9 8 17 48 15 6 5 5 67 80 88 5 28 25 62 66 89 100 100 100 100 96 100 100 100 100 100 100 100 100 100 100 100 100 100 100 100 100 100 100 100 100
12 5 5 49 17 54 12 5 17 98 100 100 52 22 23 75 100 96 99 100 100 99 100 100 100 100 100 100 100 100 100 100 100 100 100 100 100 100 100 93 100 100 100
15 70 14 70 97 100 93 41 94 100 100 100 100 62 91 98 100 100 94 95 100 100 100 100 100 100 100 100 100 100 100 100 100 100 100 100 100 100 100 100 99 96 98
7 92 94 82 99 99 92 6 99 76 100 100 100 99 100 100 59 98 84 93 100 100 100 100 100 100 100 100 100 100 100 100 100 100 100 100 99 100 100 100 100 100 98
11 92 100 78 100 100 100 63 38 100 96 100 93 80 100 100 11 100 89 100 100 100 100 82 100 100 100 100 100 100 100 100 100 100 100 100 99 99 98 97 100 100 100
6 73 100 100 92 90 91 12 30 98 88 100 100 72 100 100 99 81 100 100 100 100 100 87 100 100 100 100 100 100 100 100 100 100 100 100 100 100 100 100 100 97 100

GFSSE_prec_cloud_114.txt.gz
Cloud_Cover
0 0 0 0 0 0 0 0 0 0 0 0 0 0 0 0 0 0 0 0 0 0 4 3 0 0 0 0 0 1 5 5 5 11 81 77 37 5 0 0 0 19 0
0 0 0 0 0 0 0 0 0 0 0 0 0 0 0 0 0 0 1 0 0 0 0 2 0 0 0 0 0 0 0 2 5 5 5 5 0 0 0 0 0 10 5
0 0 0 0 0 0 0 0 0 4 0 0 0 0 0 0 0 0 0 0 0 81 5 37 19 13 13 0 0 0 0 0 0 0 2 0 0 0 0 0 0 0 8
0 0 0 0 0 0 0 0 0 0 0 0 0 0 0 1 0 0 0 0 0 0 0 25 16 6 3 0 0 0 0 0 0 0 41 0 20 0 0 0 16 22 21
0 0 0 0 0 0 0 0 0 0 34 0 0 0 0 0 0 0 0 0 1 2 0 2 2 1 4 10 5 0 0 2 0 9 42 30 0 2 1 5 2 5 5
0 0 17 0 0 0 0 0 0 0 95 50 0 0 0 0 0 0 0 4 0 0 5 26 49 99 100 100 100 95 5 0 0 37 59 86 0 18 0 0 4 5 5
0 0 0 0 0 0 0 0 0 0 4 0 0 0 0 0 0 0 0 0 0 0 0 19 96 5 5 99 100 100 100 81 7 7 76 4 8 5 20 1 2 5 5
0 0 0 4 0 0 0 0 2 12 13 3 0 0 0 0 0 97 41 0 0 0 0 4 100 5 5 5 7 82 99 77 86 94 96 46 5 25 49 5 30 37 9
0 0 0 0 0 0 0 0 0 10 17 92 5 42 0 0 0 0 76 95 97 100 36 8 70 7 34 38 100 100 80 67 100 91 20 5 5 100 98 90 95 18 20
0 0 0 0 0 3 0 7 0 0 8 0 0 100 0 1 0 0 0 66 100 100 99 9 1 5 5 100 100 100 100 37 100 100 100 11 5 95 100 100 100 95 100
0 0 0 0 2 5 2 3 39 16 1 9 15 34 74 0 0 0 0 1 0 3 5 4 2 5 5 35 100 100 100 63 100 100 47 5 19 5 84 82 76 65 29
0 0 0 0 0 0 0 3 0 0 3 14 1 0 0 0 0 0 0 0 1 2 5 5 5 6 2 7 45 100 100 99 100 56 85 42 83 36 38 93 53 97 100
0 0 0 0 4 3 0 0 1 5 0 0 0 0 0 0 0 0 0 6 81 100 100 27 70 7 0 0 22 100 100 100 100 100 100 100 89 100 100 100 100 100 100
0 0 5 5 40 24 5 1 5 6 2 0 0 0 0 0 0 0 0 0 9 4 5 1 0 0 0 3 17 99 100 100 100 100 100 100 100 100 100 100 100 100 100
25 82 24 18 100 100 5 2 7 5 3 0 0 0 0 0 0 0 0 0 0 0 0 0 3 0 75 30 96 16 100 100 100 100 100 100 100 100 100 100 100 100 100
100 100 93 95 100 100 30 4 6 5 5 0 0 0 0 0 0 0 0 2 0 1 4 5 5 4 91 37 96 65 98 100 100 100 100 100 100 100 100 100 100 100 100
100 90 5 100 100 80 5 5 33 27 5 5 2 2 5 0 0 0 0 0 0 0 8 5 7 5 28 98 24 98 100 100 100 100 100 100 100 100 100 100 100 100 100
100 100 28 61 100 33 5 52 5 5 5 5 95 100 79 2 0 0 0 0 0 0 4 2 4 5 48 100 62 100 100 100 100 100 100 100 100 100 100 100 100 100 100
100 100 100 100 100 58 8 91 5 24 21 3 5 66 5 97 16 50 1 1 0 0 1 13 38 1 56 100 99 98 100 100 100 100 100 100 100 100 100 100 100 100 100
100 100 100 100 85 29 43 39 6 6 8 0 5 23 24 96 75 41 80 0 0 20 49 96 90 58 100 100 100 98 100 100 100 100 100 100 100 100 100 100 100 100 100
100 100 100 100 55 28 72 14 17 5 27 0 2 14 61 88 100 89 100 1 25 54 92 58 99 100 100 100 100 100 100 100 100 100 100 100 100 100 100 100 100 100 84
99 100 100 65 88 90 90 39 15 32 24 14 3 36 5 5 17 99 50 0 28 100 98 100 100 100 100 100 100 100 100 100 100 100 100 100 100 100 100 100 100 100 98
100 51 9 94 17 21 69 98 46 51 14 54 54 31 100 81 71 100 5 42 30 100 100 98 100 83 100 100 100 100 100 100 100 100 100 100 100 100 100 100 100 99 100
100 74 100 72 90 66 99 78 100 96 80 67 19 78 86 100 100 100 89 64 98 64 100 100 100 82 90 100 100 100 100 100 100 100 100 100 100 100 100 100 100 100 100
94 100 100 97 21 63 60 68 99 100 67 99 35 96 100 100 100 100 100 97 100 100 73 74 100 98 100 100 100 100 100 100 100 100 100 100 100 100 100 100 100 100 100
98 68 93 37 65 48 43 74 98 100 100 98 44 40 100 100 100 100 100 100 100 100 100 100 70 92 100 100 100 100 100 100 100 100 100 100 100 100 100 100 97 99 98

GFSSE_prec_cloud_117.txt.gz
Cloud_Cover
0 2 0 0 0 0 0 0 0 0 0 0 0 0 0 0 0 0 0 0 0 0 1 0 0 0 0 0 0 0 34 56 43 100 100 99 100 90 92 100 100 98 84
0 9 0 0 0 0 0 0 0 0 0 0 0 0 0 0 0 0 0 0 0 0 0 0 0 0 0 0 0 0 0 2 4 10 33 5 52 57 50 100 81 97 100
0 4 0 0 0 0 0 0 0 0 0 0 0 0 0 0 0 0 0 0 0 0 0 0 0 1 0 0 0 0 0 0 0 0 0 5 2 19 2 1 5 5 6
0 0 0 0 0 0 0 0 0 0 0 0 0 0 0 0 0 2 0 0 0 9 70 0 0 0 0 0 0 0 0 0 0 0 0 0 0 0 55 20 4 21 5
0 0 0 0 0 0 0 0 0 0 0 0 0 0 0 0 0 0 0 0 0 4 0 0 0 0 2 4 26 100 98 4 0 0 0 0 0 1 35 47 30 28 5
0 0 0 0 0 0 0 0 0 8 74 0 0 0 0 0 0 0 0 0 0 0 0 2 3 5 9 74 2 2 36 100 57 3 27 22 17 33 0 0 0 1 8
0 0 0 0 0 0 9 9 0 60 89 0 0 0 0 0 0 0 0 0 1 1 2 2 0 7 26 5 5 60 100 100 100 70 5 99 38 4 11 10 4 5 4
0 0 0 0 0 0 4 6 4 0 0 0 0 0 0 0 0 0 0 0 0 8 87 87 100 84 57 30 8 17 38 100 100 24 95 100 100 83 90 33 6 5 6
0 0 25 6 0 0 0 12 16 17 10 0 0 0 0 0 0 0 0 0 0 1 18 99 100 99 5 20 89 98 100 100 37 7 74 100 100 100 100 72 29 29 23
0 0 24 22 21 21 16 10 22 22 12 0 1 44 2 0 0 0 0 0 0 1 14 98 100 96 6 5 12 85 100 16 29 25 73 100 100 100 99 100 91 15 100
1 0 2 23 12 15 19 8 12 20 12 0 3 98 71 18 0 0 0 0 0 0 1 0 4 5 5 5 5 68 92 44 65 67 100 100 100 94 100 100 100 42 100
0 0 0 5 3 4 1 17 30 45 99 100 38 26 33 19 4 0 0 0 0 0 0 4 4 4 8 10 5 13 68 49 91 100 42 99 100 82 31 100 99 33 91
1 0 11 100 100 5 5 16 28 34 52 48 23 28 10 8 3 0 1 1 1 0 0 20 25 39 6 12 9 6 5 5 96 98 98 100 100 100 96 100 100 100 100
2 0 5 9 5 72 100 96 20 11 89 70 5 8 15 24 1 0 0 1 2 0 12 27 39 15 6 10 10 6 3 9 100 100 100 100 100 100 100 100 100 100 100
16 1 76 99 77 100 100 100 80 5 51 95 5 5 5 4 2 0 1 0 0 0 0 19 8 0 4 11 14 16 16 6 98 84 100 100 100 100 100 100 100 100 100
7 64 31 100 94 100 100 44 31 5 21 41 75 19 0 0 0 3 5 2 0 0 0 0 0 1 10 6 1 19 29 10 12 100 100 100 100 100 100 100 100 100 100
72 98 100 100 98 97 9 35 58 58 100 100 72 56 1 0 4 0 3 0 0 0 0 17 12 10 16 18 15 100 41 19 9 100 100 100 100 100 100 100 100 100 100
100 99 5 85 100 100 70 6 58 100 100 100 38 5 5 3 0 0 0 0 0 0 0 0 38 27 25 40 73 40 46 29 96 100 100 100 100 100 100 100 100 100 100
100 100 100 5 85 100 100 58 100 100 100 42 12 2 0 0 0 6 4 1 0 0 1 1 27 26 67 88 64 99 92 78 100 100 100 100 100 100 100 100 100 100 100
100 100 100 24 98 100 100 100 100 100 47 17 5 5 4 0 0 2 36 30 0 6 14 18 12 57 86 100 75 88 99 94 100 100 100 100 100 100 100 100 100 100 100
100 100 100 100 100 100 100 100 100 97 5 5 7 5 0 0 0 87 100 100 97 7 4 18 97 100 99 90 77 100 100 100 93 100 100 100 100 100 100 100 100 100 100
12 63 100 100 100 100 100 100 56 5 5 5 5 10 5 4 5 20 100 100 100 49 100 100 100 98 100 100 100 100 100 100 100 100 100 100 100 100 100 100 100 100 100
45 17 72 100 100 100 100 100 100 80 100 89 56 100 56 13 8 5 77 100 100 99 72 100 100 100 100 100 100 100 100 100 100 100 100 100 100 100 100 100 100 100 100
84 77 100 100 100 100 100 100 100 100 100 99 5 17 48 34 23 73 53 100 100 96 8 67 100 100 100 100 98 100 100 100 100 100 100 100 100 100 100 100 100 100 100
100 34 53 100 97 95 11 97 100 100 100 97 5 5 72 100 80 92 100 95 96 43 26 92 83 100 100 100 100 100 100 100 100 100 100 100 100 100 100 100 100 100 100
27 8 69 88 100 100 100 100 97 100 100 100 63 5 46 98 99 100 100 100 100 86 97 98 92 100 71 99 100 100 100 100 100 100 100 100 100 100 100 100 100 100 100

GFSSE_prec_cloud_120.txt.gz
Cloud_Cover
0 0 0 0 0 0 0 0 0 0 0 0 0 0 0 0 0 0 0 0 0 0 0 0 0 0 0 0 0 4 5 5 100 80 96 100 98 99 100 100 100 100 100
0 0 0 0 0 0 0 0 0 0 0 0 0 0 0 0 0 0 0 0 0 1 0 0 0 0 0 0 0 0 0 5 6 100 100 10 44 98 65 100 100 100 100
0 0 0 0 0 0 0 0 0 0 0 0 0 0 0 0 0 0 0 0 0 0 0 0 0 0 0 0 0 0 0 0 0 4 35 61 63 90 98 7 98 100 100
1 0 0 0 0 0 0 0 0 0 0 0 0 0 0 0 0 0 0 0 0 0 0 0 0 0 0 0 0 0 0 0 0 0 0 0 16 100 71 17 19 35 39
0 0 0 0 0 0 0 0 1 10 1 0 0 0 0 0 0 0 0 0 0 0 0 0 9 0 0 0 4 5 25 12 22 2 0 0 4 86 34 26 26 8 3
0 0 0 0 0 0 0 0 24 22 2 0 0 0 0 0 0 0 0 0 0 0 0 1 1 0 1 5 4 63 5 4 24 100 99 2 1 41 76 59 1 5 5
0 0 1 0 0 0 6 17 20 9 4 0 0 0 0 0 0 0 0 0 0 0 0 0 52 61 27 45 3 6 5 5 16 44 68 6 60 98 46 16 5 5 20
0 21 12 0 2 10 14 10 0 0 2 0 0 0 0 0 0 0 0 0 0 0 0 0 3 52 12 88 18 62 29 6 5 67 72 100 100 100 100 62 21 5 5
0 19 33 24 32 31 24 12 0 0 2 3 0 0 0 0 0 0 0 0 0 0 0 0 0 60 26 14 31 6 35 20 5 16 97 99 100 100 100 99 98 95 96
5 18 42 40 48 66 60 28 22 20 17 10 3 0 0 0 0 0 0 0 0 0 0 0 0 0 63 100 99 86 13 76 90 13 8 95 100 100 100 100 100 72 96
17 23 40 44 40 47 73 65 44 35 27 22 12 15 22 11 0 0 0 0 0 0 0 0 0 0 1 3 74 92 98 6 8 58 86 100 100 100 100 100 97 52 43
42 43 20 38 39 34 41 96 100 100 71 9 20 34 43 31 8 0 0 0 0 0 0 0 0 0 11 27 33 48 12 46 22 36 34 100 100 100 100 100 100 99 92
0 8 28 30 33 25 56 100 100 100 100 100 65 6 35 48 31 20 19 3 3 0 0 1 25 30 15 21 9 20 27 10 24 22 21 100 100 100 100 100 86 100 100
12 3 3 6 24 53 77 80 100 100 100 100 100 41 46 69 51 34 31 15 9 13 19 20 30 15 3 4 1 13 21 21 22 6 5 60 100 100 100 100 100 100 100
97 70 2 0 0 5 85 100 100 100 100 89 53 100 43 47 61 22 20 20 14 7 12 29 19 21 19 13 8 10 20 5 5 16 23 5 100 99 100 100 100 100 100
100 74 5 5 5 1 12 100 100 100 100 100 100 100 99 100 100 15 10 16 17 0 14 9 10 19 27 26 27 30 27 15 6 26 24 17 100 97 99 100 100 100 100
46 100 86 4 0 6 70 100 100 100 100 86 100 100 100 100 86 5 7 14 9 5 5 22 16 47 32 28 17 36 47 38 30 5 5 51 100 100 100 100 100 100 100
2 93 100 100 25 96 100 100 100 100 15 76 100 100 100 100 11 8 7 7 5 12 9 17 19 48 19 36 39 34 86 100 49 28 26 47 100 100 100 100 100 100 100
0 2 50 88 100 100 100 79 2 27 100 100 100 100 100 96 86 5 6 11 2 10 11 20 45 14 63 79 85 61 96 100 100 98 55 91 100 100 100 100 100 100 100
0 0 0 9 100 100 100 96 2 12 100 100 100 100 100 96 38 5 11 4 9 10 30 36 36 46 67 100 100 99 100 100 100 100 83 87 100 100 100 100 100 100 100
3 0 0 5 98 100 100 100 99 5 62 100 100 100 100 92 7 5 6 81 100 100 21 29 66 100 100 100 100 100 100 100 100 100 90 100 100 100 100 100 100 100 100
43 5 5 6 98 100 100 100 100 88 100 100 100 100 100 48 97 5 5 27 54 100 100 74 98 100 100 100 100 100 95 100 100 100 100 100 100 100 100 100 100 100 100
37 66 93 5 73 100 100 100 100 100 100 100 100 100 100 100 90 8 8 12 91 100 100 100 98 100 100 100 100 100 100 100 100 100 100 100 100 100 100 100 100 100 100
100 19 78 99 54 47 54 100 100 100 100 100 85 22 92 100 8 40 83 84 93 100 100 100 100 100 100 100 100 100 100 27 100 100 100 100 100 100 100 100 100 100 100
79 5 24 97 100 100 100 100 100 100 100 100 100 5 100 16 5 68 100 100 100 95 100 100 100 99 90 100 100 100 67 100 100 100 100 100 100 100 100 100 100 100 100
85 90 100 100 100 100 100 100 80 100 100 100 92 95 100 5 72 89 99 84 100 99 100 100 100 100 100 100 95 100 100 100 100 100 100 100 100 100 100 100 100 100 100

GFSSE_prec_cloud_123.txt.gz
Cloud_Cover
2 2 2 0 0 0 0 0 0 0 0 0 0 0 0 0 0 0 0 0 0 0 0 0 0 0 0 0 0 1 4 5 41 63 71 89 100 100 100 100 100 100 100
3 1 0 0 0 0 0 0 0 0 0 0 0 0 0 0 0 0 0 0 0 5 1 0 0 0 0 0 0 0 0 5 5 98 8 91 30 100 100 100 100 100 100
0 1 4 0 0 0 0 0 0 0 0 0 0 0 0 0 1 0 0 0 0 0 6 0 0 0 0 0 0 0 0 0 0 2 4 88 57 100 100 100 100 100 100
0 0 13 0 0 0 1 0 0 0 0 0 0 0 0 0 0 0 0 0 0 0 6 5 0 0 0 0 0 0 0 0 1 2 5 0 100 100 59 14 35 84 100
0 0 0 0 0 0 4 0 0 0 0 0 0 0 0 0 0 0 0 0 0 0 4 34 0 0 2 0 0 0 4 4 3 4 11 3 98 100 41 23 12 6 21
14 0 0 0 0 0 0 11 17 2 0 0 0 0 0 0 0 0 0 0 0 0 0 2 0 0 5 5 4 1 0 5 5 4 2 55 43 96 96 34 0 0 2
24 6 1 0 0 0 0 19 40 16 0 0 0 0 0 0 0 0 0 0 0 0 0 0 0 3 5 1 17 73 5 6 6 0 1 87 96 100 99 54 5 5 53
11 22 6 0 0 0 0 37 40 22 2 0 0 0 0 0 0 0 0 0 0 0 0 0 0 1 0 1 46 15 44 5 85 5 5 23 34 100 100 100 100 100 100
2 20 41 35 34 18 30 32 15 24 10 1 0 0 0 0 0 0 0 0 0 0 0 0 0 4 0 0 9 81 5 5 5 12 5 95 40 96 100 98 100 100 98
34 26 67 96 100 91 60 14 0 0 16 10 6 0 0 0 0 0 0 0 0 0 0 0 1 0 0 0 20 1 5 5 8 22 27 19 98 92 100 100 100 100 100
54 73 100 100 100 100 100 62 12 11 26 20 12 11 23 7 5 0 0 0 0 0 0 0 0 0 0 2 6 12 29 51 26 6 9 5 78 100 100 100 100 100 100
52 79 86 100 100 100 100 100 99 100 97 96 82 56 50 54 23 5 0 0 0 0 0 0 0 0 2 67 55 16 35 5 5 11 10 54 100 100 100 100 100 100 100
89 8 65 80 88 100 100 100 100 100 100 86 84 56 91 66 34 33 35 25 6 0 5 0 0 10 13 46 44 9 5 8 25 10 4 6 100 100 100 100 100 100 100
100 12 32 40 58 63 97 100 100 100 100 100 100 16 91 100 85 47 36 31 22 23 10 8 15 1 21 19 12 10 4 14 30 17 5 26 100 100 100 100 100 100 100
43 27 11 26 26 36 62 100 100 100 100 100 100 100 90 100 100 78 100 44 27 27 16 25 16 14 20 19 10 11 7 5 5 18 22 0 7 53 100 100 100 100 100
16 5 5 9 6 89 87 42 55 98 100 100 100 100 100 100 100 68 91 81 29 16 22 12 12 15 20 22 26 14 16 6 2 3 9 5 11 11 100 100 100 100 100
5 5 1 3 38 15 13 5 32 26 40 46 94 100 100 100 80 44 78 58 30 18 18 27 22 16 24 37 26 40 34 16 15 2 13 6 5 54 89 100 100 100 100
60 4 5 2 1 4 43 48 33 15 15 63 100 100 83 87 100 44 68 100 42 28 15 17 27 39 32 60 55 58 99 48 20 14 11 19 20 7 35 100 100 100 100
79 5 5 5 3 0 0 8 99 79 97 100 81 28 21 78 92 100 100 100 35 47 36 23 50 40 86 98 88 95 100 93 100 99 46 19 19 27 95 100 100 100 100
100 27 5 5 5 2 5 7 65 34 28 93 72 28 11 52 100 100 100 100 33 47 70 72 71 84 76 84 100 100 100 100 100 100 100 99 87 100 99 100 100 100 100
95 88 42 49 18 5 5 5 24 36 35 29 38 48 29 83 100 100 100 100 57 84 56 83 93 100 99 100 100 100 100 100 100 100 100 100 100 100 100 100 100 100 100
5 88 5 9 62 8 91 99 44 5 92 30 41 100 100 88 64 100 100 100 100 100 100 100 100 100 100 100 100 100 88 98 100 100 92 100 100 100 100 100 100 100 100
91 5 3 6 13 5 12 100 100 28 65 100 100 100 100 100 100 100 100 100 100 29 51 99 100 100 100 100 100 81 94 50 89 86 98 97 100 100 100 100 100 100 100
30 5 5 4 2 9 92 100 100 46 58 100 100 100 100 100 100 100 100 100 100 63 59 96 100 100 100 100 100 100 100 43 24 92 100 100 100 100 100 100 100 100 100
5 5 5 11 98 100 31 92 97 100 100 100 100 100 100 100 100 100 100 94 100 100 100 100 100 100 100 100 100 100 100 100 68 100 100 100 100 100 100 100 100 100 100
5 9 25 100 100 100 100 99 100 100 100 100 100 100 100 100 100 100 95 95 100 97 100 100 100 100 100 100 100 100 100 100 75 100 91 100 100 100 100 100 100 100 100

GFSSE_prec_cloud_126.txt.gz
Cloud_Cover
0 1 0 3 0 3 5 5 4 0 0 0 0 0 0 0 0 0 0 0 0 0 0 0 0 0 0 0 0 0 4 2 3 6 93 85 92 67 83 84 68 33 100
0 0 0 3 0 0 0 0 0 0 0 10 0 0 0 0 0 7 0 0 0 0 0 0 0 0 0 0 0 0 0 5 5 8 52 100 100 100 70 91 100 98 100
0 3 0 5 0 0 0 0 0 0 0 0 0 0 0 0 5 11 0 0 0 0 0 0 0 0 0 0 0 0 0 0 0 0 1 5 100 100 71 20 87 100 24
2 5 11 0 5 0 0 0 0 0 0 0 0 0 0 0 12 8 0 0 0 0 0 0 0 0 0 0 0 0 0 0 1 5 5 2 100 100 47 12 26 100 89
0 0 20 0 0 0 0 0 0 0 0 0 0 0 0 0 2 6 0 0 0 0 0 0 0 0 0 0 1 0 0 4 2 0 1 33 100 100 16 21 10 3 83
0 6 34 2 0 2 0 0 0 0 0 0 0 0 0 1 0 0 0 0 0 0 0 0 0 0 0 2 5 0 0 1 0 1 0 0 2 12 99 17 1 0 0
15 9 36 1 11 2 0 6 4 0 0 0 0 0 0 0 0 0 0 0 0 0 0 0 0 0 2 4 0 0 0 0 1 4 5 1 1 100 100 100 99 12 5
21 16 8 0 3 2 16 29 7 0 0 0 0 0 0 0 0 0 0 0 0 0 0 0 0 0 0 0 0 0 0 2 4 5 4 4 3 59 100 100 100 100 100
22 30 21 7 0 0 22 46 21 1 0 0 0 0 0 0 0 0 0 0 0 0 0 0 0 0 0 0 0 0 0 1 5 5 5 5 5 10 80 100 100 89 100
54 38 61 45 33 33 65 51 32 10 2 5 5 0 0 0 0 0 0 0 0 0 0 0 0 0 0 6 0 0 0 0 5 5 50 7 5 97 88 100 100 100 100
93 99 100 93 39 92 99 80 34 28 9 8 5 0 10 1 0 5 5 0 0 0 0 0 0 0 0 14 0 0 0 1 5 6 51 7 5 22 69 100 95 100 100
68 100 92 78 100 100 100 98 60 87 91 68 59 33 33 24 15 64 5 3 0 0 0 1 0 0 6 82 28 4 0 0 2 15 12 5 5 8 46 100 100 100 100
6 51 81 99 100 100 100 100 100 100 100 100 100 100 63 41 34 29 36 25 14 2 14 10 26 26 35 100 43 20 0 0 0 5 7 5 5 5 25 100 100 100 100
4 16 76 100 100 100 88 100 100 100 100 100 100 100 100 99 83 99 39 35 26 26 16 15 22 22 28 75 19 5 0 6 22 20 5 5 5 67 80 100 100 100 100
3 9 75 100 100 100 97 100 100 100 100 100 100 100 100 100 99 88 65 40 34 31 18 26 14 25 33 37 26 3 0 0 5 24 5 0 0 18 85 100 100 100 100
1 95 28 82 82 100 100 86 100 100 100 100 100 100 99 100 100 100 97 45 38 29 28 27 13 21 30 33 30 10 0 0 0 3 7 0 0 5 5 89 100 100 100
5 7 100 23 43 68 97 100 100 100 100 100 100 100 100 100 100 100 100 70 33 34 28 30 22 15 26 28 26 25 14 3 3 17 2 7 2 35 18 100 100 100 100
5 10 63 3 15 23 20 46 68 99 100 100 100 100 100 100 100 100 100 100 41 36 56 34 36 38 28 68 96 86 71 34 9 3 3 0 8 17 10 80 78 100 100
98 94 100 53 1 4 3 9 12 52 62 64 68 96 100 100 97 100 55 75 39 58 67 34 68 18 98 97 98 100 100 100 35 66 72 4 12 48 26 15 12 67 100
58 49 100 98 5 2 4 9 37 55 26 42 14 27 58 94 95 68 53 62 52 100 100 55 22 88 95 99 100 100 100 100 98 100 100 100 60 44 79 96 98 99 100
78 5 98 100 15 15 5 32 74 56 81 75 38 9 16 72 58 68 89 48 100 100 100 91 100 100 100 100 100 100 100 100 87 36 98 100 100 100 100 100 100 100 100
100 34 6 83 100 88 2 5 5 5 57 61 92 67 100 76 44 92 88 97 100 100 95 100 100 100 100 100 100 99 44 87 100 100 96 92 98 63 100 95 100 100 100
100 99 32 54 73 100 65 35 94 52 61 100 100 97 63 100 74 33 85 86 100 100 100 100 86 100 100 100 100 100 100 32 83 99 100 100 95 100 95 94 95 95 100
99 100 92 44 85 100 76 8 79 23 72 88 80 81 99 100 100 100 100 98 100 100 100 100 99 45 100 100 100 100 100 88 25 82 65 36 100 100 100 100 100 100 100
100 98 100 100 100 100 100 98 100 29 48 44 42 99 100 100 100 100 100 100 100 100 100 100 82 89 100 100 100 100 100 100 100 100 97 98 82 100 100 100 100 100 100
9 33 83 100 100 100 86 94 100 100 47 52 73 78 100 100 100 100 100 100 83 100 100 100 100 100 100 100 100 100 100 100 100 100 100 26 19 100 100 100 100 100 100

GFSSE_prec_cloud_132.txt.gz
Cloud_Cover
0 0 0 0 0 0 0 0 0 0 0 0 0 0 0 0 0 0 0 0 0 0 0 0 0 0 0 0 0 0 0 0 3 1 69 26 100 98 87 100 100 46 38
0 0 14 0 0 0 0 0 0 0 0 0 0 0 0 0 0 0 0 0 0 0 0 0 0 0 0 0 0 0 0 0 4 5 7 9 48 61 100 100 100 100 100
2 4 4 0 0 1 0 1 14 0 0 0 0 0 0 0 0 0 0 0 0 0 0 0 0 0 0 0 0 0 0 0 0 0 0 28 7 10 100 100 100 28 100
5 2 4 6 0 0 0 0 13 13 0 0 0 0 0 0 0 0 0 0 0 0 0 0 0 0 0 0 0 0 0 0 0 0 80 98 24 0 36 100 100 100 100
3 0 0 1 0 0 0 0 0 9 0 0 0 0 0 0 0 0 0 0 0 0 0 0 0 0 0 0 0 0 0 0 0 11 96 98 61 2 0 0 10 62 33
0 0 70 7 0 0 0 0 0 0 0 0 0 0 0 0 0 0 0 0 0 0 0 3 0 0 0 0 0 0 0 0 0 46 48 2 48 0 0 0 5 69 8
0 0 10 7 0 0 0 0 0 0 0 0 0 0 0 0 0 0 0 0 0 0 0 0 0 0 0 0 0 0 0 0 20 28 42 15 16 2 5 0 5 9 6
2 4 12 18 0 0 0 0 0 0 0 0 0 0 0 0 0 0 0 0 0 0 0 0 0 0 0 0 0 0 0 0 6 38 69 76 1 12 20 48 20 6 19
9 40 39 4 1 30 0 0 0 0 0 0 0 0 0 0 0 0 0 0 0 0 0 0 0 0 0 0 0 0 0 0 44 35 35 82 0 3 43 100 100 82 99
0 4 21 19 0 0 0 7 0 0 0 0 0 0 0 6 0 5 1 2 0 5 0 0 0 0 0 0 0 0 0 8 48 8 50 97 0 5 100 100 100 100 100
9 1 18 19 13 7 12 6 53 24 1 9 13 3 68 0 0 8 1 6 5 5 5 5 1 0 0 9 0 0 11 29 23 36 67 6 0 0 50 100 100 100 100
7 1 0 15 18 1 2 14 2 0 0 0 1 0 0 1 5 2 9 5 5 66 5 5 5 6 45 0 4 40 0 33 2 36 88 1 0 0 5 33 100 100 100
0 4 5 23 10 30 3 6 0 0 0 7 5 5 8 44 63 51 63 58 8 13 5 42 20 52 8 28 15 0 1 0 36 63 33 0 0 0 5 6 99 100 100
0 6 5 3 7 96 93 24 34 3 0 3 6 24 8 53 97 69 100 72 99 19 79 75 95 100 67 22 2 11 0 2 21 38 51 0 0 0 0 6 5 93 100
56 11 5 4 89 59 5 1 3 0 6 1 10 39 17 24 59 61 97 100 100 94 100 94 92 88 84 16 5 18 15 6 2 3 21 2 0 0 0 2 11 96 100
100 100 98 21 21 100 95 0 12 36 12 11 6 60 43 10 43 64 94 99 100 100 98 44 69 68 57 68 24 23 41 40 47 28 14 11 0 0 0 0 13 100 100
100 100 82 35 98 100 100 67 5 16 85 95 67 87 100 30 37 55 42 35 88 98 92 71 96 99 75 57 73 59 51 42 52 58 38 30 50 39 0 0 0 34 100
100 100 100 100 22 98 100 100 95 5 93 100 52 80 100 99 32 62 54 22 44 96 82 90 98 86 90 93 69 79 86 89 68 50 71 63 54 100 67 4 0 0 77
100 100 100 100 100 72 100 100 100 4 11 10 93 88 100 90 92 74 37 69 21 91 100 44 53 76 64 87 97 100 92 99 9 48 84 86 99 38 99 56 0 0 0
100 100 100 98 100 100 100 100 100 95 11 10 27 5 44 100 100 100 66 99 31 6 84 100 99 56 67 52 100 100 100 100 24 67 58 85 64 99 95 76 77 6 0
30 58 71 100 52 100 100 100 100 100 100 28 7 8 5 98 100 100 82 72 74 6 8 100 100 100 95 99 100 100 96 100 61 30 29 98 99 54 61 89 100 100 47
39 5 11 5 42 7 5 82 100 100 100 20 5 7 22 100 100 100 67 94 30 71 68 100 100 100 100 100 90 80 91 100 72 55 34 32 66 68 67 90 100 100 51
0 5 5 6 27 12 5 14 100 100 100 21 97 92 91 65 71 100 99 43 34 75 100 100 100 100 100 100 63 97 100 100 100 70 100 45 75 100 84 94 100 98 90
0 0 4 0 5 7 49 22 20 100 100 100 100 87 32 8 66 70 99 100 95 100 100 100 100 100 100 100 100 97 100 100 100 100 91 42 18 18 71 68 100 100 98
0 0 0 2 4 13 46 65 5 80 100 100 100 100 100 64 14 48 100 100 98 100 100 100 100 100 100 100 100 100 100 100 100 100 100 83 35 5 3 43 78 48 60
0 0 0 2 11 34 9 90 75 53 100 100 100 100 100 100 70 77 100 98 100 93 100 100 100 100 100 100 100 100 100 100 100 100 100 79 81 96 14 42 94 47 43

GFSSE_prec_cloud_135.txt.gz
Cloud_Cover
3 0 0 0 0 0 0 0 1 0 0 0 0 0 0 0 0 0 0 0 0 0 0 0 0 0 0 0 0 0 0 0 0 0 2 91 74 100 100 100 100 100 100
0 0 20 0 0 0 0 0 4 2 0 0 0 0 0 0 0 0 0 0 0 0 0 0 0 0 0 0 0 0 0 0 1 4 5 5 7 8 100 100 100 100 99
0 2 1 0 0 0 1 1 0 3 0 0 0 0 0 0 0 0 0 0 0 0 0 0 0 0 0 0 0 0 0 0 0 0 0 14 0 0 0 100 100 100 100
52 44 30 100 78 14 3 0 0 0 0 0 0 0 0 0 0 0 0 0 0 0 0 0 0 0 0 0 0 0 0 0 0 0 41 100 14 0 0 89 100 98 71
58 35 18 4 0 0 0 0 0 0 0 0 0 0 0 0 0 0 0 0 0 0 0 0 0 0 0 0 0 0 0 0 0 0 64 82 84 2 0 0 12 98 100
3 3 74 0 0 0 0 2 1 0 0 0 0 0 0 0 0 0 0 0 0 0 0 2 0 0 0 0 0 0 0 0 31 72 100 59 79 0 0 0 0 0 5
5 16 0 0 0 0 0 6 18 0 0 0 0 0 0 0 0 0 0 0 0 0 0 0 0 0 0 0 0 0 0 0 0 100 14 62 18 0 0 0 2 0 1
18 21 11 18 0 0 0 0 0 0 0 0 0 0 0 0 0 0 0 0 0 0 0 0 0 0 0 0 0 0 0 0 24 99 89 100 0 4 5 5 5 4 12
3 24 62 12 1 30 0 0 0 0 0 0 0 0 5 0 0 0 0 0 0 0 0 0 0 0 0 0 0 0 0 0 11 95 98 98 0 0 44 100 70 73 71
6 7 100 76 10 0 1 7 0 0 0 0 0 0 1 9 4 8 4 12 2 0 2 5 5 5 0 0 0 0 0 0 84 100 98 21 0 0 3 94 100 100 100
2 23 34 96 55 11 3 3 53 26 1 9 20 11 68 5 5 8 0 0 0 5 5 5 5 5 0 6 5 0 11 13 87 100 99 50 0 0 0 5 78 100 100
93 57 31 14 34 33 11 14 0 0 3 0 0 0 0 1 1 0 1 0 5 5 5 5 5 5 48 5 11 40 0 91 3 100 100 7 0 0 0 4 15 100 100
12 5 20 40 11 13 0 8 2 0 2 0 4 1 0 4 2 19 3 11 70 99 51 37 30 5 5 83 91 5 1 100 52 100 80 0 0 0 0 0 63 96 100
100 25 26 89 75 22 0 6 0 0 2 12 22 0 1 0 2 5 14 51 83 82 26 33 11 6 65 90 98 100 100 34 100 99 80 7 0 0 0 0 4 58 71
95 100 77 70 100 51 20 13 3 0 0 79 6 1 0 25 0 9 41 94 100 99 64 74 54 10 77 100 100 100 100 91 82 41 100 2 0 0 0 0 0 10 77
100 100 100 100 100 100 99 94 86 5 5 4 17 5 0 4 7 4 52 38 12 47 97 100 100 100 100 100 75 100 100 100 100 98 69 92 0 0 0 0 0 0 100
14 100 100 100 100 100 100 100 100 11 5 2 11 42 1 0 5 77 8 5 10 57 100 99 38 96 36 35 92 98 100 100 100 100 84 94 92 21 0 0 0 0 5
0 4 84 100 100 100 100 100 100 100 69 5 5 33 6 4 31 100 42 57 33 57 79 83 5 89 60 5 10 31 74 91 100 100 100 100 98 100 100 49 0 0 0
73 2 1 2 22 97 100 100 100 100 98 52 5 6 38 61 5 48 19 21 30 13 65 76 5 28 56 76 63 67 41 25 63 99 100 100 100 56 100 58 83 0 0
18 89 1 4 63 98 100 100 100 100 100 90 13 33 93 98 74 5 6 14 27 21 59 24 5 70 6 62 97 100 100 100 31 7 11 93 100 100 94 100 100 55 0
0 5 42 0 0 57 100 100 100 100 100 100 100 100 89 82 100 89 31 94 91 58 8 94 54 8 13 100 100 100 100 93 68 94 19 50 100 91 100 100 100 82 9
4 0 2 4 3 0 79 100 99 76 100 100 100 40 2 19 98 100 95 65 89 92 41 20 75 100 100 100 100 100 100 100 100 100 100 98 36 100 84 100 99 100 58
2 0 0 0 0 5 10 92 100 100 84 100 100 81 48 5 100 100 100 83 100 30 36 52 22 100 100 99 93 100 100 100 100 100 100 36 95 89 26 3 98 99 49
0 0 0 0 0 0 3 100 44 99 82 77 100 100 46 30 20 93 100 100 100 96 71 77 75 100 100 91 84 100 100 100 100 100 100 100 87 38 76 5 29 24 24
12 1 9 3 0 0 0 84 100 32 100 100 83 5 1 72 24 86 88 100 57 100 73 70 100 100 100 100 100 100 100 100 100 100 100 100 100 100 92 17 42 28 18
93 21 1 0 2 0 0 38 100 21 90 100 99 6 4 29 95 100 60 8 100 99 96 87 100 100 100 100 100 100 100 100 100 100 100 100 100 100 90 42 54 63 76